     2.10           OBSERVATION DATA    G (GPS)             RINEX VERSION / TYPE
teqc 2002Mar14 SOPAC 20050725 21:29:03UTC                   PGM / RUN BY / DATE
Linux 2.0.36|Pentium II|gcc -static|Linux|486/DX+           COMMENT
BIT 2 OF LLI FLAGS DATA COLLECTED UNDER A/S CONDITION       COMMENT
HPGN D CA 01 GF                                             MARKER NAME
01GF                                                        MARKER NUMBER
Tim Dowell                                                  OBSERVER / AGENCY
0220202930 TRIMBLE 4700                                     REC # / TYPE / VERS
0220063966 TRM22020.00+GP NONE                              ANT # / TYPE
 -2704322.0000 -4109646.0000  4046180.0000                  APPROX POSITION XYZ
        2.0000        0.0000        0.0000                  ANTENNA: DELTA H/E/N
     1     1                                                WAVELENGTH FACT L1/2
     6    L1    L2    C1    P2    P1    D1                  # / TYPES OF OBSERV
    15.0000                                                 INTERVAL
Northern California Height Modernization 2004               COMMENT
                                                            COMMENT
SOPAC - Scripps Orbit and Permanent Array Center            COMMENT
IGPP - Institute of Geophysics and Planetary Physics        COMMENT
SIO - Scripps Institution of Oceanography                   COMMENT
UCSD - University of California, San Diego                  COMMENT
                                                            COMMENT
email: archive@gpsmail.ucsd.edu                             COMMENT
ftp://garner.ucsd.edu                                       COMMENT
http://sopac.ucsd.edu                                       COMMENT
                                                            COMMENT
                                                            COMMENT
Approximate Lat, Lon : 39.625, -123.347                     COMMENT
                                                            COMMENT
SNR is mapped to RINEX snr flag value [1-9]                 COMMENT
L1: 3 -> 1; 8 -> 5; 40 -> 9                                 COMMENT
L2: 1 -> 1; 5 -> 5; 60 -> 9                                 COMMENT
  2004     9    14    20    59   30.0000000     GPS         TIME OF FIRST OBS
                                                            END OF HEADER
 04  9 14 20 59 30.0000000  0  5G 3G 8G13G23G27
      8347.16259      -494.59957  22979202.7664   22979201.4534
      -563.4374
    -19409.77659    -14133.00658  22208804.7894   22208801.8094
      1304.9534
     20532.66559      5048.68158  20197021.5394   20197018.3204
     -1382.9844
     54023.59959     20074.28558  21957358.7734   21957354.1334
     -3630.0624
      -727.57359     -4659.20758  21134581.4384   21134579.3284
        55.0944
 04  9 14 20 59 45.0000000  0  5G 3G 8G13G23G27
     16854.74249      6134.68047  22980820.6484   22980820.0394
      -571.2504
    -38973.55249    -29377.49348  22205081.9534   22205079.4774
      1303.2814
     41322.83949     21248.83348  20200977.7734   20200974.5004
     -1389.2664
    108501.30649     62524.43148  21967725.8754   21967720.8954
     -3633.9694
     -1543.53449     -5295.00848  21134426.4924   21134423.6644
        53.4534
 04  9 14 21  0  0.0000000  0  6G 3G 8G13G19G23G27
     25503.34149     12873.87047  22982466.9454   22982465.9384
      -582.0784
    -58488.69249    -44584.07648  22201367.6644   22201366.1054
      1298.6094
     62230.90449     37540.82148  20204956.5634   20204953.0234
     -1398.6254
    -60412.82959    -44844.05957  23535619.1414   23535616.1604
      1338.8284
    163062.66649    105039.76348  21978108.1724   21978103.1564
     -3641.0314
     -2312.60149     -5894.28748  21134279.8284   21134277.4654
        48.9384
 04  9 14 21  0 15.0000000  0  6G 3G 8G13G19G23G27
     34327.30749     19749.69247  22984146.6804   22984145.3364
      -594.7194
    -77920.98949    -59726.11148  22197670.7424   22197667.8054
      1292.1564
     83291.13149     53951.38348  20208964.2814   20208961.0474
     -1409.6564
    -80437.40849    -60447.61847  23531809.2194   23531806.0824
      1330.7034
    217741.73049    147646.80848  21988513.5164   21988509.0124
     -3649.7504
     -3000.56449     -6430.36248  21134148.8754   21134146.7894
        42.6254
 04  9 14 21  0 30.0000000  0  6G 3G 8G13G19G23G27
     43342.85449     26774.77647  22985861.9534   22985860.4264
      -607.2504
    -97254.21449    -74790.95648  22193991.2034   22193989.0084
      1285.7504
    104519.73949     70493.14748  20213004.4774   20213000.3164
     -1420.6874
   -100337.42049    -75954.10247  23528022.2194   23528019.7664
      1322.7504
    272554.66049    190358.14148  21998944.3364   21998939.7664
     -3658.4534
     -3591.37949     -6890.73548  21134036.6884   21134034.2384
        36.3594
 04  9 14 21  0 45.0000000  0  6G 3G 8G13G19G23G27
     52565.22349     33961.03647  22987616.8984   22987616.2074
      -622.8124
   -116473.41849    -89766.93348  22190334.0004   22190332.1024
      1276.4224
    125931.81149     87177.88448  20217078.8524   20217075.1564
     -1434.6414
   -120097.44249    -91351.50747  23524261.8594   23524259.1024
      1311.4844
    327516.33249    233185.39948  22009403.1954   22009398.2894
     -3670.1724
     -4069.95949     -7263.65148  21133945.6484   21133942.9774
        27.0784
 04  9 14 21  1  0.0000000  0  6G 3G 8G13G19G23G27
     62017.60349     41326.53247  22989415.2664   22989414.7344
      -637.7344
   -135555.53249   -104636.11248  22186702.1334   22186700.9384
      1267.5474
    147550.50149    104023.60148  20221192.5234   20221188.7734
     -1448.1094
   -139694.06749   -106621.57547  23520532.7274   23520530.0474
      1300.9224
    382649.66549    276146.41448  22019894.1174   22019889.3914
     -3681.3284
     -4413.20349     -7531.11648  21133880.5314   21133877.8754
        18.3284
 04  9 14 21  1 15.0000000  0  6G 3G 8G13G19G23G27
     71707.86649     48877.37747  22991259.6644   22991258.2934
      -653.9224
   -154492.90149   -119392.49748  22183098.5394   22183096.5824
      1257.6724
    169383.56349    121036.37448  20225347.0864   20225343.4454
     -1462.6254
   -159119.22149   -121758.04347  23516836.6724   23516832.9924
      1289.2664
    437962.24149    319247.10648  22030420.2344   22030415.2774
     -3693.5164
     -4613.50949     -7687.19948  21133842.1414   21133839.7344
         8.5474
 04  9 14 21  1 30.0000000  0  6G 3G 8G13G19G23G27
     81645.03049     56620.62147  22993150.5394   22993149.3754
      -670.8284
   -173276.45049   -134029.01648  22179523.9384   22179522.2424
      1247.0314
    191440.13249    138223.30848  20229544.2034   20229540.9264
     -1478.0314
   -178363.70449   -136753.73747  23513173.9774   23513170.9264
      1276.9694
    493462.72549    362494.20948  22040981.4924   22040977.4614
     -3706.3914
     -4661.93249     -7724.93048  21133832.7664   21133830.2304
        -1.9534
 04  9 14 21  1 45.0000000  0  6G 3G 8G13G19G23G27
     91825.65949     64553.56947  22995088.0394   22995086.7274
      -687.0004
   -191909.58649   -148548.32648  22175978.5314   22175977.2814
      1237.0164
    213716.70449    155581.67348  20233783.3524   20233779.5864
     -1492.6564
   -197430.58149   -151611.02047  23509546.2344   23509542.9964
      1265.0944
    549147.62549    405885.00248  22051578.1484   22051573.3914
     -3718.6564
     -4562.00149     -7647.05448  21133851.8754   21133849.0004
       -11.7664
 04  9 14 21  2  0.0000000  0  6G 3G 8G13G19G23G27
    102259.43249     72683.79147  22997073.7584   22997071.6954
      -704.0624
   -210382.67549   -162942.93548  22172463.0944   22172461.3444
      1226.1414
    236223.04249    173119.07048  20238066.5864   20238062.3954
     -1508.1254
   -216310.07449   -166322.27847  23505953.6254   23505950.4104
      1252.2974
    605026.33049    449426.83848  22062212.0234   22062206.6724
     -3731.8124
     -4304.15949     -7446.14148  21133900.8204   21133898.5664
       -22.4844
 04  9 14 21  2 15.0000000  0  6G 3G 8G13G19G23G27
    112938.57949     81005.19547  22999105.6024   22999104.6454
      -720.2194
   -228703.79749   -177219.11748  22168976.8984   22168974.6484
      1216.2194
    258951.38849    190829.46548  20242391.4614   20242387.8714
     -1522.6874
   -235009.70249   -180893.39447  23502394.5164   23502391.4344
      1240.6094
    661090.70249    493113.33148  22072880.2274   22072875.1804
     -3743.8444
     -3896.35349     -7128.37048  21133978.4614   21133975.9734
       -32.2974
 04  9 14 21  2 30.0000000  0  6G 3G 8G13G19G23G27
    123861.33449     89516.43947  23001184.1724   23001183.2344
      -736.1094
   -246874.73349   -191378.28348  22165518.6884   22165517.4264
      1206.5634
    281899.63649    208711.20448  20246758.4224   20246754.8284
     -1537.0004
   -253530.82649   -195325.42547  23498870.8524   23498867.0554
      1228.9844
    717338.87049    536943.05748  22083583.7504   22083579.3524
     -3755.7664
     -3340.40749     -6695.15848  21134084.2894   21134081.4184
       -41.7504
 04  9 14 21  2 45.0000000  0  6G 3G 8G13G19G23G27
    135028.63449     98218.22547  23003309.1094   23003307.6764
      -752.3914
   -264894.70449   -205419.82048  22162090.3524   22162087.4774
      1196.5634
    305068.65049    226764.97748  20251167.3134   20251163.6524
     -1551.6874
   -271872.34949   -209617.51747  23495380.3364   23495377.4844
      1216.9844
    773771.41649    580916.44148  22094322.8284   22094318.0004
     -3768.1414
     -2635.54049     -6145.91548  21134218.8594   21134216.0434
       -51.7194
 04  9 14 21  3  0.0000000  0  6G 3G 8G13G19G23G27
    146434.02149    107105.51347  23005479.6484   23005478.3674
      -768.2974
   -282770.04149   -219348.64048  22158688.7424   22158686.3674
      1186.8914
    328452.01349    244985.77348  20255616.9774   20255613.1214
     -1566.0784
   -290040.47449   -223774.49047  23491922.2894   23491920.1644
      1205.3754
    830381.77049    625028.37448  22105095.4774   22105090.2704
     -3780.0004
     -1788.32449     -5485.74548  21134379.6884   21134376.8714
       -61.2344
 04  9 14 21  3 15.0000000  0  6G 3G 8G13G19G23G27
    158074.44949    116175.96247  23007694.2424   23007693.3834
      -784.0314
   -300504.10149   -233167.36748  22155313.7034   22155311.9414
      1177.4534
    352046.48849    263371.06848  20260106.6484   20260102.9224
     -1580.1094
   -308038.03149   -237798.55947  23488499.0164   23488494.7194
      1194.0474
    887166.50449    669276.20848  22115901.8444   22115895.8594
     -3791.5164
      -802.05749     -4717.22748  21134567.8054   21134564.7734
       -70.4694
 04  9 14 21  3 30.0000000  0  6G 3G 8G13G19G23G27
    169942.83849    125424.06347  23009952.9384   23009951.5434
      -798.4374
   -318103.87949   -246881.48048  22151964.7974   22151961.9534
      1169.2504
    375845.21249    281915.53248  20264635.5004   20264631.9924
     -1593.0164
   -325871.81649   -251695.01247  23485104.5704   23485101.1524
      1183.8754
    944118.41749    713654.30948  22126738.7034   22126733.6134
     -3801.8754
       316.17749     -3845.87548  21134780.1414   21134777.4884
       -78.5784
 04  9 14 21  3 45.0000000  0  6G 3G 8G13G19G23G27
    182035.07949    134846.58547  23012254.1564   23012252.8874
      -813.3124
   -335573.44349   -260494.12248  22148640.5234   22148638.3794
      1160.6564
    399843.96049    300615.84548  20269202.6094   20269198.7424
     -1606.2974
   -343545.75849   -265466.93147  23481741.4064   23481737.5594
      1173.1724
   1001232.98149    758159.12748  22137607.5704   22137603.3134
     -3812.7664
      1562.09049     -2875.03748  21135017.1484   21135014.4844
       -86.9844
 04  9 14 21  4  0.0000000  0  6G 3G 8G13G19G23G27
    194347.92149    144441.00247  23014596.9224   23014596.0314
      -827.9224
   -352916.26749   -274007.99748  22145340.0314   22145337.7384
      1152.3284
    424039.45049    319469.47948  20273806.5234   20273802.7154
     -1619.2814
   -361062.92449   -279116.63847  23478408.2344   23478403.8134
      1162.7974
   1058506.82449    802788.03048  22148506.2814   22148502.0204
     -3823.2504
      2932.37849     -1807.27948  21135278.4534   21135275.5594
       -95.1414
 04  9 14 21  4 15.0000000  0  6G 3G 8G13G19G23G27
    206879.48049    154205.85447  23016981.5704   23016981.0004
      -842.4694
   -370134.37949   -287424.70548  22142063.8914   22142060.7034
      1144.0314
    448429.67149    338474.83748  20278448.2034   20278444.4964
     -1632.2194
   -378424.92149   -292645.46147  23475104.0864   23475101.8594
      1152.5634
   1115937.70049    847539.33748  22159434.8984   22159430.2194
     -3833.6254
      4424.96749      -644.22248  21135562.3204   21135559.8364
      -103.3594
 04  9 14 21  4 30.0000000  0  6G 3G 8G13G19G23G27
    219620.29049    164133.73747  23019406.3524   23019405.3284
      -856.9374
   -387237.44049   -300751.75648  22138809.0084   22138806.6884
      1135.8754
    473005.15649    357624.56748  20283124.3204   20283121.3634
     -1645.1094
   -395640.89549   -306060.50347  23471827.7424   23471824.8094
      1142.3594
   1173516.00749    892405.53148  22170391.7974   22170386.1914
     -3843.9844
      6030.29349       606.68648  21135867.9224   21135865.2734
      -111.3284
 04  9 14 21  4 45.0000000  0  6G 3G 8G13G19G23G27
    232571.89349    174225.89947  23021871.4384   23021869.5904
      -870.4224
   -404223.76849   -313987.84348  22135575.9304   22135573.4964
      1128.5944
    497767.52349    376919.90048  20287836.5234   20287832.9414
     -1657.0314
   -412709.09249   -319360.39647  23468579.9224   23468576.5634
      1132.9064
   1231243.04449    937387.63148  22181376.9694   22181372.4344
     -3853.4374
      7749.77749      1946.54448  21136194.8754   21136192.7854
      -118.3914
 04  9 14 21  5  0.0000000  0  6G 3G 8G13G19G23G27
    245726.45949    184476.20347  23024374.4924   23024372.8324
      -883.5474
   -421101.48949   -327139.29648  22132365.1174   22132362.5314
      1121.6414
    522708.74249    396354.61148  20292583.0634   20292578.9804
     -1668.6564
   -429637.08249   -332551.04247  23465358.7664   23465355.6804
      1124.0164
   1289110.59749    982479.21248  22192388.5164   22192383.6374
     -3862.3284
      9575.48049      3369.18148  21136542.3134   21136539.6724
      -125.1724
 04  9 14 21  5 15.0000000  0  6G 3G 8G13G19G23G27
    259084.54349    194885.08747  23026916.0234   23026914.7584
      -896.9064
   -437870.00749   -340205.66548  22129173.9384   22129171.8754
      1114.6094
    547829.40549    415929.14948  20297363.1564   20297359.5514
     -1680.2814
   -446423.88349   -345631.64347  23462164.3054   23462161.2194
      1114.8754
   1347119.21349   1027680.70048  22203426.6564   22203422.6334
     -3871.6094
     11507.86749      4874.93348  21136909.9534   21136907.4304
      -131.9694
 04  9 14 21  5 30.0000000  0  6G 3G 8G13G19G23G27
    272639.56449    205447.43747  23029495.6414   23029494.7114
      -910.3124
   -454535.89449   -353192.06748  22126002.5944   22126000.8524
      1107.6414
    573122.84449    435638.31548  20302176.1804   20302172.5864
     -1692.0314
   -463075.94749   -358607.29247  23458994.6484   23458992.1914
      1105.5314
   1405261.96249   1072986.68548  22214491.3674   22214487.1764
     -3880.7504
     13540.31649      6458.65948  21137296.6564   21137293.8914
      -138.8914
 04  9 14 21  5 45.0000000  0  6G 3G 8G13G19G23G27
    286390.43349    216162.40047  23032112.1094   23032110.4804
      -922.9374
   -471100.35349   -366099.44048  22122849.7114   22122848.5474
      1101.1884
    598587.96149    455481.26948  20307022.2034   20307018.5004
     -1703.1094
   -479594.16049   -371478.57247  23455852.1804   23455848.9224
      1097.1414
   1463537.50949   1118396.18648  22225581.2424   22225576.7664
     -3889.1564
     15671.55949      8119.37048  21137702.2344   21137699.5744
      -145.0624
 04  9 14 21  6  0.0000000  0  6G 3G 8G13G19G23G27
    300331.09749    227025.24247  23034764.6884   23034763.7194
      -935.4534
   -487569.38449   -378932.42948  22119715.9694   22119713.9574
      1095.0634
    624218.86749    475453.39048  20311899.4454   20311895.8014
     -1714.0314
   -495984.19049   -384250.01947  23452733.6804   23452729.8754
      1088.6414
   1521939.66049   1163904.31848  22236694.5864   22236690.4264
     -3897.4534
     17895.56449      9852.36148  21138125.5004   21138122.9614
      -151.1254
 04  9 14 21  6 15.0000000  0  6G 3G 8G13G19G23G27
    314464.56049    238038.32147  23037453.8914   23037453.5124
      -948.1724
   -503940.31249   -391688.99148  22116601.0394   22116599.3754
      1088.5634
    650018.28149    495556.82348  20316809.1094   20316805.3834
     -1725.1094
   -512242.98549   -396919.17247  23449639.0864   23449635.8054
      1080.0164
   1580471.01049   1209513.14148  22247833.1644   22247828.0704
     -3905.9224
     20215.00449     11659.72748  21138566.9924   21138564.0394
      -157.2814
 04  9 14 21  6 30.0000000  0  6G 3G 8G13G19G23G27
    328786.85449    249198.53847  23040179.3134   23040179.1174
      -961.0164
   -520217.10049   -404372.19948  22113503.2114   22113501.7274
      1082.0784
    675982.28249    515788.51048  20321749.9844   20321746.3284
     -1736.3914
   -528374.11649   -409488.85747  23446569.2664   23446566.2344
      1071.1564
   1639127.47349   1255219.43948  22258994.7424   22258989.8874
     -3914.6724
     22625.89849     13538.33448  21139026.0314   21139023.5984
      -163.7814
 04  9 14 21  6 45.0000000  0  6G 3G 8G13G19G23G27
    343295.37149    260503.88647  23042940.8984   23042939.5434
      -973.1874
   -536402.22449   -416983.97748  22110423.9144   22110421.7464
      1076.2034
    702108.21349    536146.37348  20326721.1484   20326717.7234
     -1746.8914
   -544379.86349   -421960.86047  23443524.2344   23443520.6914
      1063.1414
   1697906.17749   1301021.00248  22270180.2274   22270175.4024
     -3922.4064
     25125.53549     15486.11648  21139501.3594   21139498.8954
      -169.4534
 04  9 14 21  7  0.0000000  0  6G 3G 8G13G19G23G27
    357984.72049    271950.15247  23045736.4144   23045734.5314
      -985.3124
   -552501.25449   -429528.67448  22107361.2034   22107357.9804
      1070.3754
    728390.62949    556626.16048  20331722.7034   20331719.1484
     -1757.3594
   -560265.52049   -434339.29047  23440500.9144   23440497.0004
      1055.0004
   1756801.51649   1346913.46848  22281387.5554   22281382.5984
     -3930.2664
     27708.46549     17498.79348  21139992.7424   21139990.2894
      -175.0004
 04  9 14 21  7 15.0000000  0  6G 3G 8G13G19G23G27
    372852.30749    283535.23147  23048565.2114   23048564.5744
      -996.8444
   -568516.72949   -442008.25248  22104312.3834   22104310.5084
      1065.2034
    754826.96049    577225.90248  20336753.4614   20336749.5824
     -1767.2814
   -576033.27049   -446625.84747  23437501.1174   23437497.1604
      1047.5474
   1815810.75349   1392894.65848  22292616.4924   22292611.6254
     -3937.5004
     30372.10349     19574.35148  21140499.8364   21140497.3484
      -179.9694
 04  9 14 21  7 30.0000000  0  6G 3G 8G13G19G23G27
    387898.76749    295259.76347  23051427.8594   23051427.5004
     -1008.9534
   -584448.15949   -454422.33748  22101280.5784   22101278.5394
      1059.4384
    781417.68549    597945.93448  20341813.7664   20341809.9304
     -1777.7034
   -591682.27449   -458819.86547  23434522.3754   23434519.7584
      1039.4694
   1874934.10249   1438964.78248  22303867.0634   22303863.1884
     -3945.1724
     33116.82549     21713.09948  21141021.8754   21141019.0394
      -185.4844
 04  9 14 21  7 45.0000000  0  6G 3G 8G13G19G23G27
    403123.37849    307123.09747  23054326.5314   23054324.7624
     -1021.4694
   -600296.31049   -466771.53548  22098265.0864   22098262.6174
      1053.2504
    808162.18849    618785.79748  20346902.3444   20346899.1294
     -1788.6414
   -607212.97449   -470921.67147  23431566.6414   23431563.5354
      1030.9694
   1934170.74749   1485123.16748  22315139.9534   22315135.5124
     -3953.4844
     35941.94549     23914.49448  21141559.7114   21141556.8984
      -191.5474
 04  9 14 21  8  0.0000000  0  6G 3G 8G13G19G23G27
    418529.27649    319127.67547  23057257.4224   23057255.9384
     -1032.9064
   -616058.12149   -479053.46448  22095264.8834   22095263.3484
      1048.1254
    835063.53649    639747.88948  20352022.1564   20352017.9184
     -1798.4534
   -622622.01249   -482928.70547  23428634.0784   23428630.9304
      1023.3594
   1993523.51549   1531372.04248  22326434.2194   22326429.4964
     -3960.4534
     38850.27849     26180.73848  21142113.1254   21142110.3364
      -196.4844
 04  9 14 21  8 15.0000000  0  6G 3G 8G13G19G23G27
    434105.77349    331265.20847  23060221.1024   23060220.7344
     -1044.5624
   -631744.42949   -491276.56248  22092280.5704   22092278.1174
      1042.8284
    862111.02849    660823.84048  20357169.0084   20357165.0704
     -1808.4694
   -637919.85049   -494849.07147  23425723.6094   23425720.2504
      1015.7034
   2052981.64149   1577703.02647  22337748.9144   22337744.2304
     -3967.7974
     41831.26449     28503.58548  21142680.4614   21142677.8444
      -201.6094
 04  9 14 21  8 30.0000000  0  6G 3G 8G13G19G23G27
    449857.13449    343538.98947  23063218.9534   23063218.0204
     -1056.0314
   -647351.16649   -503437.62448  22089310.3524   22089308.9384
      1037.6564
    889308.87949    682016.95948  20362344.4304   20362340.9144
     -1818.3754
   -653101.89249   -506679.21547  23422834.8754   23422831.9534
      1008.1094
   2112548.98249   1624119.12148  22349083.8204   22349078.9734
     -3974.8914
     44889.01649     30886.25248  21143262.1024   21143259.3674
      -206.5784
 04  9 14 21  8 45.0000000  0  6G 3G 8G13G19G23G27
    465782.17549    355948.13247  23066249.8204   23066248.6334
     -1067.2974
   -662879.16149   -515537.35348  22086355.8524   22086353.8674
      1032.7504
    916655.87249    703326.29348  20367548.8284   20367545.0274
     -1827.9374
   -668168.99149   -518419.78347  23419967.1484   23419964.5744
      1000.7974
   2172224.20949   1670619.26448  22360440.3984   22360435.8164
     -3981.7504
     48022.33649     33327.80448  21143858.9064   21143855.7774
      -211.2344
 04  9 14 21  9  0.0000000  0  6G 3G 8G13G19G23G27
    481877.77649    368490.13047  23069311.8054   23069310.9964
     -1078.7974
   -678331.79049   -527578.35648  22083415.7584   22083413.0984
      1027.5474
    944148.92349    724749.44548  20372780.0634   20372776.9144
     -1837.8124
   -683123.98349   -530073.01147  23417121.1254   23417118.0784
       993.2034
   2232004.00949   1717200.90148  22371815.6414   22371811.3054
     -3988.8914
     51227.99649     35825.71748  21144468.5394   21144465.8674
      -216.2034
 04  9 14 21  9 15.0000000  0  6G 3G 8G13G19G23G27
    498141.06049    381162.81347  23072406.5784   23072405.8714
     -1089.8754
   -693711.88349   -539562.84848  22080488.6254   22080486.2114
      1022.8594
    971785.09349    746284.12548  20378039.3594   20378035.9804
     -1847.2344
   -697969.61749   -541641.03747  23414295.8594   23414293.1174
       985.9694
   2291885.11449   1763861.46748  22383210.5554   22383206.1804
     -3995.5164
     54502.92249     38377.60748  21145091.8364   21145088.9344
      -220.7194
 04  9 14 21  9 30.0000000  0  6G 3G 8G13G19G23G27
    514571.45949    393965.70047  23075533.3364   23075532.9304
     -1101.1564
   -709020.08749   -551491.29748  22077575.1884   22077574.1564
      1017.9534
    999563.77849    767929.83548  20383325.1954   20383321.6254
     -1856.8594
   -712706.12149   -553123.99447  23411491.6644   23411489.2234
       978.6094
   2351866.75249   1810600.37347  22394624.1174   22394620.3954
     -4002.3914
     57846.50349     40983.00748  21145728.0234   21145725.1024
      -225.4224
 04  9 14 21  9 45.0000000  0  6G 3G 8G13G19G23G27
    531170.78949    406900.25047  23078691.7504   23078691.3914
     -1112.4224
   -724254.47549   -563362.24148  22074675.9064   22074674.2624
      1012.9534
   1027486.66749    789687.92548  20388639.0944   20388635.5274
     -1866.5314
   -727331.39949   -564520.29347  23408707.8204   23408705.2274
       971.1094
   2411950.68249   1857418.99247  22406058.4844   22406054.2154
     -4009.1874
     61260.51649     43643.27948  21146377.3984   21146374.7504
      -230.1414
 04  9 14 21 10  0.0000000  0  6G 3G 8G13G19G23G27
    547941.68649    419968.47247  23081883.8594   23081883.5044
     -1123.5004
   -739412.89549   -575173.99048  22071792.2114   22071790.1954
      1008.3284
   1055556.38449    811560.41848  20393980.5704   20393976.8484
     -1875.9844
   -741842.58649   -575827.67547  23405947.4694   23405943.7194
       963.8914
   2472139.12449   1904319.06247  22417512.4224   22417507.6174
     -4015.7664
     64747.47649     46360.38948  21147041.0864   21147038.2114
      -234.5944
 04  9 14 21 10 15.0000000  0  6G 3G 8G13G19G23G27
    564879.69449    433166.91947  23085106.8914   23085106.4454
     -1134.5944
   -754499.65149   -586929.89148  22068920.6804   22068918.8594
      1003.6564
   1083768.64049    833543.98348  20399349.1024   20399345.1374
     -1885.4064
   -756243.65349   -587049.26447  23403207.1724   23403204.1094
       956.6254
   2532427.56549   1951297.04447  22428984.0474   22428979.9734
     -4022.3914
     68302.91149     49130.86648  21147718.5474   21147714.8484
      -239.0944
 04  9 14 21 10 30.0000000  0  6G 3G 8G13G19G23G27
    581982.17049    446493.51447  23088361.4924   23088360.3754
     -1145.6094
   -769517.50449   -598632.10748  22066063.4144   22066061.4924
       998.9384
   1112120.59649    855636.41648  20404744.3594   20404740.0514
     -1894.7194
   -770537.21049   -598187.08647  23400486.9304   23400484.0084
       949.3134
   2592813.09749   1998350.66847  22440475.1094   22440470.7934
     -4028.9064
     71924.09749     51952.57548  21148407.2274   21148403.4654
      -243.5164
 04  9 14 21 10 45.0000000  0  6G 3G 8G13G19G23G27
    599245.11549    459945.16347  23091646.0784   23091645.5164
     -1156.5164
   -784470.28449   -610283.61448  22063217.8284   22063215.4694
       994.4224
   1140608.29249    877834.60048  20410165.5394   20410161.6804
     -1904.0474
   -784726.96749   -609244.00147  23397786.1024   23397783.6094
       942.2034
   2653291.57149   2045476.73147  22451983.7194   22451979.5984
     -4035.2974
     75606.90449     54822.29448  21149107.9774   21149104.9534
      -247.8754
 04  9 14 21 11  0.0000000  0  7G 3G 8G13G19G23G27G10
    616670.92149    473523.70647  23094961.9224   23094961.6804
     -1167.3914
   -799355.60849   -621882.55648  22060384.9534   22060382.7624
       989.8284
   1169234.08549    900140.41148  20415612.9064   20415609.2814
     -1913.2344
   -798810.22649   -620217.95047  23395106.7664   23395103.6804
       935.1254
   2713865.03349   2092676.80148  22463510.5554   22463506.0864
     -4041.6094
     79353.81149     57741.96748  21149820.7584   21149817.6134
      -252.1724
    -37921.13259    -29820.44656  24208821.8204   24208821.3484
      1153.3594
 04  9 14 21 11 15.0000000  0  7G 3G 8G13G19G23G27G10
    634257.75449    487227.73247  23098309.3054   23098308.8714
     -1177.8124
   -814175.36549   -633430.40748  22057565.1644   22057562.4344
       985.7664
   1197996.11949    922552.39048  20421085.7274   20421082.6374
     -1921.9374
   -812788.48849   -631110.05747  23392446.1414   23392443.4534
       928.3594
   2774531.56749   2139949.38348  22475055.7974   22475051.5664
     -4047.5314
     83162.74949     60709.98348  21150545.4064   21150542.7074
      -255.9224
    -55159.78449    -43253.17146  24205540.5704   24205540.9224
      1144.8594
 04  9 14 21 11 30.0000000  0  7G 3G 8G13G19G23G27G10
    652004.01049    501055.97147  23101686.1804   23101685.2234
     -1188.3284
   -828931.27049   -644928.50848  22054757.2814   22054755.0984
       981.6414
   1226892.76849    945069.24548  20426584.5084   20426581.4184
     -1930.8444
   -826663.07549   -641921.38347  23389806.7344   23389802.8244
       921.5944
   2835289.39349   2187293.11248  22486617.2734   22486613.1484
     -4053.4224
     87032.13949     63725.09048  21151281.7894   21151278.9534
      -259.8914
    -72269.36149    -56585.24546  24202284.8444   24202284.4924
      1136.3754
 04  9 14 21 11 45.0000000  0  7G 3G 8G13G19G23G27G10
    669910.13249    515008.78847  23105094.1094   23105092.5594
     -1199.4064
   -843622.77249   -656376.41748  22051961.0704   22051959.0354
       977.0004
   1255924.26549    967691.18448  20432109.3834   20432105.5704
     -1940.2034
   -840433.38849   -652651.48947  23387186.9844   23387182.5744
       914.2664
   2896138.57249   2234708.03548  22498197.1954   22498192.2234
     -4059.9374
     90962.35549     66787.59048  21152029.5234   21152027.0664
      -264.3594
    -89249.35449    -69816.38646  24199054.9304   24199053.1484
      1127.4384
 04  9 14 21 12  0.0000000  0  7G 3G 8G13G19G23G27G10
    687980.47949    529089.58047  23108532.6884   23108530.9024
     -1209.9064
   -858245.69249   -667770.89248  22049178.8834   22049176.9344
       972.8134
   1285095.33449    990421.87748  20437660.7034   20437656.4344
     -1949.1564
   -854094.64549   -663296.57947  23384586.1954   23384583.5164
       907.3134
   2957083.32349   2282197.41848  22509794.1564   22509790.1804
     -4065.9844
     94957.60149     69900.77548  21152790.1884   21152787.2194
      -268.3124
   -106095.07249    -82942.96246  24195848.3674   24195847.5204
      1118.8594
 04  9 14 21 12 15.0000000  0  7G 3G 8G13G19G23G27G10
    706210.18749    543294.54547  23112000.9694   23112000.1914
     -1220.8444
   -872804.95249   -679115.75248  22046407.9304   22046405.6414
       968.3284
   1314400.97849   1013257.42248  20443237.1484   20443233.2234
     -1958.3754
   -867651.50149   -673860.33347  23382006.6644   23382002.8204
       900.1724
   3018118.58349   2329757.32448  22521408.8524   22521404.3204
     -4072.1724
     99013.09749     73060.91048  21153561.8524   21153559.3054
      -272.5164
   -122811.15849    -95968.42746  24192667.7194   24192666.5234
      1109.8594
 04  9 14 21 12 30.0000000  0  7G 3G 8G13G19G23G27G10
    724599.69049    557624.01047  23115500.8674   23115499.6134
     -1231.4534
   -887300.19149   -690410.73748  22043649.8284   22043647.6094
       964.0634
   1343841.42349   1036198.02948  20448839.5784   20448835.5784
     -1967.2344
   -881103.17249   -684342.13547  23379446.9304   23379443.0784
       893.1094
   3079244.54949   2377387.89648  22533041.0944   22533036.4184
     -4078.1874
    103129.06449     76268.14648  21154344.1484   21154342.2814
      -276.5474
   -139396.92749   -108892.37346  24189511.1414   24189510.1994
      1101.2504
 04  9 14 21 12 45.0000000  0  7G 3G 8G13G19G23G27G10
    743147.01149    572076.47647  23119030.2814   23119028.9414
     -1241.8124
   -901733.27249   -701657.28648  22040903.2894   22040900.8954
       960.0474
   1373414.87449   1059242.26248  20454467.1174   20454463.0164
     -1976.1254
   -894451.26349   -694743.21747  23376906.9924   23376903.0704
       886.2664
   3140459.01549   2425087.47748  22544689.7584   22544684.6374
     -4084.0784
    107303.65549     79521.07348  21155139.0474   21155136.3674
      -280.3754
   -155854.12249   -121716.19146  24186379.2194   24186378.3014
      1092.7814
 04  9 14 21 13  0.0000000  0  7G 3G 8G13G19G23G27G10
    761848.65849    586649.17247  23122589.0234   23122587.6484
     -1252.1414
   -916107.81549   -712858.22648  22038168.0084   22038165.3834
       956.1254
   1403117.71949   1082387.32648  20460119.3134   20460115.4654
     -1984.7034
   -907699.11549   -705066.20747  23374386.3134   23374382.0514
       879.6564
   3201758.32049   2472853.11647  22556354.3284   22556350.6524
     -4089.6094
    111533.18649     82816.80748  21155943.9224   21155940.9774
      -284.0164
   -172185.93049   -134442.28646  24183272.6884   24183270.8094
      1084.4064
 04  9 14 21 13 15.0000000  0  7G 3G 8G13G19G23G27G10
    780709.21749    601345.70447  23126177.3054   23126176.5824
     -1263.2344
   -930419.28849   -724010.01248  22035443.8914   22035442.2734
       951.5004
   1432954.50749   1105636.76948  20465796.9384   20465793.2544
     -1994.1094
   -920841.78149   -715307.22247  23371884.7734   23371881.4654
       872.0944
   3263146.80149   2520688.24647  22568035.8984   22568031.6954
     -4096.0624
    115822.21549     86158.91848  21156760.2974   21156757.5004
      -288.5314
   -188387.78249   -147067.05846  24180188.4144   24180187.1024
      1075.2664
 04  9 14 21 13 30.0000000  0  7G 3G 8G13G19G23G27G10
    799730.39649    616167.40047  23129798.0944   23129796.7114
     -1273.6094
   -944665.91849   -735111.27448  22032733.0004   22032730.8874
       947.4844
   1462926.93349   1128991.89648  20471500.7034   20471497.0234
     -2002.8444
   -933877.41049   -725464.82947  23369404.3364   23369400.9574
       865.3134
   3324625.81949   2568593.97147  22579735.4774   22579729.5984
     -4101.7664
    120172.23149     89548.54248  21157587.9064   21157584.9614
      -292.2344
   -204457.77049   -159589.16346  24177130.2894   24177130.0274
      1066.7664
 04  9 14 21 13 45.0000000  0  7G 3G 8G13G19G23G27G10
    818905.43849    631108.99147  23133446.7424   23133446.4614
     -1283.4694
   -958854.39049   -746167.21648  22030033.1254   22030031.2774
       943.9384
   1493028.21549   1152447.43448  20477228.5944   20477224.8284
     -2011.1094
   -946812.45849   -735544.06447  23366943.0704   23366939.5084
       858.9384
   3386188.65949   2616565.00447  22591450.1954   22591445.5664
     -4106.9694
    124576.60349     92980.52848  21158426.3984   21158423.5084
      -295.5004
   -220402.36349   -172013.46146  24174095.7664   24174095.7154
      1058.6564
 04  9 14 21 14  0.0000000  0  7G 3G 8G13G19G23G27G10
    838236.43549    646172.09147  23137126.3054   23137124.3594
     -1293.7504
   -972982.64249   -757176.24248  22027345.0164   22027342.7384
       940.1564
   1523260.39249   1176004.96248  20482981.7194   20482978.0664
     -2019.6564
   -959644.43149   -745542.99147  23364501.1954   23364497.3754
       852.2344
   3447837.19149   2664602.78047  22603181.6174   22603177.3794
     -4112.4844
    129037.46149     96456.51248  21159275.1254   21159272.1024
      -299.0164
   -236219.23749   -184338.34747  24171087.2664   24171085.9024
      1050.3914
 04  9 14 21 14 15.0000000  0  7G 3G 8G13G19G23G27G10
    857730.60049    661362.35247  23140834.8594   23140834.2814
     -1304.9844
   -987043.45049   -768132.69648  22024669.8204   22024667.0864
       935.2664
   1553630.82349   1199670.21348  20488760.7584   20488757.0744
     -2029.2034
   -972365.83149   -755455.73047  23362079.7894   23362076.0904
       844.5314
   3509578.22549   2712712.63247  22614930.2974   22614925.9654
     -4119.0164
    133561.80449     99981.98748  21160136.4384   21160133.5744
      -303.6094
   -251900.84149   -196557.76647  24168102.9144   24168101.8204
      1041.0474
 04  9 14 21 14 30.0000000  0  7G 3G 8G13G19G23G27G10
    877378.99649    676672.78147  23144574.0004   23144572.8204
     -1314.9694
  -1001045.93149   -779043.70748  22022004.9064   22022003.3834
       931.5634
   1584130.46349   1223436.16348  20494564.6954   20494561.3364
     -2037.6094
   -984985.31349   -765289.07847  23359679.4774   23359674.6024
       837.9694
   3571402.71349   2760887.52347  22626695.4534   22626690.2544
     -4124.4064
    138140.79649    103550.02448  21161007.3914   21161004.3204
      -306.9844
   -267456.04549   -208678.69247  24165142.5864   24165141.0944
      1032.7814
 04  9 14 21 14 45.0000000  0  7G 3G 8G13G19G23G27G10
    897183.76349    692105.06147  23148342.5554   23148341.8794
     -1325.4534
  -1014987.76649   -789907.45148  22019351.8134   22019349.7114
       927.5314
   1614761.52949   1247304.51048  20500393.6564   20500389.8094
     -2046.3444
   -997500.51349   -775041.15047  23357296.5004   23357293.5274
       830.9534
   3633312.72349   2809129.07348  22638476.7114   22638471.9734
     -4130.0624
    142776.48049    107162.24748  21161889.1724   21161886.5084
      -310.7974
   -282882.43149   -220699.23347  24162207.6414   24162206.0204
      1024.2194
 04  9 14 21 15  0.0000000  0  7G 3G 8G13G19G23G27G10
    917143.37149    707657.99147  23152141.0234   23152139.9844
     -1335.7344
  -1028870.69249   -800725.31548  22016709.8054   22016707.8914
       923.6414
   1645522.45949   1271274.06248  20506247.3444   20506243.2624
     -2055.0164
  -1009912.63949   -784712.90547  23354935.1174   23354931.9104
       824.1254
   3695306.54249   2857435.92548  22650273.6484   22650269.2274
     -4135.6254
    147467.28949    110817.42948  21162782.1174   21162779.1294
      -314.5314
   -298181.32849   -232620.45847  24159295.9384   24159294.6884
      1015.6724
 04  9 14 21 15 15.0000000  0  7G 3G 8G13G19G23G27G10
    937263.83249    723336.28347  23155969.7814   23155968.3404
     -1346.7974
  -1042688.76049   -811492.63048  22014080.3364   22014078.3444
       918.9384
   1676419.06449   1295349.32848  20512126.9224   20512123.3714
     -2064.4224
  -1022215.41049   -794299.46247  23352593.7424   23352589.8754
       816.3594
   3757389.73749   2905812.41548  22662086.9534   22662083.4734
     -4141.9534
    152219.14349    114520.17248  21163686.4304   21163683.6334
      -318.9374
   -313346.53749   -244437.49147  24156410.7114   24156408.8914
      1006.4844
 04  9 14 21 15 30.0000000  0  7G 3G 8G13G19G23G27G10
    957539.59749    739135.57347  23159828.0084   23159827.2664
     -1356.7664
  -1056447.41849   -822213.65448  22011462.0634   22011459.5204
       915.4534
   1707445.92249   1319526.09748  20518030.9924   20518027.6054
     -2072.6414
  -1034414.08449   -803804.88347  23350272.3754   23350269.2664
       809.8754
   3819556.66249   2954254.10947  22673916.9694   22673912.8834
     -4147.0624
    157026.48949    118266.15648  21164601.0784   21164598.7344
      -322.1564
   -328383.33649   -256154.46047  24153549.1414   24153547.0784
       998.2504
 04  9 14 21 15 45.0000000  0  7G 3G 8G13G19G23G27G10
    977967.11749    755053.12747  23163715.1094   23163714.3834
     -1366.7974
  -1070150.31249   -832891.22048  22008854.4144   22008851.7704
       911.7664
   1738599.50849   1343801.60848  20523959.5554   20523955.8324
     -2081.0474
  -1046511.79349   -813231.62547  23347970.2194   23347966.8404
       803.2034
   3881803.60749   3002758.16947  22685761.8054   22685758.5314
     -4152.2974
    161885.65249    122052.51548  21165525.8984   21165522.5904
      -325.5784
   -343295.10149   -267774.02747  24150710.8834   24150709.5314
       989.9844
 04  9 14 21 16  0.0000000  0  8G 3G 8G13G19G23G27G10G28
    998550.59049    771092.20647  23167631.8054   23167631.4024
     -1377.5164
  -1083792.83649   -843521.73948  22006258.7894   22006256.1884
       907.4534
   1769883.88949   1368179.03048  20529912.4454   20529909.4774
     -2090.0944
  -1058504.10349   -822576.25747  23345688.8054   23345685.1294
       795.8134
   3944134.52049   3051327.66047  22697623.8054   22697620.0164
     -4158.2504
    166800.96149    125882.62848  21166461.1644   21166458.2734
      -329.6564
   -358077.48249   -279292.76547  24147897.6804   24147896.1374
       981.1414
    -69263.12359    -53029.35156  24394899.6094   24394898.0514
      2230.9224
 04  9 14 21 16 15.0000000  0  8G 3G 8G13G19G23G27G10G28
   1019289.14749    787252.10247  23171578.5234   23171577.9144
     -1387.7664
  -1097376.35349   -854106.29348  22003673.0784   22003671.4654
       903.5634
   1801298.15049   1392657.65848  20535890.2344   20535886.7344
     -2098.5944
  -1070391.79749   -831839.37647  23343425.4774   23343422.2384
       789.0164
   4006548.36749   3099961.79247  22709501.0474   22709496.4414
     -4163.7034
    171771.39949    129755.68548  21167406.9614   21167404.6804
      -333.2034
   -372731.07049   -290711.12347  24145109.7114   24145107.9494
       972.5004
   -102704.24649    -79087.30947  24388535.3284   24388533.6254
      2227.8284
 04  9 14 21 16 30.0000000  0  8G 3G 8G13G19G23G27G10G28
   1040179.05949    803529.94847  23175553.2734   23175553.1764
     -1397.5314
  -1110904.36049   -864647.59648  22001099.4224   22001097.6564
       900.2814
   1832838.64349   1417234.66848  20541892.6724   20541888.5824
     -2106.6874
  -1082178.06249   -841023.47047  23341182.8754   23341179.7384
       782.5314
   4069041.26349   3148657.54147  22721393.1484   22721388.9964
     -4168.6094
    176793.24849    133668.80748  21168363.1174   21168359.9304
      -336.2664
   -387259.26949   -302031.81147  24142344.8054   24142343.4494
       964.5944
   -136101.01149   -105110.68147  24382180.0944   24382178.3954
      2225.1564
 04  9 14 21 16 45.0000000  0  8G 3G 8G13G19G23G27G10G28
   1061222.29049    819927.27147  23179558.2504   23179557.0474
     -1408.2504
  -1124375.04349   -875144.22248  21998535.5634   21998533.9804
       895.9384
   1864507.35749   1441911.57348  20547919.0554   20547915.1054
     -2115.7504
  -1093860.70749   -850126.79747  23338959.7894   23338956.3244
       775.1884
   4131614.94349   3197416.21647  22733300.2114   22733295.6644
     -4174.5624
    181868.51449    137623.56248  21169328.4304   21169325.8554
      -340.3444
   -401659.90949   -313253.08347  24139604.1484   24139603.1454
       955.5004
   -169451.29249   -131097.92847  24375834.5704   24375832.7304
      2221.5634
 04  9 14 21 17  0.0010000  0  8G 3G 8G13G19G23G27G10G28
   1082424.32049    836448.33647  23183593.0134   23183592.1304
     -1418.2194
  -1137784.85949   -885593.41848  21995983.9744   21995982.2674
       892.3134
   1896310.63649   1466693.33148  20553970.8254   20553966.9354
     -2124.0944
  -1105435.90449   -859146.41947  23336757.6534   23336753.7984
       768.4224
   4194277.55549   3246244.19347  22745224.5674   22745220.3844
     -4179.6724
    187001.63949    141623.39548  21170305.2084   21170302.8024
      -343.6874
   -415929.54749   -324372.29447  24136889.2314   24136887.5834
       947.2504
   -202752.84649   -157047.11447  24369496.6924   24369496.0604
      2218.6564
 04  9 14 21 17 15.0010000  0  8G 3G 8G13G19G23G27G10G28
   1103778.72249    853088.12047  23187656.3414   23187655.8374
     -1428.6254
  -1151135.98349   -895996.88548  21993443.6534   21993441.2004
       888.2664
   1928240.36549   1491573.64848  20560046.6464   20560042.7044
     -2132.7664
  -1116905.72249   -868083.92647  23334574.5444   23334570.7674
       761.2194
   4257016.79449   3295131.87847  22757163.4274   22757159.2714
     -4185.2344
    192188.08649    145664.77448  21171292.1304   21171289.7244
      -347.4534
   -430069.89449   -335390.73447  24134197.9584   24134196.8604
       938.5784
   -236004.86449   -182957.70447  24363169.4894   24363168.0794
      2215.3444
 04  9 14 21 17 30.0010000  0  8G 3G 8G13G19G23G27G10G28
   1125284.27849    869845.71347  23191748.9974   23191748.1424
     -1438.5314
  -1164431.81049   -906357.26348  21990913.9814   21990911.0954
       884.8284
   1960296.21049   1516552.21248  20566146.9894   20566143.7124
     -2140.9534
  -1128273.18749   -876941.67147  23332412.1224   23332407.7744
       754.6884
   4319834.14649   3344080.42747  22769116.9354   22769113.0054
     -4190.2034
    197425.68649    149746.02848  21172288.9504   21172286.3134
      -350.5624
   -444084.12449   -346310.91047  24131532.6534   24131530.4744
       930.2814
   -269211.98549   -208833.34847  24356850.2084   24356849.0244
      2212.5634
 04  9 14 21 17 45.0010000  0  8G 3G 8G13G19G23G27G10G28
   1146943.73849    886723.18847  23195870.4664   23195869.6104
     -1449.6254
  -1177669.43349   -916672.28148  21988394.3024   21988392.4664
       879.9844
   1992480.70049   1541631.01548  20572271.5994   20572268.4274
     -2150.4844
  -1139535.13049   -885717.17947  23330268.3804   23330265.0794
       746.7034
   4382732.12949   3393091.80947  22781086.8884   22781082.3294
     -4196.4534
    202717.33049    153869.38048  21173295.9424   21173292.8564
      -355.2034
   -457969.22549   -357130.44947  24128890.4194   24128887.8024
       920.6414
   -302371.18149   -234671.58447  24350540.2244   24350539.0604
      2208.4064
 04  9 14 21 18  0.0010000  0  8G 3G 8G13G19G23G27G10G28
   1168754.56649    903718.65347  23200020.1614   23200020.1224
     -1459.0624
  -1190851.53649   -926944.03948  21985886.0524   21985883.6264
       877.0004
   2024791.53149   1566808.27748  20578419.9504   20578416.8844
     -2158.2504
  -1150693.87649   -894412.29347  23328144.3024   23328141.4894
       740.4534
   4445707.91749   3442163.83147  22793070.7164   22793066.0914
     -4200.8914
    208060.13349    158032.60948  21174312.2004   21174309.6224
      -357.8444
   -471727.71649   -367851.35647  24126270.4584   24126269.1774
       913.0944
   -335484.88449   -260474.40046  24344238.0994   24344236.6924
      2206.0784
 04  9 14 21 18 15.0010000  0  8G 3G 8G13G19G23G27G10G28
   1190716.26049    920831.64347  23204199.8254   23204198.8964
     -1469.1724
  -1203978.53949   -937172.86948  21983387.6064   21983385.5094
       873.2344
   2057228.14849   1592083.55048  20584592.4974   20584589.2864
     -2166.6414
  -1161749.54049   -903027.07247  23326042.2004   23326037.4854
       733.5634
   4508761.01449   3491296.08947  22805069.0914   22805064.2314
     -4206.0474
    213453.87349    162235.52548  21175338.6854   21175335.9744
      -361.3284
   -485359.68949   -378473.68647  24123677.1224   24123676.0634
       904.5944
   -368553.18749   -286241.92347  24337947.4114   24337944.3924
      2203.0164
 04  9 14 21 18 30.0010000  0  8G 3G 8G13G19G23G27G10G28
   1212834.48349    938066.61247  23208409.1924   23208407.9704
     -1480.0624
  -1217044.80649   -947354.35648  21980901.4354   21980899.2674
       868.7194
   2089795.99649   1617461.08648  20590790.0604   20590786.1884
     -2175.8444
  -1172696.38249   -911557.07547  23323958.2164   23323954.4544
       725.8754
   4571896.79749   3540492.77247  22817083.2084   22817079.1734
     -4212.0944
    218903.87449    166482.27548  21176376.0214   21176373.2044
      -365.5164
   -498859.48749   -388992.95347  24121107.2244   24121106.6614
       895.3444
   -401570.52749   -311969.65347  24331663.0284   24331661.5444
      2199.1884
 04  9 14 21 18 45.0010000  0  8G 3G 8G13G19G23G27G10G28
   1235105.95449    955420.99847  23212647.3804   23212646.4314
     -1489.8444
  -1230053.59149   -957491.06748  21978426.2864   21978424.0324
       865.3594
   2122491.94349   1642938.42748  20597011.7864   20597008.2714
     -2184.0474
  -1183537.27849   -920004.49247  23321894.5674   23321891.9854
       719.1094
   4635111.70749   3589751.12747  22829113.2004   22829108.0914
     -4216.9844
    224407.04249    170770.45448  21177423.1304   21177420.2824
      -368.6254
   -512230.07449   -399411.61147  24118563.7164   24118561.8604
       887.1094
   -434539.95449   -337660.08447  24325388.1534   24325387.8534
      2196.3444
 04  9 14 21 19  0.0010000  0  8G 3G 8G13G19G23G27G10G28
   1257526.41049    972891.47447  23216913.5364   23216912.4354
     -1500.2034
  -1243009.22449   -967586.36748  21975960.6464   21975958.8334
       861.3754
   2155311.84449   1668512.38048  20603257.3334   20603253.5794
     -2192.7034
  -1194276.01249   -928372.32547  23319851.5754   23319848.1104
       711.9224
   4698401.42649   3639067.73747  22841156.7164   22841152.3844
     -4222.3594
    229959.06049    175096.69548  21178479.3334   21178477.1144
      -372.3284
   -525475.24749   -409732.51346  24116042.9744   24116041.6034
       878.2504
   -467465.31249   -363316.13947  24319123.7314   24319122.0954
      2192.9384
 04  9 14 21 19 15.0010000  0  8G 3G 8G13G19G23G27G10G28
   1280102.71449    990483.40847  23221209.7944   23221209.0134
     -1510.1254
  -1255904.74849   -977634.81048  21973506.5524   21973504.1614
       857.8754
   2188262.37649   1694188.09948  20609527.6144   20609523.6814
     -2200.9064
  -1204905.55349   -936655.05447  23317829.3104   23317824.8454
       705.0944
   4761772.52349   3688447.74847  22853215.3254   22853211.8604
     -4227.2664
    235566.75549    179466.32048  21179546.8414   21179544.1184
      -375.5314
   -538588.28049   -419950.46347  24113547.9114   24113546.5214
       869.9384
   -500339.80249   -388932.58947  24312867.7394   24312866.0954
      2190.0634
 04  9 14 21 19 30.0010000  0  8G 3G 8G13G19G23G27G10G28
   1302832.25749   1008194.73247  23225534.8644   23225534.0014
     -1520.5164
  -1268743.01649   -987638.65848  21971063.3964   21971061.7084
       853.8134
   2221340.93249   1719963.58448  20615822.3104   20615818.5634
     -2209.6874
  -1215428.30349   -944854.58547  23315826.2864   23315823.0954
       697.7814
   4825222.22849   3737889.02547  22865290.0604   22865285.6034
     -4232.6874
    241227.51149    183877.30448  21180623.8414   21180621.6494
      -379.2814
   -551571.31049   -430067.07547  24111077.0364   24111075.6814
       861.1094
   -533165.78649   -414511.19747  24306619.5834   24306619.5444
      2186.7814
 04  9 14 21 19 45.0010000  0  8G 3G 8G13G19G23G27G10G28
   1325716.72649   1026026.79647  23229889.7394   23229888.8724
     -1530.7664
  -1281522.19449   -997596.44448  21968631.7944   21968629.9114
       850.0634
   2254549.14949   1745840.11048  20622141.4814   20622137.7204
     -2218.1724
  -1225842.09949   -952969.21647  23313844.2784   23313841.6304
       690.6884
   4888752.02649   3787392.72747  22877378.7784   22877374.4154
     -4237.9064
    246943.10449    188331.01048  21181711.7004   21181709.1144
      -382.8124
   -564422.50249   -440081.01447  24108631.5834   24108630.6144
       852.4064
   -565941.38049   -440050.61447  24300384.8964   24300382.4274
      2183.4384
 04  9 14 21 20  0.0010000  0  8G 3G 8G13G19G23G27G10G28
   1348752.52849   1043976.77847  23234273.2164   23234272.3134
     -1540.6414
  -1294245.60749  -1007510.79748  21966210.4744   21966209.0714
       846.4844
   2287883.65049   1771815.03348  20628484.9744   20628481.3884
     -2226.4374
  -1236150.18949   -961001.46847  23311883.2944   23311880.5874
       683.7344
   4952358.28349   3836956.01947  22889482.6774   22889478.0564
     -4242.8754
    252709.90349    192824.61548  21182809.2164   21182806.5244
      -386.0944
   -577145.09049   -449994.75547  24106210.6304   24106209.2434
       844.0784
   -598669.78249   -465553.23347  24294156.2634   24294153.8494
      2180.4384
 04  9 14 21 20 15.0010000  0  8G 3G 8G13G19G23G27G10G28
   1371938.67749   1062043.88547  23238685.0054   23238684.1064
     -1551.0314
  -1306914.19149  -1017382.40648  21963799.8644   21963797.8174
       842.4224
   2321343.25749   1797887.43748  20634852.3804   20634848.8414
     -2235.1254
  -1246353.41849   -968952.01247  23309941.3104   23309937.7514
       676.4844
   5016039.68849   3886577.86147  22901601.2944   22901596.9034
     -4248.1874
    258526.79249    197357.25448  21183915.5674   21183913.4194
      -389.7344
   -589740.06749   -459808.93647  24103813.8414   24103812.5484
       835.0944
   -631351.91549   -491019.79247  24287936.6534   24287934.4194
      2176.9844
 04  9 14 21 20 30.0010000  0  8G 3G 8G13G19G23G27G10G28
   1395277.99249   1080230.36647  23243126.7084   23243126.5794
     -1561.2344
  -1319525.38449  -1027209.30148  21961400.2784   21961397.3414
       838.6414
   2354930.87549   1824059.60348  20641243.5834   20641240.4234
     -2243.6564
  -1256448.52649   -976818.31947  23308020.8494   23308017.1064
       669.1724
   5079798.93149   3936260.35447  22913734.2784   22913729.4744
     -4253.4224
    264396.67849    201931.19948  21185033.0284   21185030.5794
      -393.2034
   -602204.27149   -469521.33347  24101442.4274   24101440.9074
       826.3754
   -663984.86649   -516448.00847  24281726.6144   24281725.1264
      2173.6724
 04  9 14 21 20 45.0010000  0  8G 3G 8G13G19G23G27G10G28
   1418767.35349   1098533.76047  23247596.5994   23247595.7084
     -1571.1564
  -1332082.22449  -1036993.84748  21959010.9034   21959008.3804
       835.2034
   2388643.38749   1850329.08548  20647658.8414   20647655.3104
     -2251.7814
  -1266438.34849   -984602.56747  23306119.5134   23306116.5634
       662.3594
   5143632.85449   3986001.03147  22925881.3724   22925876.9154
     -4258.2034
    270316.58049    206544.09448  21186159.4504   21186157.0174
      -396.4844
   -614540.61449   -479134.05646  24099094.9274   24099093.7044
       817.9384
   -696571.48449   -541840.09947  24275525.6854   24275525.8644
      2170.7504
 04  9 14 21 21  0.0010000  0  8G 3G 8G13G19G23G27G10G28
   1442412.83449   1116958.82247  23252096.2244   23252095.5054
     -1581.6414
  -1344578.39349  -1046731.11748  21956632.6694   21956629.8764
       831.0164
   2422486.87249   1876700.61848  20654098.7164   20654095.1814
     -2260.7344
  -1276316.49849   -992299.81647  23304239.6464   23304236.0364
       654.7504
   5207547.26849   4035804.44847  22938043.8494   22938039.8134
     -4263.5944
    276292.45949    211200.61848  21187296.8024   21187294.0954
      -400.3124
   -626742.69749   -488642.16947  24096772.7784   24096771.9384
       808.9694
   -729105.33249   -567191.10547  24269335.5054   24269334.0794
      2167.1414
 04  9 14 21 21 15.0010000  0  8G 3G 8G13G19G23G27G10G28
   1466210.97649   1135502.82747  23256623.8804   23256623.7394
     -1591.6414
  -1357017.43549  -1056423.86748  21954265.2084   21954263.3414
       827.4064
   2456457.85049   1903171.50248  20660563.0604   20660559.7124
     -2268.9374
  -1286086.12649   -999912.50347  23302380.4974   23302377.1654
       647.7504
   5271538.48149   4085667.72847  22950221.2394   22950216.0604
     -4268.5314
    282320.84649    215898.07348  21188443.8104   21188441.1264
      -403.5944
   -638813.67049   -498048.09047  24094475.7784   24094474.3644
       800.3914
   -761589.77549   -592503.60747  24263153.7084   24263152.6964
      2164.0314
 04  9 14 21 21 30.0010000  0  8G 3G 8G13G19G23G27G10G28
   1490156.37349   1154161.56047  23261181.0834   23261180.0834
     -1601.6724
  -1369404.77349  -1066076.32848  21951908.1384   21951905.5714
       823.7034
   2490551.11849   1929737.67848  20667051.2554   20667047.3064
     -2277.3754
  -1295752.29349  -1007444.56047  23300541.0524   23300538.2784
       640.6564
   5335601.00149   4135586.52147  22962411.9274   22962407.5954
     -4273.5944
    288396.49249    220632.32748  21189600.0604   21189597.3174
      -406.9844
   -650758.74449   -507355.95247  24092202.9894   24092200.6424
       791.7814
   -794029.97649   -617781.65547  24256979.3254   24256978.7434
      2160.7344
 04  9 14 21 21 45.0010000  0  8G 3G 8G13G19G23G27G10G28
   1514254.10249   1172939.00747  23265767.6144   23265766.1884
     -1611.7974
  -1381735.29249  -1075684.52748  21949562.0994   21949558.8684
       819.9694
   2524771.56049   1956402.94448  20673563.2394   20673559.2824
     -2285.7974
  -1305309.51749  -1014891.75547  23298722.4584   23298718.2084
       633.2814
   5399739.72349   4185564.69047  22974617.1144   22974612.5444
     -4278.6414
    294524.35249    225407.28148  21190766.2084   21190763.3964
      -410.4374
   -662572.65049   -516561.60847  24089954.4114   24089953.1814
       783.1254
   -826420.70249   -643021.15247  24250816.4504   24250814.2314
      2157.4694
 04  9 14 21 22  0.0010000  0  8G 3G 8G13G19G23G27G10G28
   1538503.69549   1191834.77947  23270382.2314   23270380.6064
     -1622.0944
  -1394009.48749  -1085248.82248  21947225.7944   21947223.6034
       816.0004
   2559118.54649   1983166.81848  20680099.4424   20680095.4114
     -2294.3594
  -1314758.23949  -1022254.40447  23296924.5674   23296920.9274
       625.9534
   5463953.91049   4235601.67647  22986836.9744   22986832.1344
     -4283.7664
    300703.86149    230222.48648  21191941.9744   21191939.4934
      -414.0784
   -674255.67349   -525665.24447  24087731.3254   24087729.1034
       774.0634
   -858762.31649   -668222.36747  24244662.4034   24244659.6574
      2154.0784
 04  9 14 21 22 15.0010000  0  8G 3G 8G13G19G23G27G10G28
   1562907.93249   1210851.04747  23275025.3104   23275024.7744
     -1631.9064
  -1406224.45249  -1094766.97048  21944901.5674   21944899.5484
       812.5474
   2593595.06349   2010031.62948  20686659.9114   20686656.3254
     -2302.5784
  -1324095.18949  -1029529.91847  23295147.4114   23295145.2554
       618.9384
   5528246.13949   4285699.49347  22999072.2554   22999066.3414
     -4288.5164
    306937.89549    235080.17248  21193128.1534   21193125.4234
      -417.2344
   -685804.80349   -534664.57447  24085533.7474   24085531.5094
       765.6724
   -891051.82849   -693382.97147  24238516.9424   24238516.2514
      2151.1094
 04  9 14 21 22 30.0010000  0  8G 3G 8G13G19G23G27G10G28
   1587459.37249   1229982.05147  23279696.9354   23279696.7164
     -1642.2194
  -1418387.48049  -1104244.65148  21942587.2474   21942584.7944
       808.6564
   2628193.75049   2036991.62648  20693243.8644   20693240.1694
     -2311.1094
  -1333327.43749  -1036723.87847  23293391.4194   23293387.1104
       611.4694
   5592608.93949   4335852.29647  23011318.6614   23011314.6814
     -4293.7034
    313219.16749    239974.66948  21194323.7314   21194321.0054
      -420.7504
   -697227.15049   -543565.07847  24083359.5754   24083358.1384
       756.9224
   -923296.23349   -718508.41847  24232381.6924   24232380.1224
      2147.6564
 04  9 14 21 22 45.0010000  0  8G 3G 8G13G19G23G27G10G28
   1612164.11449   1249232.50947  23284398.1534   23284397.5674
     -1651.9534
  -1430492.50249  -1113677.11248  21940283.7084   21940281.6304
       805.0944
   2662920.56749   2064051.46948  20699852.0284   20699848.5284
     -2319.2974
  -1342448.54449  -1043831.21947  23291655.2864   23291651.5214
       604.4844
   5657048.20449   4386064.66647  23023581.3564   23023577.0994
     -4298.3914
    319553.74249    244910.71548  21195529.0834   21195526.1654
      -424.0474
   -708516.44749   -552361.93247  24081211.9034   24081209.9194
       748.1884
   -955489.22849   -743593.86847  24226255.7944   24226254.1494
      2144.5004
 04  9 14 21 23  0.0010000  0  8G 3G 8G13G19G23G27G10G28
   1637025.91449   1268605.31747  23289128.8724   23289129.2904
     -1662.4844
  -1442535.73049  -1123061.45448  21937991.6854   21937989.9974
       801.0784
   2697779.42349   2091214.20648  20706485.3494   20706481.8684
     -2328.1414
  -1351454.45949  -1050848.80547  23289940.6924   23289938.2594
       596.7194
   5721567.51849   4436339.41747  23035858.6924   23035854.5524
     -4303.7504
    325945.38349    249891.20448  21196745.1614   21196742.4354
      -427.8444
   -719668.68249   -561051.97547  24079089.6774   24079087.5404
       739.0944
   -987627.05149   -768636.21647  24220138.3884   24220138.6854
      2140.8284
 04  9 14 21 23 15.0010000  0  8G 3G 8G13G19G23G27G10G28
   1662036.72749   1288094.27147  23293889.4194   23293889.1224
     -1672.4374
  -1454525.17349  -1132403.85648  21935710.1464   21935707.8644
       797.5004
   2732762.14449   2118473.46248  20713142.6534   20713138.7714
     -2336.3594
  -1360352.90349  -1057782.63047  23288248.2944   23288244.5364
       589.5314
   5786158.63249   4486670.12447  23048150.0284   23048145.7354
     -4308.4844
    332385.97649    254909.85248  21197970.8414   21197968.2594
      -431.0624
   -730691.67349   -569641.29947  24076992.2244   24076990.7984
       730.4534
  -1019717.38349   -793641.66047  24214034.1304   24214032.2164
      2137.7974
 04  9 14 21 23 30.0010000  0  8G 3G 8G13G19G23G27G10G28
   1687198.15449   1307700.58147  23298677.4744   23298676.9464
     -1682.4694
  -1466459.29049  -1141703.16348  21933438.8884   21933437.2354
       793.6884
   2767870.36249   2145830.49148  20719823.4974   20719819.9744
     -2344.8444
  -1369142.00649  -1064631.28047  23286575.3804   23286572.0134
       582.1884
   5850823.03149   4537057.91247  23060455.0444   23060450.9384
     -4313.5004
    338877.21549    259967.95548  21199206.5444   21199203.6494
      -434.5314
   -741583.61449   -578128.54047  24074919.2634   24074917.8214
       721.6724
  -1051758.40149   -818608.67547  24207936.9114   24207934.5364
      2134.3444
 04  9 14 21 23 45.0010000  0  8G 3G 8G13G19G23G27G10G28
   1712510.19549   1327424.23547  23303494.3564   23303493.5834
     -1692.5944
  -1478337.98849  -1150959.28248  21931178.7714   21931176.5174
       789.9844
   2803104.01449   2173285.29648  20726528.3414   20726524.8644
     -2353.1254
  -1377821.51649  -1071394.53447  23284924.3564   23284920.4664
       574.8134
   5915560.53549   4587502.67447  23072774.2554   23072770.8804
     -4318.3594
    345419.02349    265065.47148  21200451.1304   21200448.4544
      -437.7974
   -752344.22049   -586513.42847  24072870.7314   24072869.3174
       712.9534
  -1083750.07349   -843537.16347  24201847.7864   24201845.7084
      2131.0784
 04  9 14 21 24  0.0010000  0  8G 3G 8G13G19G23G27G10G28
   1737971.97649   1347264.58347  23308338.9114   23308338.2474
     -1702.2034
  -1490162.03049  -1160172.82548  21928928.8024   21928926.8534
       786.6724
   2838462.24949   2200837.14948  20733256.3964   20733253.2904
     -2361.1254
  -1386391.90649  -1078072.74447  23283293.0994   23283289.0674
       567.9534
   5980370.13649   4638003.59447  23085108.1694   23085104.0634
     -4322.7974
    352010.63249    270201.78448  21201705.4034   21201702.8804
      -440.8124
   -762974.16649   -594796.47947  24070848.4504   24070847.4034
       704.5944
  -1115692.86449   -868427.64347  24195769.5284   24195767.5914
      2128.1564
 04  9 14 21 24 15.0010000  0  8G 3G 8G13G19G23G27G10G28
   1763582.92149   1367221.16747  23313212.5994   23313212.2394
     -1712.6094
  -1501931.92549  -1169344.16648  21926689.3174   21926687.2554
       782.6564
   2873944.70849   2228485.80448  20740008.7164   20740004.9274
     -2369.8124
  -1394853.38649  -1084666.10447  23281682.8724   23281679.4034
       560.3594
   6045251.04349   4688560.10847  23097454.2784   23097450.1614
     -4327.9694
    358651.62349    275376.58448  21202968.9744   21202966.4314
      -444.5784
   -773473.65349   -602977.87647  24068850.6384   24068849.3334
       695.3284
  -1147587.20049   -893280.30647  24189699.0524   24189699.5994
      2124.5004
 04  9 14 21 24 30.0010000  0  8G 3G 8G13G19G23G27G10G28
   1789345.59249   1387295.96847  23318115.8024   23318114.7634
     -1722.7194
  -1513644.99249  -1178471.22548  21924460.2314   21924457.6534
       778.8754
   2909553.91449   2256233.22648  20746785.2394   20746781.3024
     -2378.3284
  -1403203.06649  -1091172.32947  23280093.6224   23280090.5874
       552.8134
   6110205.72549   4739174.12147  23109814.8414   23109810.4034
     -4332.9694
    365344.44349    280591.77348  21204242.8884   21204240.3254
      -448.0474
   -783839.94049   -611055.48047  24066878.0284   24066876.4154
       686.3754
  -1179430.18949   -918092.98547  24183639.8564   24183639.2714
      2121.0474
 04  9 14 21 24 45.0010000  0  8G 3G 8G13G19G23G27G10G28
   1815261.49749   1407490.16947  23323047.4584   23323046.3764
     -1732.9224
  -1525299.70749  -1187552.81248  21922242.2084   21922239.9384
       774.8754
   2945291.29549   2284080.52348  20753586.0604   20753581.6344
     -2386.8914
  -1411439.15849  -1097590.05047  23278526.8414   23278522.6694
       545.0634
   6175235.42549   4789846.57547  23122189.2784   23122184.7394
     -4337.9064
    372090.63949    285848.54948  21205526.4354   21205524.1464
      -451.6724
   -794071.23149   -619027.93047  24064931.1304   24064930.0174
       677.4224
  -1211220.18149   -942864.36347  24177591.0364   24177588.7864
      2117.2974
 04  9 14 21 25  0.0010000  0  8G 3G 8G13G19G23G27G10G28
   1841328.85449   1427802.40847  23328008.2554   23328006.6144
     -1742.5784
  -1536897.88549  -1196590.34648  21920035.5914   21920033.3994
       771.5944
   2981155.07249   2312026.32048  20760410.1924   20760406.3334
     -2394.8914
  -1419563.13449  -1103920.39647  23276980.7784   23276976.9354
       538.0634
   6240338.31149   4840576.07647  23134577.5214   23134573.4384
     -4342.3444
    378888.52949    291145.60748  21206820.4114   21206818.0284
      -454.6414
   -804169.11649   -626896.40647  24063009.5444   24063008.3724
       668.9844
  -1242958.76549   -967595.69247  24171551.5134   24171550.1264
      2114.4224
 04  9 14 21 25 15.0010000  0  8G 3G 8G13G19G23G27G10G28
   1867547.32049   1448232.38147  23332996.3334   23332995.8764
     -1752.9694
  -1548439.72349  -1205583.98848  21917838.8804   21917836.8104
       767.5164
   3017144.91849   2340070.35448  20767258.8564   20767255.7004
     -2403.6414
  -1427574.97549  -1110163.39147  23275455.8024   23275452.1144
       530.2504
   6305513.83549   4891362.13847  23146980.7944   23146976.5174
     -4347.5624
    385737.68649    296482.61648  21208123.5214   21208121.0714
      -458.3914
   -814133.83949   -634661.10547  24061113.0524   24061112.1614
       659.7974
  -1274646.05549   -992287.06447  24165521.6774   24165519.8884
      2110.6564
 04  9 14 21 25 30.0010000  0  8G 3G 8G13G19G23G27G10G28
   1893911.05049   1468775.54047  23338013.2164   23338012.6424
     -1762.2504
  -1559931.17749  -1214538.35648  21915652.3334   21915650.1104
       764.7034
   3053255.01849   2368208.07448  20774130.3644   20774126.7824
     -2411.1724
  -1435480.19949  -1116323.30047  23273951.6534   23273947.6034
       523.6564
   6370755.94649   4942200.10347  23159395.8174   23159391.2314
     -4351.5004
    392632.39449    301855.10048  21209435.5754   21209432.9814
      -460.9534
   -823970.86649   -642326.30347  24059240.9034   24059239.5404
       651.7344
  -1306287.63449  -1016942.78947  24159499.5754   24159497.5214
      2108.0474
 04  9 14 21 25 45.0010000  0  8G 3G 8G13G19G23G27G10G28
   1920426.23449   1489436.73547  23343058.7314   23343058.4504
     -1772.9694
  -1571365.71449  -1223448.37848  21913476.2084   21913473.6694
       760.2194
   3089491.57249   2396444.33148  20781026.1304   20781022.9704
     -2420.1254
  -1443272.28049  -1122395.02347  23272469.1924   23272465.7674
       515.5634
   6436070.71749   4993094.70847  23171824.4664   23171820.8174
     -4356.9694
    399578.88749    307267.96548  21210757.0834   21210754.6424
      -465.0314
   -833673.68449   -649886.92847  24057394.5834   24057393.1064
       642.2664
  -1337877.10249  -1041557.90747  24153489.3334   24153487.5094
      2104.1094
 04  9 14 21 26  0.0010000  0  8G 3G 8G13G19G23G27G10G28
   1947096.24849   1510218.56247  23348134.5834   23348133.6034
     -1783.2344
  -1582740.09149  -1232311.51348  21911311.9814   21911309.6854
       756.2344
   3125858.02849   2424781.81148  20787946.1384   20787942.8644
     -2428.7974
  -1450947.60849  -1128375.80447  23271008.5754   23271004.5174
       507.6724
   6501461.43649   5044048.46247  23184268.4114   23184263.7084
     -4361.9374
    406580.61249    312723.84748  21212089.9034   21212087.1384
      -468.7194
   -843238.73649   -657340.20447  24055575.4894   24055573.3334
       632.9844
  -1369410.78849  -1066129.54447  24147488.0444   24147488.0634
      2100.4064
 04  9 14 21 26 15.0010000  0  8G 3G 8G13G19G23G27G10G28
   1973911.45749   1531113.52347  23353237.0674   23353235.5484
     -1792.5784
  -1594063.98349  -1241135.30748  21909156.5754   21909154.8254
       753.1724
   3162344.68249   2453212.96348  20794889.4274   20794886.3334
     -2436.4694
  -1458515.49349  -1134272.84547  23269567.6384   23269564.2594
       500.9694
   6566918.23549   5095053.72447  23196724.6614   23196720.2164
     -4366.0164
    413627.83249    318215.18448  21213430.4744   21213428.3334
      -471.4064
   -852675.59949   -664693.59947  24053778.5214   24053777.3564
       624.9064
  -1400898.23749  -1090665.18147  24141496.6464   24141495.2354
      2097.6094
 04  9 14 21 26 30.0010000  0  8G 3G 8G13G19G23G27G10G28
   2000874.86349   1552123.96847  23358368.2084   23358366.8884
     -1802.7814
  -1605333.90649  -1249917.07148  21907012.0754   21907009.4704
       749.3284
   3198954.61149   2481740.18248  20801856.4034   20801852.7084
     -2444.9844
  -1465972.43749  -1140083.42947  23268149.6064   23268145.8604
       493.2344
   6632444.02549   5146112.72647  23209194.2634   23209190.0524
     -4370.8594
    420723.71649    323744.44848  21214780.9664   21214778.2434
      -474.8914
   -861980.70349   -671944.33647  24052008.4034   24052007.0874
       615.7974
  -1432336.09649  -1115162.18147  24135513.3884   24135512.4704
      2093.9534
 04  9 14 21 26 45.0010000  0  8G 3G 8G13G19G23G27G10G28
   2027987.03949   1573250.31247  23363527.2244   23363526.7674
     -1812.5314
  -1616549.53049  -1258656.51048  21904877.7784   21904875.3564
       745.8284
   3235688.28249   2510363.79248  20808846.2554   20808842.6344
     -2453.1564
  -1473317.59849  -1145806.92547  23266751.5364   23266748.3454
       485.8134
   6698039.15749   5197225.78847  23221675.9424   23221671.4314
     -4375.4844
    427868.89949    329312.12748  21216140.6854   21216138.1614
      -478.0944
   -871153.29649   -679091.81147  24050263.1064   24050262.0284
       606.9694
  -1463723.57849  -1139619.90847  24129540.5754   24129539.8104
      2090.6254
 04  9 14 21 27  0.0010000  0  8G 3G 8G13G19G23G27G10G28
   2055246.34649   1594491.35247  23368714.4664   23368713.4854
     -1822.2504
  -1627712.43449  -1267354.86948  21902753.8494   21902751.4814
       742.3914
   3272544.21149   2539082.70048  20815860.0134   20815856.4974
     -2461.1564
  -1480552.25449  -1151444.29947  23265374.1064   23265370.8644
       478.5314
   6763701.94149   5248391.55847  23234170.9354   23234167.3804
     -4379.8284
    435061.68449    334916.89748  21217509.5754   21217507.0794
      -481.1874
   -880194.83849   -686137.17947  24048542.7244   24048540.5834
       598.3284
  -1495062.14149  -1164039.52347  24123577.9274   24123575.9194
      2087.5314
 04  9 14 21 27 15.0010000  0  8G 3G 8G13G19G23G27G10G28
   2082655.42349   1615849.05347  23373930.0994   23373929.4704
     -1832.4224
  -1638819.88849  -1276010.03148  21900639.8104   21900637.7744
       738.5164
   3309525.08149   2567898.95448  20822897.2244   20822893.7904
     -2469.7034
  -1487673.48949  -1156993.29947  23264020.4274   23264016.1774
       470.7974
   6829434.76849   5299611.88547  23246679.3884   23246676.2944
     -4384.6564
    442304.91549    340560.96948  21218887.6064   21218885.0214
      -484.7504
   -889102.54649   -693078.23247  24046846.8024   24046846.0754
       589.2814
  -1526348.91849  -1188418.76947  24117623.8104   24117621.7514
      2083.8914
 04  9 14 21 27 30.0010000  0  8G 3G 8G13G19G23G27G10G28
   2110212.50149   1637322.11447  23379174.7004   23379173.7044
     -1841.8594
  -1649873.38249  -1284623.12448  21898536.7084   21898534.7394
       735.2194
   3346629.14849   2596811.19448  20829957.5284   20829954.5994
     -2477.5944
  -1494682.57649  -1162454.92547  23262685.3254   23262681.9934
       463.6414
   6895235.92349   5350885.45147  23259200.8254   23259197.7864
     -4388.9224
    449596.81849    346242.97148  21220275.4744   21220272.9974
      -487.6414
   -897877.74249   -699916.02447  24045176.5914   24045175.6574
       580.6724
  -1557585.13949  -1212758.66347  24111679.7554   24111678.0994
      2080.8284
 04  9 14 21 27 45.0010000  0  8G 3G 8G13G19G23G27G10G28
   2137924.01549   1658915.49547  23384447.5524   23384446.5014
     -1852.2504
  -1660866.61549  -1293189.26848  21896444.9114   21896442.7204
       731.2034
   3383862.82549   2625824.42648  20837043.0914   20837040.1424
     -2486.3594
  -1501572.91849  -1167824.00547  23261374.3494   23261370.8534
       455.5474
   6961111.38449   5402216.92847  23271736.8964   23271733.6574
     -4393.9374
    456943.78649    351967.88948  21221673.7164   21221671.0524
      -491.3284
   -906513.99649   -706645.52447  24043532.8644   24043532.1964
       571.4064
  -1588764.54949  -1237054.23647  24105746.1464   24105745.1304
      2076.9844
 04  9 14 21 28  0.0010000  0  8G 3G 8G13G19G23G27G10G28
   2165777.37849   1680619.39347  23389747.3174   23389746.9744
     -1862.0784
  -1671812.06149  -1301718.18648  21894361.7864   21894360.1034
       727.6414
   3421213.54249   2654928.86948  20844150.8254   20844147.1924
     -2494.4064
  -1508356.78349  -1173110.12847  23260083.5604   23260080.1694
       448.1884
   7027048.62649   5453596.52947  23284285.3024   23284281.0134
     -4398.3754
    464333.40949    357726.03248  21223080.0754   21223077.4704
      -494.5314
   -915023.38849   -713276.22447  24041914.5674   24041912.7674
       562.5164
  -1619899.21749  -1261314.98747  24099821.4274   24099819.4744
      2073.6724
 04  9 14 21 28 15.0010000  0  8G 3G 8G13G19G23G27G10G28
   2193781.16249   1702440.52747  23395077.3334   23395075.7944
     -1871.8124
  -1682701.05049  -1310203.10748  21892289.6384   21892287.5674
       724.1724
   3458689.77549   2684131.12848  20851282.2944   20851278.8884
     -2502.5164
  -1515025.37849  -1178306.40747  23258814.7164   23258810.9464
       440.8134
   7093056.03349   5505030.83347  23296845.3334   23296841.3104
     -4402.8124
    471774.24849    363524.09248  21224495.1614   21224492.4504
      -497.6414
   -923397.29149   -719801.36947  24040321.0364   24040319.5244
       553.8444
  -1650980.53149  -1285534.17647  24093906.7314   24093903.9544
      2070.3594
 04  9 14 21 28 30.0010000  0  8G 3G 8G13G19G23G27G10G28
   2221933.75949   1724377.58947  23400433.8334   23400433.1574
     -1881.8754
  -1693535.32549  -1318645.39948  21890228.1854   21890226.0674
       720.4384
   3496289.85149   2713429.87148  20858437.0284   20858433.5524
     -2510.8594
  -1521579.93449  -1183413.84047  23257567.7394   23257563.4814
       433.1094
   7159131.68749   5556518.30547  23309419.1304   23309415.1304
     -4407.2814
    479264.64949    369360.76548  21225921.0994   21225918.5994
      -501.0474
   -931637.06449   -726221.92947  24038752.5994   24038751.8064
       545.0164
  -1682009.88249  -1309712.84247  24088002.0214   24088001.0214
      2066.8754
 04  9 14 21 28 45.0010000  0  8G 3G 8G13G19G23G27G10G28
   2250236.31849   1746431.56147  23405819.9504   23405819.0994
     -1891.6094
  -1704313.38249  -1327043.86848  21888177.2004   21888174.7744
       716.9064
   3534015.15849   2742826.20248  20865616.4664   20865612.3684
     -2518.9694
  -1528018.80349  -1188431.13347  23256341.2784   23256337.7434
       425.5944
   7225276.80649   5608059.93247  23322006.7394   23322002.6654
     -4411.7194
    486805.91549    375237.07848  21227356.3104   21227353.3024
      -504.1874
   -939741.18949   -732536.87147  24037211.4274   24037209.6814
       535.9844
  -1712985.76649  -1333849.86047  24082107.7714   24082106.4464
      2063.5784
 04  9 14 21 29  0.0010000  0  8G 3G 8G13G19G23G27G10G28
   2278686.86749   1768600.80047  23411233.8334   23411233.5014
     -1901.8444
  -1715037.16549  -1335400.05248  21886136.1144   21886134.3924
       712.9064
   3571863.68249   2772318.55148  20872818.3964   20872815.1184
     -2527.5314
  -1534343.65649  -1193359.58347  23255138.1924   23255134.8764
       417.6884
   7291489.19949   5659653.97247  23334605.7714   23334602.1264
     -4416.5944
    494396.31449    381151.67448  21228800.9194   21228797.5914
      -507.8124
   -947711.39849   -738747.39747  24035694.0134   24035692.7044
       526.6564
  -1743909.86149  -1357946.51547  24076222.5054   24076220.7284
      2059.6884
 04  9 14 21 29 15.0010000  0  8G 3G 8G13G19G23G27G10G28
   2307288.41149   1790887.69647  23416677.2004   23416675.5244
     -1911.7814
  -1725703.51849  -1343711.50548  21884106.6384   21884104.7594
       709.1724
   3609838.40549   2801909.21848  20880044.3724   20880041.2124
     -2535.9224
  -1540551.12349  -1198196.55847  23253957.5994   23253953.8374
       409.8444
   7357771.83249   5711302.75347  23347219.2394   23347214.9854
     -4421.2814
    502038.72949    387106.79648  21230254.7314   21230252.6424
      -511.2814
   -955544.55249   -744851.14547  24034202.9034   24034202.3374
       517.5944
  -1774778.98449  -1382000.34747  24070347.7474   24070347.9814
      2056.0004
 04  9 14 21 29 30.0010000  0  8G 3G 8G13G19G23G27G10G28
   2336035.79649   1813288.25547  23422146.9034   23422146.2164
     -1921.5624
  -1736317.51949  -1351982.14648  21882086.6694   21882084.7434
       705.6564
   3647934.23249   2831594.26948  20887294.2164   20887291.0364
     -2544.0474
  -1546646.06249  -1202945.85547  23252797.5674   23252793.0094
       402.2814
   7424119.40249   5763002.11247  23359844.8254   23359841.3764
     -4425.5784
    509728.10049    393098.49948  21231718.0754   21231715.2004
      -514.4224
   -963245.51049   -750851.86547  24032736.6774   24032737.0754
       508.7664
  -1805598.06249  -1406015.17847  24064483.8564   24064482.0954
      2052.6564
 04  9 14 21 29 45.0010000  0  8G 3G 8G13G19G23G27G10G28
   2364930.46449   1835803.58447  23427645.6694   23427644.1424
     -1930.6874
  -1746877.75349  -1360210.88648  21880077.0134   21880074.8564
       702.7344
   3686152.61849   2861374.80848  20894566.7004   20894563.9114
     -2551.5004
  -1552626.74749  -1207606.11047  23251659.3024   23251656.1144
       395.4534
   7490533.07849   5814752.98347  23372482.9814   23372479.3994
     -4429.1724
    517465.96349    399128.02048  21233190.6144   21233187.8414
      -516.9374
   -970812.47049   -756748.18347  24031297.9744   24031296.5874
       500.5004
  -1836365.40149  -1429989.68847  24058629.3414   24058627.2594
      2049.9844
 04  9 14 21 30  0.0010000  0  8G 3G 8G13G19G23G27G10G28
   2393971.36149   1858432.84147  23433172.1144   23433170.7904
     -1940.8754
  -1757385.16949  -1368398.48248  21878077.6534   21878075.5444
       698.7344
   3724492.48849   2891250.02548  20901862.6534   20901859.1774
     -2560.0314
  -1558493.90849  -1212177.90647  23250542.9744   23250538.7164
       387.2974
   7557011.62349   5866554.37547  23385133.0364   23385129.8564
     -4434.0314
    525251.19849    405194.43648  21234672.3414   21234669.2634
      -520.5784
   -978246.36349   -762540.88547  24029882.7084   24029881.9854
       491.2344
  -1867081.91849  -1453924.59247  24052783.3644   24052782.3724
      2046.0634
 04  9 14 21 30 15.0010000  0  8G 3G 8G13G19G23G27G10G28
   2423158.50949   1881176.05247  23438726.6774   23438724.4584
     -1950.8594
  -1767839.84549  -1376544.97448  21876088.3564   21876085.9384
       694.9844
   3762954.05049   2921220.05148  20909182.0674   20909177.9384
     -2568.3444
  -1564247.12149  -1216660.90647  23249448.3104   23249443.6304
       379.5634
   7623555.09849   5918406.37447  23397796.2474   23397792.2744
     -4438.6414
    533084.10549    411297.99048  21236162.6694   21236159.9034
      -523.9534
   -985546.94149   -768229.58747  24028494.4194   24028493.1104
       482.1884
  -1897747.22749  -1477819.59547  24046948.6614   24046947.1854
      2042.4224
 04  9 14 21 30 30.0010000  0  8G 3G 8G13G19G23G27G10G28
   2452494.84649   1904035.53147  23444308.2394   23444307.2004
     -1960.4374
  -1778238.28449  -1384647.64048  21874109.6774   21874106.7864
       691.6094
   3801540.17249   2951287.16048  20916524.2394   20916521.1884
     -2576.2974
  -1569883.01149  -1221052.49547  23248375.5284   23248371.4744
       372.0164
   7690166.27049   5970311.12147  23410471.7164   23410468.3534
     -4442.7344
    540967.68649    417441.04448  21237662.7474   21237659.9974
      -526.9534
   -992710.84049   -773811.86547  24027132.4194   24027129.4704
       473.1254
  -1928357.94949  -1501672.07947  24041123.3564   24041122.2634
      2039.0944
 04  9 14 21 30 45.0010000  0  8G 3G 8G13G19G23G27G10G28
   2481981.24849   1927011.92747  23449920.0134   23449918.6694
     -1970.8284
  -1788579.99949  -1392706.11348  21872141.3334   21872139.6924
       687.5004
   3840251.74549   2981452.00348  20923891.0364   20923887.5954
     -2584.9694
  -1575400.43749  -1225351.76647  23247326.2004   23247322.3494
       363.8444
   7756845.88349   6022269.21047  23423160.6464   23423157.1654
     -4447.6564
    548902.81649    423624.26048  21239173.3564   21239170.2744
      -530.8284
   -999736.98449   -779286.81147  24025794.2864   24025791.8454
       463.7034
  -1958913.14449  -1525481.25047  24035308.8414   24035307.1034
      2035.1094
 04  9 14 21 31  0.0010000  0  8G 3G 8G13G19G23G27G10G28
   2511616.21349   1950104.09147  23455559.1774   23455557.9274
     -1980.7974
  -1798866.15949  -1400721.29048  21870184.1064   21870182.0484
       683.7034
   3879087.34649   3011713.49048  20931281.5994   20931277.6494
     -2593.4224
  -1580800.62149  -1229559.69047  23246297.4894   23246294.3454
       355.9064
   7823592.26849   6074279.31147  23435861.9974   23435859.0174
     -4452.1874
    556888.05049    429846.52248  21240692.7944   21240689.7984
      -534.2664
  -1006626.76149   -784655.42647  24024482.5134   24024481.8724
       454.5784
  -1989414.00249  -1549248.14947  24029503.9034   24029502.0834
      2031.3134
 04  9 14 21 31 15.0010000  0  8G 3G 8G13G19G23G27G10G28
   2541397.71349   1973310.46547  23461226.5524   23461225.0404
     -1990.2504
  -1809098.60749  -1408694.62248  21868237.2474   21868235.1264
       680.4534
   3918044.74649   3042069.90448  20938694.5214   20938691.4624
     -2601.1564
  -1586085.30149  -1233677.59847  23245292.6144   23245288.6344
       348.4224
   7890403.17249   6126339.70247  23448576.3254   23448571.6924
     -4456.1254
    564921.43649    436106.31648  21242221.0364   21242218.2394
      -537.0944
  -1013381.92849   -789919.20847  24023197.8024   24023196.8104
       445.9384
  -2019862.48549  -1572974.19647  24023709.4744   24023709.7434
      2028.1564
 04  9 14 21 31 30.0010000  0  8G 3G 8G13G19G23G27G10G28
   2571324.17049   1996629.75647  23466921.3334   23466919.8294
     -2000.1874
  -1819278.78249  -1416627.22248  21866299.6854   21866297.4194
       676.5944
   3957122.66549   3072520.20948  20946130.8414   20946127.2314
     -2609.4844
  -1591255.54149  -1237706.33647  23244308.6224   23244304.0794
       340.5944
   7957277.04649   6178449.17547  23461301.6924   23461297.6424
     -4460.6254
    573001.61249    442402.54748  21243758.9974   21243755.9704
      -540.4844
  -1020003.69449   -795079.02347  24021938.1224   24021936.3684
       436.8444
  -2050259.73349  -1596660.32947  24017926.5524   24017924.7784
      2024.4844
 04  9 14 21 31 45.0010000  0  8G 3G 8G13G19G23G27G10G28
   2601403.38249   2020068.11747  23472644.8884   23472644.2394
     -2010.0624
  -1829398.82249  -1424512.96448  21864374.0444   21864371.9154
       672.9694
   3996328.87549   3103070.48448  20953591.4114   20953588.3564
     -2617.6254
  -1596303.29849  -1241639.63747  23243347.7164   23243344.6534
       332.8444
   8024221.52849   6230613.67447  23474040.7944   23474036.7474
     -4464.9694
    581136.28349    448741.25748  21245306.7004   21245303.6464
      -543.7664
  -1026484.03049   -800128.63547  24020704.0524   24020702.2784
       427.6094
  -2080597.58149  -1620300.17647  24012152.8564   24012150.7744
      2020.9064
 04  9 14 21 32  0.0010000  0  8G 3G 8G13G19G23G27G10G28
   2631628.52649   2043620.15747  23478397.1384   23478395.3134
     -2019.8444
  -1839465.53849  -1432357.14648  21862458.1774   21862456.4314
       669.3914
   4035656.55649   3133715.41748  20961075.3494   20961072.2944
     -2625.8284
  -1601235.03349  -1245482.52947  23242409.3254   23242405.3294
       324.9384
   8091229.70749   6282827.79247  23486792.2474   23486787.1614
     -4469.2344
    589318.89849    455117.32048  21246863.5364   21246861.1694
      -547.0624
  -1032829.47449   -805073.12647  24019497.4744   24019495.3374
       418.5474
  -2110882.63349  -1643898.90247  24006389.5994   24006388.7284
      2017.2504
 04  9 14 21 32 15.0010000  0  8G 3G 8G13G19G23G27G10G28
   2662000.70949   2067286.78647  23484176.6064   23484175.0954
     -2029.6414
  -1849477.71349  -1440158.83348  21860552.9034   21860551.1534
       665.7194
   4075106.68749   3164455.76548  20968582.4744   20968578.2674
     -2634.0164
  -1606049.32549  -1249233.94547  23241492.9034   23241489.5404
       317.0944
   8158302.47849   6335092.23147  23499555.6694   23499551.6224
     -4473.5944
    597550.51049    461531.56048  21248430.1924   21248427.3174
      -550.2974
  -1039038.69749   -809911.45047  24018314.7164   24018313.6384
       409.4534
  -2141113.74749  -1667455.56547  24000637.5364   24000635.1184
      2013.7194
 04  9 14 21 32 30.0010000  0  8G 3G 8G13G19G23G27G10G28
   2692518.24249   2091066.67547  23489983.5994   23489982.8964
     -2039.4844
  -1859437.06149  -1447919.36048  21858657.9894   21858656.1654
       662.1094
   4114677.75949   3195290.34648  20976112.5524   20976109.4034
     -2642.1724
  -1610747.41449  -1252894.75247  23240598.8104   23240595.7244
       309.2034
   8225437.97049   6387405.54947  23512331.2634   23512327.3334
     -4477.8754
    605829.50049    467982.72448  21250005.7634   21250002.8804
      -553.5474
  -1045113.14149   -814644.77747  24017159.1224   24017157.9854
       400.3914
  -2171292.31449  -1690971.30047  23994894.6924   23994892.4814
      2010.1724
 04  9 14 21 32 45.0010000  0  8G 3G 8G13G19G23G27G10G28
   2723182.37149   2114960.80547  23495818.8104   23495818.2904
     -2049.1564
  -1869341.95349  -1455637.45348  21856772.9354   21856771.2434
       658.5634
   4154371.18749   3226220.28348  20983665.8254   20983662.4744
     -2650.2194
  -1615327.78949  -1256463.86047  23239728.1064   23239723.6614
       301.5004
   8292637.38349   6439768.68547  23525118.3564   23525115.4354
     -4482.0624
    614157.33349    474471.95348  21251590.1694   21251587.5364
      -556.7034
  -1051051.30749   -819271.93847  24016028.2714   24016027.2514
       391.4384
  -2201416.77849  -1714444.89247  23989161.4114   23989158.9464
      2006.5784
 04  9 14 21 33  0.0010000  0  8G 3G 8G13G19G23G27G10G28
   2753993.82349   2138969.72547  23501681.5674   23501680.8844
     -2058.6414
  -1879191.75749  -1463312.61048  21854898.8254   21854896.6464
       655.2194
   4194187.50949   3257245.96148  20991242.7554   20991239.0134
     -2658.1564
  -1619789.35949  -1259940.38947  23238878.2714   23238876.0634
       293.7974
   8359901.33049   6492182.09247  23537919.3104   23537915.0994
     -4486.0004
    622534.67049    480999.74448  21253184.2714   21253181.8564
      -559.7664
  -1056852.26449   -823792.14447  24014924.8644   24014923.8684
       382.6254
  -2231486.13249  -1737875.50647  23983439.2394   23983437.9354
      2003.1564
 04  9 14 21 33 15.0010000  0  8G 3G 8G13G19G23G27G10G28
   2784949.15949   2163090.74847  23507573.0054   23507572.3374
     -2068.6414
  -1888989.63249  -1470947.32248  21853034.5444   21853032.1344
       651.2814
   4234123.41649   3288364.83948  20998842.4584   20998838.8844
     -2666.5474
  -1624135.21249  -1263326.75347  23238051.4194   23238047.8884
       285.5944
   8427226.36649   6544643.14147  23550729.8254   23550726.4854
     -4490.5474
    630958.25549    487563.57848  21254787.1774   21254784.7204
      -563.2194
  -1062519.10449   -828207.88047  24013846.9354   24013845.4314
       373.1414
  -2261503.53149  -1761265.65247  23977727.4584   23977726.3534
      1999.2664
 04  9 14 21 33 30.0010000  0  8G 3G 8G13G19G23G27G10G28
   2816049.98449   2187325.17347  23513491.1464   23513490.1854
     -2078.0164
  -1898733.95549  -1478540.29248  21851179.6924   21851177.8334
       648.0944
   4274180.45949   3319578.10248  21006464.6384   21006461.3884
     -2674.3124
  -1628363.60749  -1266621.60847  23237246.9814   23237243.0134
       278.2194
   8494613.66949   6597152.69947  23563553.4504   23563549.8254
     -4494.3284
    639429.82449    494164.79948  21256399.3564   21256397.0874
      -566.1254
  -1068050.07049   -832517.70647  24012794.0524   24012792.6264
       364.4224
  -2291467.14149  -1784613.88847  23972026.0604   23972023.1854
      1996.0314
 04  9 14 21 33 45.0010000  0  8G 3G 8G13G19G23G27G10G28
   2847291.71049   2211669.34347  23519436.9194   23519434.6304
     -2087.5164
  -1908429.32349  -1486095.12248  21849335.0754   21849332.4894
       644.7034
   4314353.98249   3350882.13848  21014109.6534   21014106.1924
     -2682.1724
  -1632478.60949  -1269828.08047  23236463.6854   23236460.5674
       270.4384
   8562058.62649   6649707.16847  23576388.2634   23576383.9154
     -4498.0944
    647944.67649    500799.73948  21258019.8644   21258017.1304
      -569.1094
  -1073449.55749   -836725.11547  24011766.3024   24011765.8844
       355.5474
  -2321381.30249  -1807923.61047  23966333.2164   23966331.4034
      1992.5944
 04  9 14 21 34  0.0010000  0  8G 3G 8G13G19G23G27G10G28
   2878677.21749   2236125.56847  23525409.0914   23525408.1384
     -2097.4844
  -1918072.81549  -1493609.52748  21847499.7084   21847497.4424
       640.8444
   4354646.97849   3382279.27148  21021777.2474   21021773.6734
     -2690.5164
  -1636477.03049  -1272943.70347  23235702.8024   23235699.4074
       262.3594
   8629564.06549   6702308.77747  23589233.2554   23589229.8844
     -4502.7664
    656505.88149    507470.80748  21259649.3334   21259646.5014
      -572.6254
  -1078714.31749   -840827.50847  24010764.9194   24010763.6734
       346.1564
  -2351242.87249  -1831192.31847  23960651.0914   23960648.1884
      1988.6724
 04  9 14 21 34 15.0010000  0  8G 3G 8G13G19G23G27G10G28
   2910215.65349   2260700.96247  23531410.6144   23531409.8064
     -2107.8914
  -1927654.91749  -1501076.09048  21845676.5914   21845673.7634
       636.4694
   4395068.74549   3413776.71448  21029469.0994   21029465.5604
     -2699.3594
  -1640349.31649  -1275961.04247  23234965.7554   23234962.4544
       253.7034
   8697139.11449   6754964.60047  23602092.6384   23602089.0874
     -4507.5474
    665122.91949    514185.38648  21261289.1064   21261286.5054
      -576.6094
  -1083834.79349   -844817.49647  24009790.8254   24009789.5564
       336.1724
  -2381042.33449  -1854412.64247  23954980.0444   23954977.7594
      1984.2504
 04  9 14 21 34 30.0010000  0  8G 3G 8G13G19G23G27G10G28
   2941901.38949   2285391.13647  23537440.0994   23537438.7714
     -2117.0944
  -1937181.18649  -1508499.15248  21843863.8494   21843861.8254
       633.3134
   4435613.61049   3445370.11748  21037184.7474   21037180.8064
     -2706.9224
  -1644100.75349  -1278884.21947  23234252.3024   23234248.7744
       246.2034
   8764778.07149   6807670.21647  23614964.9194   23614960.4194
     -4511.3124
    673790.17649    520939.08448  21262937.8964   21262935.4194
      -579.3284
  -1088816.49649   -848699.33747  24008842.8804   24008840.9154
       327.5944
  -2410785.02649  -1877588.73547  23949320.0994   23949318.1464
      1981.1094
 04  9 14 21 34 45.0010000  0  8G 3G 8G13G19G23G27G10G28
   2973730.30049   2310192.89147  23543496.6064   23543495.7474
     -2126.8444
  -1946655.57049  -1515881.78648  21842061.1144   21842058.4154
       629.7504
   4476277.48749   3477056.22948  21044922.9814   21044919.7314
     -2715.0944
  -1647735.08049  -1281716.15247  23233560.6384   23233557.0324
       238.2034
   8832476.49149   6860422.19447  23627847.7084   23627842.6884
     -4515.3124
    682503.49249    527728.68648  21264595.9814   21264593.2434
      -582.6254
  -1093663.11349   -852475.95447  24007920.6534   24007919.1734
       318.4844
  -2440474.90249  -1900723.69147  23943670.2474   23943666.7634
      1977.4694
 04  9 14 21 35  0.0010000  0  8G 3G 8G13G19G23G27G10G28
   3005706.13149   2335109.12347  23549581.1924   23549581.1574
     -2136.9064
  -1956074.08949  -1523220.88148  21840268.7244   21840266.2944
       625.7344
   4517064.29249   3508838.14148  21052684.0674   21052680.3604
     -2723.4844
  -1651248.20349  -1284453.62847  23232892.0284   23232889.0094
       229.9534
   8900238.14049   6913223.44147  23640741.3564   23640738.2124
     -4519.7814
    691266.85549    534557.28148  21266263.9584   21266261.1184
      -586.1724
  -1098370.81349   -856144.29447  24007025.2394   24007023.0794
       308.9224
  -2470107.95849  -1923814.36347  23938031.5604   23938029.0834
      1973.3594
 04  9 14 21 35 15.0010000  0  8G 3G 8G13G19G23G27G10G28
   3037827.99949   2360139.16147  23555694.4974   23555693.7594
     -2146.3594
  -1965437.66349  -1530517.16748  21838486.5364   21838484.2354
       622.3284
   4557972.96349   3540715.00948  21060468.9744   21060465.8724
     -2731.3594
  -1654640.58049  -1287097.02547  23232246.3964   23232242.5094
       222.1094
   8968061.95849   6966073.11547  23653648.4974   23653644.7284
     -4523.7344
    700079.44849    541424.22948  21267940.5524   21267937.7394
      -589.2664
  -1102940.20149   -859704.82847  24006155.5364   24006153.8804
       299.9534
  -2499684.81749  -1946861.22347  23932403.1224   23932400.7784
      1969.8134
 04  9 14 21 35 30.0010000  0  8G 3G 8G13G19G23G27G10G28
   3070086.57849   2385275.70947  23561832.3494   23561832.1464
     -2155.0624
  -1974755.56749  -1537777.86248  21836713.1144   21836711.1694
       619.7034
   4598994.21349   3572679.60948  21068275.1464   21068271.7314
     -2738.5164
  -1657921.39749  -1289653.48147  23231621.9974   23231618.5404
       214.9694
   9035938.41949   7018963.80847  23666564.6464   23666561.0244
     -4526.8284
    708932.05549    548322.36348  21269625.2244   21269622.4424
      -591.4844
  -1107380.35349   -863164.68347  24005309.5754   24005309.3334
       291.7504
  -2529214.42449  -1969871.27047  23926783.3174   23926781.9154
      1967.0784
 04  9 14 21 35 45.0010000  0  8G 3G 8G13G19G23G27G10G28
   3102489.01549   2410524.35847  23567998.2394   23567998.2124
     -2164.8444
  -1984020.56449  -1544997.33348  21834950.7784   21834947.8924
       616.0784
   4640135.36349   3604737.62548  21076103.6694   21076100.3064
     -2746.5314
  -1661083.07649  -1292117.09547  23231020.6924   23231017.2314
       207.0314
   9103874.59049   7071901.03847  23679492.8104   23679488.6694
     -4530.8754
    717831.85949    555257.27648  21271319.2634   21271316.2634
      -594.7344
  -1111683.92249   -866518.10347  24004491.0284   24004489.8414
       282.4534
  -2558689.43949  -1992838.79147  23921174.8804   23921172.0674
      1963.3284
 04  9 14 21 36  0.0010000  0  8G 3G 8G13G19G23G27G10G28
   3135034.56649   2435884.52747  23574191.3564   23574190.8334
     -2174.4844
  -1993233.16349  -1552175.97548  21833197.3964   21833195.0524
       612.3754
   4681395.71149   3636888.53148  21083955.1694   21083951.6654
     -2754.6254
  -1664125.97149  -1294488.17347  23230441.7004   23230437.5714
       198.8444
   9171869.81749   7124884.25547  23692431.6694   23692427.8764
     -4535.0474
    726778.40449    562228.61748  21273021.5524   21273018.9894
      -598.0784
  -1115851.27649   -869765.39347  24003697.2714   24003696.1654
       273.1724
  -2588110.20549  -2015764.03747  23915575.4504   23915573.3844
      1959.5314
 04  9 14 21 36 15.0010000  0  8G 3G 8G13G19G23G27G10G28
   3167727.22349   2461359.29847  23580412.9424   23580412.0174
     -2184.2504
  -2002389.10949  -1559310.47948  21831455.1224   21831452.8494
       608.7034
   4722778.99249   3669135.23748  21091830.7244   21091826.9384
     -2762.7664
  -1667045.86749  -1296763.40847  23229886.2554   23229882.3334
       190.6724
   9239927.79849   7177916.37147  23705382.7394   23705379.2904
     -4539.1414
    735775.69049    569239.47548  21274733.4504   21274730.5094
      -601.3914
  -1119878.31149   -872903.32447  24002930.9274   24002930.3454
       263.9694
  -2617472.68749  -2038643.86347  23909989.0134   23909986.0874
      1955.7034
 04  9 14 21 36 30.0010000  0  8G 3G 8G13G19G23G27G10G28
   3200562.34049   2486945.10447  23586661.2864   23586660.7244
     -2193.7814
  -2011492.96649  -1566404.37648  21829722.5834   21829720.1574
       605.1724
   4764280.90249   3701474.37148  21099728.2784   21099724.7674
     -2770.7814
  -1669846.87049  -1298945.98447  23229353.0214   23229348.9854
       182.7504
   9308044.00249   7230993.81447  23718343.7944   23718341.7784
     -4543.0624
    744819.13949    576286.32048  21276454.1614   21276452.0444
      -604.4694
  -1123769.25749   -875935.24747  24002191.6384   24002190.1184
       254.8444
  -2646781.11749  -2061481.55847  23904411.5914   23904409.0444
      1952.0314
 04  9 14 21 36 45.0010000  0  8G 3G 8G13G19G23G27G10G28
   3233540.02049   2512642.01147  23592936.2474   23592936.3104
     -2202.8754
  -2020544.82649  -1573457.77548  21828000.1304   21827997.6144
       602.0944
   4805901.57449   3733906.05548  21107648.0134   21107644.7434
     -2778.2814
  -1672528.55649  -1301035.60547  23228842.3254   23228838.8844
       175.1884
   9376218.10149   7284116.42747  23731316.9274   23731314.6494
     -4546.5004
    753909.01749    583369.33848  21278184.5604   21278181.5524
      -607.1724
  -1127523.81449   -878860.88047  24001477.2474   24001475.5284
       246.0474
  -2676035.12049  -2084276.84847  23898844.6064   23898842.2284
      1948.7504
 04  9 14 21 37  0.0010000  0  8G 3G 8G13G19G23G27G10G28
   3266658.12949   2538448.30747  23599239.6224   23599238.3104
     -2212.9064
  -2029546.24049  -1580471.85048  21826287.0284   21826284.6774
       598.0784
   4847638.90649   3766428.63348  21115590.8174   21115587.2004
     -2786.7194
  -1675092.66049  -1303033.56847  23228353.8024   23228350.7044
       166.6254
   9444448.06449   7337282.59247  23744301.6774   23744297.9274
     -4550.8124
    763043.45449    590487.08748  21279922.4894   21279919.6774
      -610.7814
  -1131143.85649   -881681.67847  24000788.0364   24000786.4114
       236.3914
  -2705236.41349  -2107031.08947  23893287.8724   23893285.3374
      1944.6414
 04  9 14 21 37 15.0010000  0  8G 3G 8G13G19G23G27G10G28
   3299925.11549   2564370.62847  23605569.3494   23605568.7944
     -2222.5784
  -2038488.61149  -1587439.93148  21824585.6464   21824583.2434
       594.4224
   4889501.40249   3799048.74048  21123556.7554   21123553.8134
     -2794.8444
  -1677530.44949  -1304933.12847  23227890.4424   23227886.8534
       158.3914
   9512742.21349   7390498.77647  23757298.4744   23757293.4194
     -4554.9064
    772230.95449    597646.16648  21281671.1614   21281668.1774
      -614.1094
  -1134620.69849   -884390.90847  24000126.6694   24000125.4704
       227.1724
  -2734376.37549  -2129737.51647  23887742.8104   23887740.5674
      1940.8134
 04  9 14 21 37 30.0010000  0  8G 3G 8G13G19G23G27G10G28
   3333332.97249   2590402.72847  23611926.2864   23611926.0954
     -2232.1564
  -2047380.12349  -1594368.37748  21822893.8804   21822890.8494
       590.7974
   4931480.89549   3831760.02548  21131545.1464   21131541.8024
     -2802.7504
  -1679849.59749  -1306740.23747  23227449.1064   23227445.6734
       150.3594
   9581092.36749   7443758.58247  23770305.3174   23770300.5794
     -4558.7344
    781463.41349    604840.29148  21283427.5604   21283424.9814
      -617.1874
  -1137962.12349   -886994.61747  23999490.8254   23999489.0754
       218.0164
  -2763462.78049  -2152402.21647  23882208.2084   23882206.2044
      1937.1254
 04  9 14 21 37 45.0010000  0  8G 3G 8G13G19G23G27G10G28
   3366883.94049   2616546.31447  23618311.0054   23618310.7474
     -2241.3284
  -2056218.41849  -1601255.34848  21821211.4894   21821209.0244
       587.5784
   4973579.63949   3864564.23548  21139556.4664   21139553.1424
     -2810.3754
  -1682047.64249  -1308452.97747  23227031.2554   23227026.7244
       142.5944
   9649500.66149   7497063.69247  23783322.0674   23783318.7594
     -4562.3444
    790743.37049    612071.41948  21285193.6614   21285190.6964
      -620.1414
  -1141165.61849   -889490.83447  23998880.0674   23998878.8724
       209.0944
  -2792493.19849  -2175023.29147  23876682.9894   23876681.6344
      1933.5784
 04  9 14 21 38  0.0010000  0  8G 3G 8G13G19G23G27G10G28
   3400575.13449   2642799.20747  23624722.4424   23624721.2044
     -2250.8444
  -2065006.06749  -1608102.86248  21819539.4504   21819536.7864
       584.0314
   5015794.99449   3897459.28748  21147589.7394   21147586.6654
     -2818.3914
  -1684126.99449  -1310073.24247  23226635.4424   23226631.4314
       134.5784
   9717964.07849   7550411.78347  23796350.4424   23796346.9784
     -4566.1414
    800068.02149    619337.38248  21286968.0754   21286965.3534
      -623.2034
  -1144233.70249   -891881.52647  23998297.0214   23998296.0134
       199.9534
  -2821470.14549  -2197602.69347  23871168.6304   23871166.3454
      1929.9694
 04  9 14 21 38 15.0010000  0  8G 3G 8G13G19G23G27G10G28
   3434409.78849   2669163.83747  23631161.0604   23631160.4314
     -2260.6564
  -2073739.73449  -1614908.30348  21817877.2634   21817875.3804
       580.2974
   5058130.31149   3930447.84348  21155645.9974   21155642.8844
     -2826.4694
  -1686084.12849  -1311598.25647  23226263.0674   23226258.8024
       126.2814
   9786485.81749   7603805.26447  23809389.7634   23809386.4814
     -4570.2504
    809440.76949    626640.82448  21288751.3174   21288748.8024
      -626.5474
  -1147162.96149   -894164.10347  23997738.8334   23997738.1064
       190.5004
  -2850390.06649  -2220137.66547  23865666.1534   23865663.4154
      1925.8754
 04  9 14 21 38 30.0010000  0  8G 3G 8G13G19G23G27G10G28
   3468390.03249   2695641.95047  23637627.4814   23637626.8994
     -2270.3444
  -2082417.02749  -1621669.84448  21816225.9194   21816223.5324
       576.4384
   5100587.52449   3963531.37448  21163725.4504   21163721.8844
     -2834.7194
  -1687916.42149  -1313026.01347  23225914.7944   23225910.5284
       117.8594
   9855067.90649   7657245.77647  23822440.6464   23822436.7864
     -4574.2814
    818863.89349    633983.50348  21290544.5134   21290541.7164
      -630.0474
  -1149951.00149   -896336.59147  23997209.2944   23997207.5324
       181.0004
  -2879250.50149  -2242626.28747  23860173.2944   23860172.5054
      1921.9384
 04  9 14 21 38 45.0010000  0  8G 3G 8G13G19G23G27G10G28
   3502511.18549   2722229.87547  23644119.9744   23644119.8254
     -2279.7194
  -2091042.64549  -1628391.08348  21814584.8804   21814582.5134
       573.0944
   5143162.03949   3996706.30148  21171827.3024   21171823.3414
     -2842.3914
  -1689628.31749  -1314359.94047  23225588.4194   23225584.1264
       109.8284
   9923705.45949   7710729.52547  23835501.9974   23835498.3964
     -4577.9064
    828332.76649    641361.84548  21292346.7784   21292343.7864
      -633.0314
  -1152602.39649   -898402.59147  23996704.6774   23996703.1224
       171.9224
  -2908055.99949  -2265072.10447  23854692.2244   23854689.5484
      1918.3284
 04  9 14 21 39  0.0020000  0  8G 3G 8G13G19G23G27G10G28
   3536778.04849   2748931.30147  23650641.2364   23650640.0724
     -2289.2664
  -2099614.53449  -1635070.47148  21812953.4394   21812951.2174
       569.5314
   5185859.23049   4029976.82348  21179952.0884   21179948.0964
     -2850.3914
  -1691217.02249  -1315597.87347  23225285.8934   23225281.6784
       101.6564
   9992405.58249   7764262.04547  23848574.9944   23848571.5574
     -4581.7034
    837850.71149    648778.43648  21294157.8614   21294155.1504
      -636.2194
  -1155114.40749   -900360.00247  23996225.9004   23996225.1274
       162.7194
  -2936805.58349  -2287474.34947  23849221.3694   23849219.5964
      1914.4224
 04  9 14 21 39 15.0020000  0  8G 3G 8G13G19G23G27G10G28
   3571182.94149   2775740.29447  23657187.6504   23657186.9984
     -2298.7034
  -2108134.41349  -1641709.33748  21811331.8614   21811329.9244
       565.9384
   5228670.29349   4063336.08448  21188099.0254   21188095.2684
     -2858.2974
  -1692685.09549  -1316741.81447  23225006.0644   23225003.1864
        93.5474
  10061155.94649   7817833.69447  23861658.1044   23861654.7754
     -4585.5944
    847413.46049    656229.91848  21295977.5184   21295974.9244
      -639.3914
  -1157489.58949   -902210.77247  23995774.4554   23995773.4124
       153.4064
  -2965498.17049  -2309832.18547  23843761.9004   23843759.0064
      1910.6414
 04  9 14 21 39 30.0020000  0  8G 3G 8G13G19G23G27G10G28
   3605728.37149   2802658.81247  23663762.1664   23663761.1704
     -2307.6414
  -2116602.49749  -1648307.83248  21809721.0254   21809718.6624
       562.9384
   5271598.52449   4096786.64448  21196267.5414   21196264.2054
     -2865.7034
  -1694031.93849  -1317791.27447  23224749.9324   23224746.7754
        85.8134
  10129961.23149   7871448.15947  23874750.8224   23874748.0884
     -4588.7814
    857022.13249    663717.20648  21297806.0494   21297803.4284
      -642.0624
  -1159727.44749   -903954.56047  23995348.1354   23995347.6004
       144.7344
  -2994135.21949  -2332146.72947  23838311.8774   23838309.8344
      1907.3914
 04  9 14 21 39 45.0020000  0  8G 3G 8G13G19G23G27G10G28
   3640417.91149   2829689.60247  23670362.2684   23670362.6744
     -2316.9694
  -2125015.07249  -1654863.08148  21808119.6434   21808117.5614
       559.4844
   5314647.18449   4130331.03648  21204459.6354   21204456.2564
     -2873.5004
  -1695253.77249  -1318743.33947  23224517.5494   23224513.9364
        77.7974
  10198824.92549   7925108.13247  23887855.8224   23887852.4944
     -4592.3914
    866680.35049    671243.07848  21299643.9474   21299641.5454
      -645.0314
  -1161824.35849   -905588.50947  23994950.2364   23994948.8424
       135.5164
  -3022712.83649  -2354414.96047  23832873.8544   23832871.0294
      1903.5634
 04  9 14 21 40  0.0020000  0  8G 3G 8G13G19G23G27G10G28
   3675245.90549   2856828.28347  23676990.7994   23676990.0844
     -2326.4534
  -2133377.38449  -1661379.16048  21806528.3614   21806526.2564
       555.9224
   5357811.01049   4163965.17648  21212673.2684   21212670.1434
     -2881.4064
  -1696355.83249  -1319602.05947  23224307.5414   23224304.0924
        69.4694
  10267741.25249   7978809.10647  23900970.3544   23900966.4394
     -4596.0624
    876382.64649    678803.31648  21301490.1584   21301487.7914
      -648.2034
  -1163785.63449   -907116.76647  23994576.5574   23994575.1784
       126.2974
  -3051236.50149  -2376641.16047  23827445.2994   23827443.2714
      1899.8134
 04  9 14 21 40 15.0020000  0  8G 3G 8G13G19G23G27G10G28
   3710214.93449   2884076.86647  23683644.7134   23683644.9124
     -2336.2034
  -2141687.01249  -1667854.20548  21804947.5494   21804945.1194
       551.9224
   5401092.81149   4197691.24748  21220909.6744   21220906.4754
     -2889.6874
  -1697335.18249  -1320365.16847  23224121.4244   23224118.0334
        60.9384
  10336712.68649   8032553.03747  23914094.1824   23914091.2174
     -4600.2814
    886131.71749    686399.97848  21303345.6664   21303342.5534
      -651.7814
  -1165608.37549   -908537.08747  23994229.3544   23994228.1434
       116.6414
  -3079703.23549  -2398823.00447  23822028.4864   23822027.0764
      1895.6254
 04  9 14 21 40 30.0020000  0  8G 3G 8G13G19G23G27G10G28
   3745327.92749   2911437.62847  23690327.0724   23690326.4594
     -2345.1094
  -2149940.75949  -1674285.68048  21803376.7994   21803374.7754
       548.9224
   5444495.26649   4231511.32548  21229169.1894   21229166.2714
     -2896.9694
  -1698188.36149  -1321029.96147  23223958.6194   23223955.6824
        53.2504
  10405742.13549   8086342.16447  23927230.1824   23927226.9944
     -4603.2814
    895930.70149    694035.56148  21305210.0724   21305206.7714
      -654.3754
  -1167289.43049   -909846.99047  23993909.4944   23993908.0964
       107.8914
  -3108109.76049  -2420957.92447  23816622.8774   23816621.0614
      1892.3914
 04  9 14 21 40 45.0020000  0  8G 3G 8G13G19G23G27G10G28
   3780580.31149   2938907.02047  23697035.7994   23697034.3504
     -2354.7664
  -2158143.03049  -1680677.05648  21801815.9864   21801813.4434
       545.1884
   5488013.82149   4265421.86748  21237450.3304   21237447.2914
     -2905.0314
  -1698919.78349  -1321599.87447  23223819.5104   23223815.4084
        44.8134
  10474824.85949   8140172.79847  23940376.3074   23940372.8344
     -4607.3754
    905774.98449    701706.43348  21307083.7684   21307080.4514
      -657.7814
  -1168833.08749   -911049.85847  23993616.3614   23993614.1394
        98.2814
  -3136460.39349  -2443049.29447  23811228.4864   23811226.1824
      1888.1884
 04  9 14 21 41  0.0020000  0  8G 3G 8G13G19G23G27G10G28
   3815971.27549   2966484.35947  23703769.8074   23703768.8854
     -2363.8124
  -2166294.45149  -1687028.80848  21800264.6974   21800262.2484
       541.8284
   5531647.82049   4299422.37248  21245753.0494   21245750.2014
     -2912.6414
  -1699529.86949  -1322075.26647  23223703.3544   23223699.4904
        36.7504
  10543960.06649   8194044.36547  23953533.4084   23953528.4554
     -4610.5784
    915664.20749    709412.31848  21308965.3464   21308962.0294
      -660.6414
  -1170239.90049   -912146.07847  23993349.2134   23993346.8544
        89.4224
  -3164755.73049  -2465097.58147  23805843.1504   23805840.9084
      1884.6414
 04  9 14 21 41 15.0020000  0  8G 3G 8G13G19G23G27G10G28
   3851502.59149   2994171.10647  23710531.3544   23710529.6354
     -2373.6874
  -2174392.98449  -1693339.33648  21798723.2054   21798721.0064
       537.8444
   5575398.98849   4333514.18248  21254078.7524   21254075.8184
     -2920.9374
  -1700016.46549  -1322454.42147  23223611.0104   23223607.2644
        27.9224
  10613149.45249   8247958.10447  23966698.1584   23966694.9324
     -4614.7194
    925600.21649    717154.65848  21310856.2994   21310853.1434
      -664.2344
  -1171507.79649   -913134.02747  23993106.8854   23993105.5644
        79.7664
  -3192993.60049  -2487101.08847  23800469.9864   23800468.4984
      1880.3284
 04  9 14 21 41 30.0020000  0  8G 3G 8G13G19G23G27G10G28
   3887175.75149   3021968.35947  23717319.9084   23717318.0534
     -2382.6094
  -2182437.05649  -1699607.43848  21797192.8934   21797190.2444
       534.8134
   5619268.85749   4367698.46048  21262426.9554   21262424.1784
     -2928.2974
  -1700377.78449  -1322735.95447  23223542.9554   23223538.7014
        20.2504
  10682394.27849   8301915.05047  23979875.9084   23979872.3654
     -4617.9374
    935584.38449    724934.53148  21312755.7994   21312753.4044
      -666.8754
  -1172635.08749   -914012.45247  23992893.0964   23992891.1394
        70.8594
  -3221172.36949  -2509058.53847  23795107.4394   23795105.6464
      1876.9224
 04  9 14 21 41 45.0020000  0  8G 3G 8G13G19G23G27G10G28
   3922989.30849   3049875.01747  23724134.5104   23724133.8384
     -2392.4534
  -2190428.08849  -1705834.23048  21795672.3074   21795669.2174
       530.8134
   5663256.06849   4401974.20448  21270797.8614   21270794.1074
     -2936.5004
  -1700614.88449  -1322920.70147  23223497.3934   23223493.8964
        11.5634
  10751693.04749   8355914.02047  23993063.4474   23993060.1394
     -4621.8914
    945615.66149    732751.10248  21314664.8774   21314662.0684
      -670.4224
  -1173623.02249   -914782.25047  23992704.9634   23992702.8774
        61.0164
  -3249293.12049  -2530970.77547  23789756.3934   23789754.4004
      1872.6564
 04  9 14 21 42  0.0020000  0  8G 3G 8G13G19G23G27G10G28
   3958944.96349   3077892.41647  23730977.2524   23730975.5534
     -2401.3914
  -2198364.06849  -1712018.10248  21794162.0334   21794159.5724
       527.5474
   5707362.37949   4436342.74748  21279190.8074   21279187.4794
     -2944.0784
  -1700725.74349  -1323007.06047  23223476.4794   23223472.6194
         3.4844
  10821047.35249   8409956.25147  24006261.0494   24006257.8774
     -4625.0944
    955695.90349    740605.83348  21316583.2994   21316580.2794
      -673.3444
  -1174469.54049   -915441.89847  23992542.4634   23992542.0924
        52.1094
  -3277353.85749  -2552836.26647  23784416.3144   23784414.3894
      1869.1094
 04  9 14 21 42 15.0020000  0  8G 3G 8G13G19G23G27G10G28
   3995044.67949   3106022.04047  23737846.1354   23737844.1584
     -2411.5164
  -2206242.82949  -1718157.38248  21792662.5884   21792660.3694
       523.3134
   5751589.63349   4470805.52648  21287606.9794   21287603.8074
     -2952.5474
  -1700708.02449  -1322993.22847  23223479.3854   23223475.8074
        -5.5164
  10890459.02949   8464043.19847  24019468.6504   24019466.8424
     -4629.4374
    965827.04949    748500.23648  21318511.2524   21318508.1744
      -677.1414
  -1175172.50449   -915989.65747  23992409.6504   23992408.3934
        42.0164
  -3305352.30349  -2574653.20647  23779088.5024   23779087.4794
      1864.4534
 04  9 14 21 42 30.0020000  0  8G 3G 8G13G19G23G27G10G28
   4031282.53849   3134259.31047  23744742.4164   23744740.8854
     -2420.5474
  -2214070.21549  -1724256.64148  21791173.2294   21791170.9864
       520.0004
   5795932.11149   4505358.09648  21296044.9554   21296041.6234
     -2960.1094
  -1700567.29349  -1322883.55447  23223506.4324   23223502.5844
       -13.6724
  10959922.17849   8518170.25747  24032688.0964   24032685.1504
     -4632.6414
    976003.43549    756429.88648  21320447.6434   21320444.4284
      -680.0164
  -1175737.59049   -916429.99347  23992302.3384   23992301.1464
        32.9064
  -3333293.97049  -2596425.90347  23773770.7684   23773770.3224
      1860.8134
 04  9 14 21 42 45.0020000  0  8G 3G 8G13G19G23G27G10G28
   4067658.72549   3162604.37647  23751664.1584   23751663.3964
     -2430.0004
  -2221845.92149  -1730315.63548  21789693.7444   21789691.4944
       516.3284
   5840390.15449   4540000.71648  21304504.9164   21304502.0494
     -2968.0944
  -1700303.00849  -1322677.60447  23223557.5964   23223553.7444
       -22.1254
  11029436.93749   8572337.55847  24045916.3144   24045912.8464
     -4636.3444
    986225.51449    764395.13348  21322392.5334   21322389.9164
      -683.3594
  -1176164.18049   -916762.37547  23992220.6824   23992219.2994
        23.4694
  -3361178.46049  -2618154.03847  23768465.0414   23768463.2014
      1856.6724
 04  9 14 21 43  0.0020000  0  8G 3G 8G13G19G23G27G10G28
   4104178.10349   3191061.00647  23758614.4004   23758612.2754
     -2439.3914
  -2229564.75349  -1736330.29748  21788224.9084   21788222.3034
       512.6884
   5884968.71849   4574737.22848  21312988.5184   21312985.1544
     -2975.9534
  -1699909.86849  -1322371.25047  23223631.2294   23223628.1974
       -30.5474
  11099008.12049   8626548.77547  24059154.8694   24059151.8734
     -4639.9224
    996498.28449    772399.88548  21324347.6274   21324344.9164
      -686.6254
  -1176447.13849   -916982.87747  23992167.1894   23992165.7564
        14.0164
  -3389000.49249  -2639833.53547  23763170.9394   23763169.4474
      1852.6724
 04  9 14 21 43 15.0020000  0  8G 3G 8G13G19G23G27G10G28
   4140838.95849   3219627.89247  23765590.9244   23765588.8224
     -2448.5474
  -2237228.46949  -1742302.00748  21786766.2994   21786764.3304
       509.3444
   5929665.97849   4609566.24348  21321493.9634   21321490.8894
     -2983.5164
  -1699389.24749  -1321965.54347  23223731.0254   23223726.6544
       -38.7194
  11168633.79649   8680802.54147  24072404.8304   24072401.4324
     -4643.2664
   1006820.09249    780442.84948  21326311.1434   21326309.1394
      -689.5314
  -1176588.05349   -917092.67647  23992140.2134   23992138.5924
         4.8594
  -3416761.55149  -2661465.49647  23757888.8074   23757886.9364
      1848.9224
 04  9 14 21 43 30.0020000  0  8G 3G 8G13G19G23G27G10G28
   4177637.58549   3248302.12347  23772593.0334   23772591.4674
     -2457.6254
  -2244840.53449  -1748233.48148  21785317.7684   21785315.8504
       506.0004
   5974478.15649   4644484.81348  21330021.4244   21330018.0064
     -2991.0624
  -1698744.60649  -1321463.21247  23223853.5184   23223849.8264
       -46.9064
  11238310.19749   8735095.78447  24085663.1744   24085660.5414
     -4646.5314
   1017187.44549    788521.30248  21328284.2994   21328281.9864
      -692.4534
  -1176590.50649   -917094.57847  23992139.9244   23992138.8034
        -4.1874
  -3444465.18749  -2683052.72147  23752616.3934   23752615.2444
      1845.2664
 04  9 14 21 43 45.0020000  0  8G 3G 8G13G19G23G27G10G28
   4214572.74049   3277082.74447  23779620.5644   23779620.1624
     -2466.6254
  -2252402.05549  -1754125.56448  21783879.1044   21783876.4434
       502.7504
   6019404.01849   4679491.96848  21338570.4714   21338567.4944
     -2998.4844
  -1697976.94649  -1320865.03447  23224000.0494   23223995.7094
       -54.9694
  11308035.95449   8789427.47147  24098931.6664   24098928.6504
     -4649.6564
   1027599.13149    796634.29648  21330266.2444   21330262.8184
      -695.2344
  -1176455.38749   -916989.26747  23992165.2604   23992164.1934
       -13.2974
  -3472112.39249  -2704595.95447  23747355.0024   23747353.5454
      1841.5944
 04  9 14 21 44  0.0020000  0  8G 3G 8G13G19G23G27G10G28
   4251647.10249   3305971.83147  23786676.4004   23786675.4474
     -2476.4374
  -2259909.95949  -1759975.87848  21782450.2754   21782448.2524
       498.5784
   6064446.42249   4714589.92548  21347141.5184   21347138.4284
     -3006.8594
  -1697082.92249  -1320168.39147  23224169.4474   23224165.7324
       -64.0164
  11377813.66149   8843799.62447  24112209.8544   24112206.8464
     -4653.7974
   1038058.09349    804784.13148  21332256.3144   21332253.4244
      -699.0474
  -1176179.68349   -916774.44147  23992218.4714   23992215.9904
       -23.2344
  -3499699.98649  -2726092.75547  23742105.5334   23742103.9824
      1837.0164
 04  9 14 21 44 15.0020000  0  8G 3G 8G13G19G23G27G10G28
   4288855.71949   3334965.56447  23793756.5574   23793755.7994
     -2485.5624
  -2267369.16749  -1765788.24048  21781030.7914   21781028.9674
       495.1884
   6109600.45749   4749774.87148  21355734.2214   21355731.0024
     -3014.4064
  -1696067.23349  -1319376.91547  23224362.9084   23224359.8074
       -72.2194
  11447638.38149   8898208.44847  24125497.5184   24125493.8464
     -4657.0004
   1048559.64049    812967.16248  21334254.7054   21334251.8074
      -701.9694
  -1175768.08249   -916453.71447  23992297.2444   23992294.5064
       -32.4534
  -3527232.58349  -2747546.70047  23736865.8694   23736864.0964
      1833.2504
 04  9 14 21 44 30.0020000  0  8G 3G 8G13G19G23G27G10G28
   4326206.26049   3364069.84047  23800864.3694   23800863.9124
     -2494.2194
  -2274771.70649  -1771556.44848  21779622.2684   21779619.9864
       492.1094
   6154873.86249   4785052.83248  21364349.5104   21364346.5104
     -3021.7034
  -1694921.75449  -1318484.33148  23224580.9084   23224577.1004
       -80.1254
  11517517.80049   8952659.85847  24138795.4864   24138791.5614
     -4659.8444
   1059111.56249    821189.43948  21336262.5414   21336259.3734
      -704.6094
  -1175212.74349   -916020.98147  23992402.7524   23992400.6624
       -41.2194
  -3554702.30149  -2768951.65747  23731638.6114   23731636.5884
      1829.7344
 04  9 14 21 44 45.0020000  0  8G 3G 8G13G19G23G27G10G28
   4363690.86749   3393278.57847  23807997.0254   23807996.2604
     -2503.5314
  -2282125.53749  -1777286.69948  21778222.9004   21778220.3224
       488.5314
   6200258.73349   4820417.65048  21372985.9084   21372983.0454
     -3029.4844
  -1693654.12949  -1317496.56948  23224822.4084   23224818.8074
       -88.7194
  11587443.81049   9007147.60947  24152102.4394   24152098.4204
     -4663.4534
   1069706.10149    829444.92448  21338278.7134   21338275.7134
      -707.8284
  -1174521.13649   -915482.06047  23992534.5024   23992531.7684
       -50.7344
  -3582116.72249  -2790313.50147  23726421.9244   23726420.3384
      1825.6884
 04  9 14 21 45  0.0020000  0  8G 3G 8G13G19G23G27G10G28
   4401315.75249   3422596.70147  23815156.9944   23815156.3464
     -2513.0784
  -2289423.91349  -1782973.73548  21776833.7754   21776831.5684
       484.5944
   6245761.54149   4855874.37148  21381644.8854   21381641.5724
     -3037.5164
  -1692257.69549  -1316408.41447  23225088.1744   23225084.0064
       -97.5164
  11657422.73049   9061676.57647  24165419.2294   24165415.3934
     -4667.2344
   1080349.88849    837738.78748  21340303.8614   21340300.8304
      -711.2974
  -1173686.82649   -914831.95947  23992693.0184   23992690.9324
       -60.4224
  -3609469.17249  -2811627.06647  23721216.6274   23721215.3774
      1821.3284
 04  9 14 21 45 15.0020000  0  8G 3G 8G13G19G23G27G10G28
   4439079.31949   3452022.84347  23822343.8224   23822342.1004
     -2522.1564
  -2296668.26749  -1788618.67848  21775455.4864   21775452.8654
       481.1254
   6291380.62949   4891421.68348  21390326.0184   21390322.4674
     -3045.1724
  -1690733.68849  -1315220.86548  23225377.8384   23225373.9164
      -105.8594
  11727452.79849   9116245.37647  24178745.2294   24178742.0184
     -4670.3754
   1091041.37649    846069.79748  21342338.6894   21342335.7174
      -714.3594
  -1172711.11749   -914071.69247  23992878.8304   23992876.0254
       -69.7814
  -3636761.00249  -2832893.40647  23716023.6274   23716021.8304
      1817.3754
 04  9 14 21 45 30.0020000  0  8G 3G 8G13G19G23G27G10G28
   4476980.93749   3481556.53947  23829556.3464   23829554.8384
     -2530.9844
  -2303859.04749  -1794221.88448  21774087.2214   21774084.3344
       478.0314
   6337115.41949   4927059.16548  21399028.9164   21399026.0024
     -3052.3754
  -1689082.40049  -1313934.13447  23225692.2834   23225688.0644
      -113.8754
  11797533.34349   9170853.53547  24192081.1894   24192078.3424
     -4673.2974
   1101780.05249    854437.60948  21344381.9554   21344379.1864
      -717.0474
  -1171594.38549   -913201.49147  23993090.5024   23993088.6274
       -78.7194
  -3663992.51749  -2854112.73647  23710841.3614   23710840.0884
      1813.8594
 04  9 14 21 45 45.0020000  0  8G 3G 8G13G19G23G27G10G28
   4515021.54849   3511198.56447  23836795.1044   23836794.7294
     -2540.6724
  -2310995.16149  -1799782.48548  21772729.1974   21772726.6824
       473.9064
   6382966.93549   4962787.61448  21407754.3544   21407751.6004
     -3060.6254
  -1687302.61949  -1312547.27647  23226030.8384   23226027.0574
      -122.9374
  11867665.22549   9225501.70447  24205426.9944   24205423.5024
     -4677.1874
   1112567.16549    862843.14348  21346434.4394   21346431.7834
      -720.7814
  -1170335.42349   -912220.46247  23993329.9794   23993328.0064
       -88.6414
  -3691162.47249  -2875284.10347  23705671.6194   23705668.9824
      1809.3284
 04  9 14 21 46  0.0020000  0  8G 3G 8G13G19G23G27G10G28
   4553199.94549   3540947.94247  23844060.4244   23844059.4674
     -2550.2034
  -2318077.85749  -1805301.46148  21771381.2444   21771378.9984
       469.9694
   6428934.02749   4998606.11548  21416501.4474   21416498.8854
     -3068.7194
  -1685395.08149  -1311060.86447  23226394.0644   23226390.3184
      -131.8444
  11937847.08949   9280188.78047  24218780.8774   24218778.3144
     -4680.8124
   1123401.51849    871285.49448  21348496.3464   21348493.3964
      -724.2504
  -1168935.19049   -911129.35947  23993596.1194   23993594.7564
       -98.3444
  -3718271.76849  -2896408.21847  23700512.8224   23700510.2014
      1804.8754
 04  9 14 21 46 15.0020000  0  8G 3G 8G13G19G23G27G10G28
   4591515.20649   3570803.99047  23851351.8144   23851349.6114
     -2558.5474
  -2325107.61349  -1810779.17948  21770043.4794   21770041.1744
       467.2814
   6475015.80049   5034513.97248  21425270.5104   21425267.5804
     -3075.5784
  -1683360.31349  -1309475.32747  23226780.3614   23226777.6114
      -139.5474
  12008078.02549   9334914.13247  24232146.4394   24232142.7294
     -4683.2974
   1134282.49349    879764.17148  21350567.1044   21350564.0844
      -726.5944
  -1167394.27649   -909928.67347  23993889.5964   23993888.1394
      -107.0314
  -3745320.99549  -2917485.48847  23695364.7364   23695363.2754
      1801.6254
 04  9 14 21 46 30.0020000  0  8G 3G 8G13G19G23G27G10G28
   4629968.65249   3600767.69547  23858669.1584   23858667.1314
     -2568.1874
  -2332082.85449  -1816214.42848  21768716.4324   21768713.7644
       463.1724
   6521213.59449   5070512.22848  21434061.9084   21434058.7294
     -3083.7814
  -1681196.74149  -1307789.41447  23227192.7684   23227188.5684
      -148.5474
  12078359.27349   9389678.62247  24245520.0644   24245516.5574
     -4687.1094
   1145211.53749    888280.30148  21352646.7214   21352644.0644
      -730.2814
  -1165711.25049   -908617.20047  23994209.8224   23994207.8224
      -116.9374
  -3772308.48349  -2938514.68847  23690230.2054   23690227.2364
      1797.0474
 04  9 14 21 46 45.0020000  0  8G 3G 8G13G19G23G27G10G28
   4668557.11249   3630836.59347  23866012.5334   23866010.4394
     -2577.0004
  -2339006.76149  -1821609.65848  21767398.4244   21767396.1194
       459.9384
   6567524.31349   5106598.49248  21442874.2294   21442871.4514
     -3091.0624
  -1678907.18249  -1306005.33047  23227627.8144   23227624.3464
      -156.7814
  12148687.58349   9444479.84047  24258902.7364   24258899.3734
     -4690.2344
   1156185.59949    896831.52048  21354735.1504   21354732.4714
      -733.0164
  -1163889.00749   -907197.27747  23994556.3694   23994555.5064
      -126.1874
  -3799237.31649  -2959498.15747  23685105.4084   23685103.1704
      1793.3594
 04  9 14 21 47  0.0020000  0  8G 3G 8G13G19G23G27G10G28
   4707281.25249   3661011.24847  23873380.2994   23873379.8424
     -2586.1724
  -2345878.39449  -1826964.18348  21766090.6584   21766088.5574
       456.2814
   6613948.68649   5142773.30348  21451708.5964   21451706.0294
     -3098.8444
  -1676490.53149  -1304122.21247  23228088.1824   23228083.8504
      -165.4224
  12219063.55749   9499318.16947  24272295.4324   24272292.2444
     -4693.4064
   1167205.68349    905418.60248  21356832.1744   21356829.3384
      -736.2664
  -1161926.51149   -905668.06247  23994929.8074   23994927.7914
      -135.5784
  -3826106.25849  -2980434.95247  23679991.9474   23679990.6664
      1789.2034
 04  9 14 21 47 15.0020000  0  8G 3G 8G13G19G23G27G10G28
   4746143.86549   3691293.77347  23880776.5104   23880775.7684
     -2595.2974
  -2352694.86249  -1832275.70048  21764793.8144   21764791.6044
       452.7504
   6660489.53049   5179038.87948  21460565.0804   21460561.8304
     -3106.3754
  -1673943.67449  -1302137.64147  23228572.5884   23228568.7754
      -174.0474
  12289489.97449   9554195.82546  24285697.1434   24285694.2994
     -4696.7344
   1178274.76749    914043.85448  21358938.5494   21358936.0104
      -739.4064
  -1159820.72849   -904027.18047  23995330.5254   23995329.2014
      -145.0784
  -3852912.23749  -3001322.68547  23674890.9164   23674889.2754
      1785.2344
 04  9 14 21 47 30.0020000  0  8G 3G 8G13G19G23G27G10G28
   4785144.13449   3721683.57147  23888197.9004   23888197.0574
     -2604.6414
  -2359456.65849  -1837544.63048  21763506.9554   21763504.7364
       449.0314
   6707146.05849   5215394.60048  21469443.7754   21469440.9164
     -3114.2504
  -1671267.04149  -1300051.93048  23229081.9324   23229077.9944
      -182.7664
  12359965.75949   9609111.98146  24299108.4794   24299105.4364
     -4699.9064
   1189392.11249    922706.71448  21361054.2834   21361051.3304
      -742.7194
  -1157572.31249   -902275.17947  23995759.2914   23995757.6544
      -154.6094
  -3879655.74349  -3022161.75347  23669801.5494   23669800.5374
      1780.8594
 04  9 14 21 47 45.0020000  0  8G 3G 8G13G19G23G27G10G28
   4824282.55949   3752181.03547  23895645.4474   23895644.3344
     -2613.7194
  -2366162.91449  -1842770.28448  21762230.8934   21762228.2444
       445.4064
   6753918.88349   5251840.94048  21478343.9474   21478340.8654
     -3121.9844
  -1668459.78049  -1297864.45247  23229616.1434   23229612.7404
      -191.3754
  12430491.66949   9664067.16247  24312529.0184   24312526.4164
     -4703.3754
   1200558.60449    931407.87548  21363179.2524   21363176.1004
      -745.8754
  -1155180.44849   -900411.38447  23996214.7134   23996212.3734
      -164.1254
  -3906336.03049  -3042951.55447  23664724.4244   23664722.8894
      1776.7504
 04  9 14 21 48  0.0020000  0  8G 3G 8G13G19G23G27G10G28
   4863551.88549   3782780.48547  23903119.1044   23903117.4324
     -2622.6254
  -2372820.83249  -1847958.27448  21760963.7994   21760961.5844
       441.9064
   6800800.87849   5288372.35648  21487265.6744   21487262.7404
     -3129.4224
  -1665528.76349  -1295580.55147  23230173.8224   23230170.4164
      -199.8594
  12501060.23249   9719055.61746  24325958.6044   24325955.1114
     -4706.2664
   1211767.00749    940141.68848  21365311.6894   21365309.1544
      -748.9374
  -1152652.20749   -898441.33047  23996695.1584   23996694.1934
      -173.4064
  -3932959.99649  -3063697.47947  23659658.0494   23659656.2794
      1772.7194
 04  9 14 21 48 15.0020000  0  8G 3G 8G13G19G23G27G10G28
   4902953.24049   3813482.83447  23910616.2994   23910615.3544
     -2631.3914
  -2379429.10549  -1853107.57248  21759706.1894   21759704.2714
       438.6724
   6847793.18349   5324989.70348  21496207.7364   21496204.9084
     -3136.7344
  -1662472.47349  -1293199.00747  23230755.8144   23230751.7754
      -208.1564
  12571672.53849   9774078.10346  24339395.0644   24339392.3694
     -4709.1414
   1223018.73349    948909.27348  21367453.0104   21367450.2054
      -751.7814
  -1149986.11949   -896363.82447  23997201.9944   23997201.3894
      -182.5314
  -3959526.12449  -3084398.32647  23654602.7684   23654601.6114
      1768.8754
 04  9 14 21 48 30.0020000  0  8G 3G 8G13G19G23G27G10G28
   4942489.35449   3844290.18147  23918139.8544   23918138.3854
     -2640.2344
  -2385984.78049  -1858215.87648  21758458.8854   21758456.8574
       435.2504
   6894898.44349   5361695.09248  21505172.2754   21505168.4324
     -3144.1254
  -1659287.92649  -1290717.54447  23231361.0804   23231357.2684
      -216.6094
  12642331.21249   9829136.74346  24352840.3144   24352838.9244
     -4712.1254
   1234316.73949    957712.90948  21369603.0024   21369599.8734
      -754.8124
  -1147179.18149   -894176.61447  23997735.2834   23997735.7014
      -191.8594
  -3986031.43549  -3105051.78547  23649559.1584   23649556.5414
      1764.8914
 04  9 14 21 48 45.0020000  0  8G 3G 8G13G19G23G27G10G28
   4982162.30549   3875204.14447  23925689.5884   23925688.1314
     -2649.2194
  -2392485.32149  -1863281.23048  21757221.7754   21757219.6664
       431.8134
   6942118.93649   5398490.26448  21514157.5024   21514154.2754
     -3151.6094
  -1655972.64449  -1288134.20748  23231991.6114   23231988.5614
      -225.0624
  12713038.28649   9884233.06846  24366295.9084   24366293.9474
     -4715.2034
   1245663.24149    966554.33248  21371762.2134   21371759.1274
      -757.8124
  -1144229.00549   -891877.75247  23998297.5964   23998296.3384
      -201.1414
  -4012473.50949  -3125655.96647  23644528.0184   23644525.6624
      1760.9224
 04  9 14 21 49  0.0020000  0  8G 3G 8G13G19G23G27G10G28
   5021968.05549   3906221.59447  23933264.2134   23933262.8734
     -2658.4694
  -2398934.85549  -1868306.83748  21755994.9084   21755992.1934
       427.9384
   6989450.50949   5435371.99248  21523164.6974   21523161.1824
     -3159.4374
  -1652530.29049  -1285451.83848  23232647.3304   23232643.7564
      -234.0624
  12783789.56949   9939363.80746  24379759.9244   24379757.6464
     -4718.5944
   1257054.31149    975430.49748  21373929.7834   21373926.8114
      -761.1874
  -1141139.43449   -889470.30347  23998885.9324   23998884.8774
      -210.9844
  -4038856.16249  -3146213.83147  23639505.9634   23639505.7754
      1756.6094
 04  9 14 21 49 15.0020000  0  8G 3G 8G13G19G23G27G10G28
   5061913.01849   3937347.51947  23940865.6584   23940863.9364
     -2667.5314
  -2405326.70449  -1873287.49648  21754778.2294   21754775.8894
       424.2664
   7036899.79949   5472345.44748  21532193.6664   21532190.3734
     -3167.0944
  -1648953.92149  -1282665.05147  23233327.2444   23233324.4984
      -242.7504
  12854591.59949   9994534.21946  24393232.9474   24393230.5374
     -4721.7814
   1268496.83249    984346.74348  21376107.6504   21376103.9554
      -764.4534
  -1137903.85649   -886949.07647  23999502.1114   23999500.2014
      -220.4534
  -4065172.50849  -3166720.04547  23634499.2834   23634496.6704
      1752.3444
 04  9 14 21 49 30.0020000  0  8G 3G 8G13G19G23G27G10G28
   5101990.34749   3968576.58647  23948491.8544   23948490.5534
     -2676.6254
  -2411667.62149  -1878228.46848  21753571.6894   21753569.2644
       420.6094
   7084460.00649   5509405.33048  21541244.3074   21541241.2874
     -3174.8284
  -1645250.25049  -1279779.05847  23234032.5574   23234029.2294
      -251.5314
  12925437.33648  10049738.52046  24406714.4474   24406711.9904
     -4725.0164
   1279983.92549    993297.72148  21378293.4004   21378290.6784
      -767.7504
  -1134528.87249   -884319.21447  24000143.6744   24000142.4284
      -230.1254
  -4091429.02849  -3187179.66347  23629502.4864   23629500.4474
      1748.0004
 04  9 14 21 49 45.0020000  0  8G 3G 8G13G19G23G27G10G28
   5142202.04449   3999910.35447  23956143.3544   23956142.9244
     -2685.2814
  -2417955.30149  -1883127.94648  21752374.8854   21752372.2754
       417.2974
   7132133.12749   5546553.20148  21550316.0494   21550313.3464
     -3182.0624
  -1641416.83349  -1276791.97148  23234762.0494   23234758.6584
      -259.9534
  12996328.91348  10104978.65245  24420203.5964   24420202.2714
     -4727.8444
   1291517.83749   1002285.19248  21380487.9794   21380485.3114
      -770.5004
  -1131012.09449   -881578.87647  24000813.7364   24000812.1394
      -239.2034
  -4117623.49949  -3207590.90047  23624517.9244   23624515.4794
      1744.1724
 04  9 14 21 50  0.0020000  0  8G 3G 8G13G19G23G27G10G28
   5182548.94749   4031349.48447  23963821.2604   23963820.9944
     -2694.0944
  -2424188.76049  -1887985.18548  21751189.0184   21751187.0144
       413.8914
   7179920.12949   5583789.81348  21559409.3614   21559406.7564
     -3189.4694
  -1637452.54049  -1273702.90348  23235516.6664   23235512.9634
      -268.5624
  13067266.91348  10160254.92646  24433703.1274   24433700.9754
     -4730.6414
   1303099.70949   1011310.01548  21382691.7294   21382689.2794
      -773.5944
  -1127352.47549   -878727.24447  24001509.8074   24001508.0844
      -248.6564
  -4143754.72349  -3227952.87247  23619544.9244   23619543.3464
      1740.1254
 04  9 14 21 50 15.0020000  0  8G 3G 8G13G19G23G27G10G28
   5223029.40449   4062892.70447  23971524.4944   23971524.1074
     -2703.0164
  -2430369.01649  -1892800.96848  21750012.9474   21750010.4514
       410.3594
   7227819.31349   5621113.82448  21568524.7994   21568521.7954
     -3196.9534
  -1633358.54449  -1270512.77248  23236296.0024   23236291.8894
      -277.2034
  13138249.84848  10215566.29346  24447211.0494   24447209.1314
     -4733.5944
   1314728.09149   1020371.09448  21384904.9474   21384901.5454
      -776.6874
  -1123551.44349   -875765.39047  24002232.3224   24002231.6044
      -257.9694
  -4169824.04649  -3248266.59847  23614584.4084   23614582.1864
      1736.0164
 04  9 14 21 50 30.0020000  0  8G 3G 8G13G19G23G27G10G28
   5263643.72049   4094540.18247  23979254.0414   23979252.6234
     -2712.1874
  -2436495.90049  -1897575.15948  21748846.6194   21748844.4434
       406.6564
   7275831.11849   5658525.60748  21577661.0184   21577657.8934
     -3204.6564
  -1629134.24549  -1267221.10648  23237099.3224   23237095.6894
      -286.0474
  13209277.80749  10270912.67646  24460728.1744   24460725.5684
     -4736.7194
   1326403.38749   1029468.71548  21387126.5024   21387123.6704
      -779.9694
  -1119608.42849   -872692.88847  24002982.5494   24002981.3384
      -267.7034
  -4195830.87149  -3268531.61847  23609636.4634   23609633.3614
      1731.6884
 04  9 14 21 50 45.0020000  0  8G 3G 8G13G19G23G27G10G28
   5304393.02449   4126292.86947  23987007.7994   23987006.7134
     -2721.2664
  -2442568.11549  -1902306.74848  21747691.1664   21747688.7684
       403.0004
   7323956.86949   5696026.17648  21586818.8074   21586815.8074
     -3212.2344
  -1624778.11949  -1263826.71747  23237928.5724   23237924.6894
      -294.9224
  13280351.99448  10326295.18046  24474252.5884   24474251.4904
     -4739.7664
   1338127.05649   1038604.04448  21389357.4324   21389354.7364
      -783.1874
  -1115521.98349   -869508.62647  24003760.2994   24003759.7484
      -277.3754
  -4221773.74749  -3288746.80747  23604698.5494   23604696.9284
      1727.3594
 04  9 14 21 51  0.0020000  0  8G 3G 8G13G19G23G27G10G28
   5345275.40649   4158149.25847  23994787.0574   23994786.5294
     -2730.0164
  -2448587.26949  -1906996.99748  21746545.8544   21746543.9164
       399.3444
   7372194.50249   5733613.92148  21595998.0334   21595995.0764
     -3219.7344
  -1620291.76549  -1260330.85347  23238781.8854   23238778.6894
      -303.5784
  13351470.23448  10381711.92645  24487786.4944   24487785.0644
     -4742.6874
   1349897.32149   1047775.67448  21391596.9864   21391594.3614
      -786.3754
  -1111293.80349   -866213.94747  24004565.5724   24004564.3114
      -286.7504
  -4247654.17349  -3308913.34147  23599774.4714   23599772.4204
      1723.1564
 04  9 14 21 51 15.0020000  0  8G 3G 8G13G19G23G27G10G28
   5386295.00249   4190112.55347  24002593.3544   24002592.6664
     -2739.2034
  -2454548.83749  -1911642.36148  21745411.5024   21745409.0494
       395.6414
   7420548.18949   5771292.10648  21605199.5964   21605196.8964
     -3227.2664
  -1615670.72049  -1256730.01447  23239661.0414   23239658.0644
      -312.5164
  13422636.785 8                  24501329.947
     -4745.922
   1361718.57249   1056987.04748  21393846.6114   21393843.9044
      -789.6564
  -1106919.53249   -862805.42547  24005397.9864   24005395.9204
      -296.3124
  -4273467.81949  -3329027.84047  23594861.4394   23594859.0414
      1718.7344
 04  9 14 21 51 30.0020000  0  8G 3G 8G13G19G23G27G10G28
   5427447.00349   4222179.04547  24010423.3384   24010423.4004
     -2748.0474
  -2460457.43049  -1916246.46748  21744287.2914   21744285.2294
       392.1414
   7469013.38349   5809057.17748  21614422.1504   21614419.4674
     -3234.7664
  -1610919.23049  -1253027.55347  23240564.8934   23240561.9904
      -321.0944
  13493846.715 8                  24514879.736
     -4748.578
   1373586.26449   1066234.58848  21396105.1744   21396102.1234
      -792.7814
  -1102403.65949   -859286.53647  24006256.5254   24006255.1624
      -305.7664
  -4299218.91049  -3349093.59947  23589961.7754   23589959.4514
      1714.6414
 04  9 14 21 51 45.0020000  0  8G 3G 8G13G19G23G27G10G28
   5468730.07649   4254347.66547  24018280.1584   24018280.0534
     -2756.3594
  -2466314.17349  -1920810.16148  21743172.8144   21743170.5104
       388.9384
   7517588.64649   5846908.01048  21623665.7444   21623662.9324
     -3241.8284
  -1606038.33449  -1249224.25647  23241494.1584   23241490.6354
      -329.5624
                                  24528439.432
     -4751.422
   1385499.31149   1075517.47848  21398371.7684   21398369.1544
      -795.4534
  -1097747.29649   -855658.21247  24007143.6504   24007141.2564
      -314.8594
  -4324908.57449  -3369111.50447  23585073.2134   23585070.5494
      1710.7814
 04  9 14 21 52  0.0020000  0  8G 3G 8G13G19G23G27G10G28
   5510146.25249   4286620.00047  24026161.0964   24026161.2794
     -2765.6254
  -2472116.99749  -1925331.83648  21742068.5414   21742066.3344
       385.0004
   7566275.99749   5884846.18248  21632931.1504   21632928.4714
     -3249.6564
  -1601025.90449  -1245318.45947  23242448.0414   23242444.2294
      -338.6254
  13636394.697 8                  24542005.869
     -4754.578
   1397459.75249   1084837.30548  21400648.1824   21400645.3034
      -799.0164
  -1092948.24349   -851918.68447  24008055.8224   24008054.3034
      -324.6874
  -4350534.53549  -3389079.75047  23580196.4634   23580193.8074
      1706.1414
 04  9 14 21 52 15.0020000  0  8G 3G 8G13G19G23G27G10G28
   5551697.39549   4318997.51147  24034068.5804   24034067.8964
     -2774.5164
  -2477863.57049  -1929809.68548  21740975.3304   21740973.0334
       381.4064
   7615077.47649   5922873.29548  21642217.5024   21642214.1824
     -3257.0944
  -1595879.53049  -1241308.29747  23243427.8774   23243423.8304
      -347.4064
  13707736.45418                  24555583.213
     -4757.391
   1409469.84749   1094195.81648  21402933.5724   21402930.6784
      -802.1724
  -1088004.22649   -848066.20047  24008996.3934   24008995.6864
      -334.2344
  -4376094.44249  -3408996.53147  23575332.4164   23575330.7684
      1701.8754
 04  9 14 21 52 30.0020000  0  8G 3G 8G13G19G23G27G10G28
   5593376.79049   4351474.94147  24041999.1354   24041998.9984
     -2783.3444
  -2483560.42249  -1934248.78748  21739890.9864   21739888.4904
       377.7344
   7663986.50749   5960984.20848  21651524.5334   21651521.3814
     -3264.5624
  -1590605.48849  -1237198.64447  23244430.8464   23244427.7714
      -356.2664
  13779117.374 8                  24569165.604
     -4760.687
   1421523.13449   1103587.99448  21405226.9864   21405224.2444
      -805.3444
  -1082921.72149   -844105.81047  24009963.6434   24009963.3224
      -343.9064
  -4401594.74549  -3428866.86947  23570479.8304   23570476.9124
      1697.7194
 04  9 14 21 52 45.0020000  0  8G 3G 8G13G19G23G27G10G28
   5635188.35749   4384055.38647  24049956.2524   24049954.9434
     -2791.7344
  -2489203.74249  -1938646.16948  21738816.9244   21738814.2484
       374.5474
   7713006.90849   5999181.90348  21660853.0414   21660849.9474
     -3271.6414
  -1585199.61449  -1232986.27147  23245459.6894   23245455.9594
      -364.6874
  13850541.153 8                  24582757.049
     -4762.906
   1433623.67249   1113016.97848  21407530.1584   21407527.2954
      -808.1414
  -1077696.51949   -840034.22647  24010959.1354   24010956.6274
      -353.0474
  -4427031.34149  -3448687.56247  23565638.8934   23565637.5104
      1693.7504
 04  9 14 21 53  0.0020000  0  8G 3G 8G13G19G23G27G10G28
   5677130.96449   4416737.92547  24057936.7214   24057937.0414
     -2800.7814
  -2494794.15649  -1943002.32748  21737753.0334   21737750.7994
       370.7194
   7762137.59349   6037465.52948  21670202.4394   21670199.7324
     -3279.2814
  -1579662.72049  -1228671.80647  23246514.0254   23246510.4044
      -373.7504
  13922006.717 8                  24596357.814
     -4766.156
   1445770.48749   1122482.02148  21409841.1114   21409838.6234
      -811.6094
  -1072329.53949   -835852.17347  24011980.6354   24011978.2524
      -362.7034
  -4452404.91449  -3468459.15647  23560811.6354   23560808.9004
      1689.2664
 04  9 14 21 53 15.0020000  0  8G 3G 8G13G19G23G27G10G28
   5719204.44949   4449522.43347  24065943.9084   24065943.2054
     -2808.9534
  -2500331.46149  -1947317.10548  21736699.2134   21736696.9004
       367.6414
   7811378.45849   6075835.02448  21679572.3854   21679569.1154
     -3286.1094
  -1573994.67049  -1224255.12847  23247591.7604   23247588.5064
      -382.0784
  13993513.815 8                  24609964.627
     -4768.391
   1457963.72049   1131983.25148  21412161.5334   21412158.7444
      -814.1414
  -1066820.87249   -831559.69047  24013029.5334   24013026.2484
      -371.7034
  -4477715.31749  -3488181.51247  23555994.4394   23555992.6314
      1685.5944
 04  9 14 21 53 30.0020000  0  7G 3G 8G13G19G27G10G28
   5761412.15249   4482411.52147  24073975.5574   24073974.6354
     -2818.2664
  -2505812.30849  -1951587.89048  21735656.3694   21735654.3074
       363.4694
   7860732.98549   6114293.07748  21688964.4084   21688961.5494
     -3294.1094
  -1568191.59049  -1219733.25247  23248695.5334   23248692.6504
      -391.3284
   1470206.99049   1141523.45948  21414491.2754   21414488.5024
      -817.8594
  -1061166.63549   -827153.80847  24014105.1434   24014102.5334
      -381.7664
  -4502958.76649  -3507851.70247  23551190.8074   23551188.4514
      1680.6564
 04  9 14 21 53 45.0020000  0  7G 3G 8G13G19G27G10G28
   5803747.53849   4515400.13747  24082029.9864   24082030.8854
     -2826.5474
  -2511242.94249  -1955819.54748  21734622.9714   21734620.9594
       360.5164
   7910194.72749   6152834.68048  21698376.1194   21698373.8304
     -3300.9224
  -1562259.60349  -1215110.91448  23249825.7524   23249821.5884
      -399.6254
   1482494.01749   1151097.76548  21416829.6194   21416826.8344
      -820.4224
  -1055373.13449   -822639.37447  24015206.6824   24015204.7134
      -390.7034
  -4528141.49049  -3527474.58247  23546398.4164   23546395.9204
      1676.9064
 04  9 14 21 54  0.0020000  0  7G 3G 8G13G19G27G10G28
   5846208.59949   4548486.66147  24090111.9324   24090111.0184
     -2834.7194
  -2516625.01349  -1960013.37748  21733598.6824   21733596.6194
       357.4064
   7959761.77649   6191458.33848  21707808.8934   21707805.7294
     -3307.7194
  -1556200.45549  -1210389.49548  23250977.9634   23250974.4124
      -408.0164
   1494822.92449   1160704.69248  21419175.8144   21419172.8264
      -823.1414
  -1049442.19249   -818017.86347  24016335.5104   24016334.6114
      -399.7504
  -4553265.13549  -3547051.42147  23541617.7754   23541615.4794
      1673.1884
 04  9 14 21 54 15.0020000  0  7G 3G 8G13G19G27G10G28
   5888799.77249   4581674.55047  24098217.0804   24098215.7254
     -2844.2344
  -2521953.88749  -1964165.74248  21732584.5964   21732582.4824
       353.0944
   8009438.66949   6230167.59848  21717262.0104   21717259.8424
     -3315.9064
  -1550009.35249  -1205565.24748  23252156.6114   23252152.5884
      -417.5314
   1507198.46549   1170347.96948  21421530.1504   21421527.8034
      -827.0004
  -1043369.26749   -813285.73947  24017490.1824   24017489.0684
      -410.0164
  -4578324.96149  -3566578.51547  23536849.0574   23536846.4794
      1668.1094
 04  9 14 21 54 30.0020000  0  7G 3G 8G13G19G27G10G28
   5931525.67949   4614967.43847  24106347.1824   24106346.9474
     -2852.5944
  -2527224.69149  -1968272.86048  21731581.7364   21731580.2054
       349.6724
   8059230.04649   6268966.03248  21726736.9554   21726734.7484
     -3323.0624
  -1543681.24249  -1200634.25448  23253360.0024   23253356.9794
      -426.2194
   1519625.51249   1180031.38448  21423895.3854   21423893.0684
      -829.9844
  -1037149.40049   -808439.07747  24018675.2914   24018673.1464
      -419.3284
  -4603315.86549  -3586051.91747  23532093.3384   23532090.8694
      1663.9384
 04  9 14 21 54 45.0020000  0  7G 3G 8G13G19G27G10G28
   5974376.49249   4648357.65347  24114501.6354   24114500.9244
     -2860.7504
  -2532447.15949  -1972342.30048  21730588.4324   21730585.8854
       346.6564
   8109125.99349   6307845.98648  21736232.3614   21736228.8424
     -3329.8284
  -1537225.59349  -1195603.87148  23254589.6274   23254584.9434
      -434.5624
   1532094.39749   1189747.39648  21426267.9714   21426265.5254
      -832.5474
  -1030792.17649   -803485.39047  24019884.7294   24019883.0724
      -428.2034
  -4628247.63749  -3605479.23247  23527349.4164   23527346.6154
      1660.2814
 04  9 14 21 55  0.0020000  0  7G 3G 8G13G19G27G10G28
   6017353.93549   4681846.53547  24122679.8464   24122679.1314
     -2869.7344
  -2537619.09449  -1976372.37948  21729603.6584   21729601.0064
       342.7664
   8159128.38649   6346808.87448  21745747.2294   21745743.8184
     -3337.3754
  -1530640.32049  -1190472.49048  23255842.3144   23255838.0964
      -443.7194
   1544607.12149   1199497.56148  21428649.1114   21428646.6744
      -835.9694
  -1024295.48249   -798423.04447  24021121.2134   24021119.0184
      -438.2344
  -4653117.99349  -3624858.72847  23522616.6974   23522613.4004
      1655.5944
 04  9 14 21 55 15.0020000  0  7G 3G 8G13G19G27G10G28
   6060465.24649   4715439.73747  24130884.1744   24130883.4244
     -2878.5474
  -2542733.15149  -1980357.35648  21728630.4864   21728627.9474
       339.0004
   8209244.55649   6385860.41448  21755283.8304   21755280.8344
     -3344.9224
  -1523917.85549  -1185234.21248  23257121.8854   23257116.8424
      -452.8444
   1557171.21249   1209287.75948  21431040.3614   21431037.4084
      -839.3124
  -1017651.89949   -793246.19447  24022383.8304   24022383.3464
      -447.8594
  -4677919.42849  -3644184.49347  23517896.6824   23517894.6464
      1651.1414
 04  9 14 21 55 30.0020000  0  7G 3G 8G13G19G27G10G28
   6103705.51649   4749133.44247  24139112.2914   24139111.1154
     -2886.9224
  -2547793.85449  -1984300.75748  21727667.5024   21727665.0454
       335.6094
   8259469.58749   6424996.77648  21764841.4164   21764838.7404
     -3351.9224
  -1517062.85449  -1179892.64348  23258426.2364   23258421.8074
      -461.4224
   1569781.96249   1219114.31248  21433440.0574   21433437.4324
      -842.2194
  -1010866.12749   -787958.59047  24023674.8694   24023674.0144
      -457.0314
  -4702656.53949  -3663460.12447  23513189.2604   23513186.4004
      1647.0784
 04  9 14 21 55 45.0020000  0  7G 3G 8G13G19G27G10G28
   6147078.10049   4782930.24347  24147365.8144   24147364.6314
     -2896.1254
  -2552797.60849  -1988199.78048  21726715.3614   21726713.1744
       331.4844
   8309806.83449   6464220.59148  21774420.2604   21774416.7604
     -3359.7814
  -1510071.50849  -1174444.84448  23259756.8224   23259751.9324
      -470.8284
   1582443.01849   1228980.07448  21435848.9324   21435846.5024
      -846.0004
  -1003934.55949   -782557.34747  24024994.3074   24024993.9634
      -467.1874
  -4727325.58049  -3682682.72147  23508494.6354   23508493.4904
      1642.1724
 04  9 14 21 56  0.0020000  0  7G 3G 8G13G19G27G10G28
   6190579.94149   4816827.76847  24155643.1434   24155643.5104
     -2904.4064
  -2557747.17549  -1992056.59448  21725773.7604   21725771.1974
       328.1724
   8360253.28549   6503529.49148  21784019.8464   21784016.8574
     -3366.7034
  -1502946.45049  -1168892.85248  23261112.5184   23261108.5454
      -479.4534
   1595151.50149   1238882.78348  21438267.6974   21438265.2174
      -848.7504
   -996859.93349   -777044.66347  24026340.4944   24026339.8934
      -476.4374
  -4751929.21349  -3701854.37147  23503813.5724   23503811.2604
      1638.1884
 04  9 14 21 56 15.0020000  0  7G 3G 8G13G19G27G10G28
   6234210.48649   4850825.55247  24163946.2294   24163945.3774
     -2912.9224
  -2562643.12849  -1995871.60448  21724841.8694   21724839.4824
       324.6884
   8410808.71149   6542923.31348  21793640.0574   21793636.8814
     -3373.9064
  -1495687.98849  -1163236.90448  23262493.3694   23262489.4124
      -488.2664
   1607907.13249   1248822.22348  21440694.9164   21440691.9394
      -851.8594
   -989642.60649   -771420.75847  24027714.6354   24027712.9754
      -485.8124
  -4776467.71749  -3720975.24647  23499143.6044   23499140.9124
      1633.8914
 04  9 14 21 56 30.0020000  0  7G 3G 8G13G19G27G10G28
   6277967.88749   4884922.21047  24172273.5334   24172272.7994
     -2921.4374
  -2567487.02149  -1999646.06448  21723920.0184   21723917.6274
       321.2344
   8461471.25049   6582400.60048  21803281.3854   21803278.0494
     -3381.0474
  -1488297.63249  -1157478.17948  23263900.1824   23263896.7444
      -497.0474
   1620708.33249   1258797.19148  21443131.0104   21443127.9714
      -854.8754
   -982284.09549   -765686.84847  24029113.8384   24029113.6004
      -495.2664
  -4800942.39949  -3740046.40647  23494486.6434   23494483.5684
      1629.5944
 04  9 14 21 56 45.0020000  0  7G 3G 8G13G19G27G10G28
   6321853.97849   4919119.15447  24180623.3384   24180624.2444
     -2930.2664
  -2572276.59749  -2003378.20048  21723008.5644   21723006.3614
       317.2814
   8512242.70349   6621962.76148  21812942.6504   21812939.8654
     -3388.6564
  -1480773.15849  -1151614.95248  23265331.9164   23265328.2254
      -506.3284
   1633557.06249   1268809.17748  21445575.6434   21445572.9594
      -858.3594
   -974782.51449   -759841.44847  24030542.2914   24030541.3184
      -505.0004
  -4825351.40149  -3759066.38747  23489841.7294   23489838.9044
      1624.8754
 04  9 14 21 57  0.0020000  0  7G 3G 8G13G19G27G10G28
   6365867.49749   4953415.38047  24188998.8074   24188999.2214
     -2938.4534
  -2577012.92349  -2007068.83348  21722107.5644   21722104.6704
       314.0634
   8563121.89749   6661608.85548  21822624.8224   21822621.5804
     -3395.4534
  -1473115.43649  -1145647.89548  23266789.0644   23266784.7604
      -514.9224
   1646452.40049   1278857.50048  21448029.6894   21448026.9904
      -861.2034
   -967138.68749   -753885.20147  24031996.3464   24031995.3464
      -514.2504
  -4849695.48449  -3778035.77347  23485208.6504   23485206.4324
      1620.8594
 04  9 14 21 57 15.0020000  0  7G 3G 8G13G19G27G10G28
   6410012.16249   4987813.80647  24197399.7994   24197398.7444
     -2947.2664
  -2581692.00949  -2010714.86748  21721216.8304   21721214.3774
       310.1254
   8614112.60349   6701341.86648  21832327.6274   21832324.8814
     -3403.0164
  -1465320.35749  -1139573.78547  23268272.2524   23268268.0294
      -524.1724
   1659398.40949   1288945.28648  21450493.1044   21450490.8344
      -864.6724
   -959348.62249   -747815.03847  24033478.5494   24033478.1354
      -524.1724
  -4873970.44549  -3796951.28747  23480588.9004   23480587.0454
      1616.0634
 04  9 14 21 57 30.0020000  0  7G 3G 8G13G19G27G10G28
   6454285.39149   5022312.40847  24205824.1974   24205824.5144
     -2956.6724
  -2586316.41149  -2014318.29348  21720336.5254   21720334.5614
       305.6254
   8665212.33949   6741159.82548  21842051.8304   21842048.7684
     -3411.1414
  -1457390.24049  -1133394.47248  23269781.5024   23269777.8894
      -534.0164
   1672392.55849   1299070.58948  21452966.2684   21452963.2134
      -868.7194
   -951414.81649   -741632.84447  24034989.6194   24034987.5964
      -534.5624
  -4898178.74149  -3815814.89647  23475982.7134   23475979.6864
      1610.8444
 04  9 14 21 57 45.0020000  0  7G 3G 8G13G19G27G10G28
   6498687.53549   5056911.47147  24214273.3384   24214273.9004
     -2963.9694
  -2590885.34549  -2017878.48748  21719467.6354   21719464.8074
       303.1724
   8716421.55549   6781063.07448  21851796.8384   21851793.9044
     -3417.1874
  -1449324.44049  -1127109.41447  23271316.0884   23271312.1864
      -541.7504
   1685435.63149   1309234.03048  21455447.8464   21455445.2604
      -870.7504
   -943336.57749   -735338.12547  24036525.3614   24036525.0644
      -542.8754
  -4922319.61249  -3834625.92747  23471389.1504   23471386.9514
      1607.5944
 04  9 14 21 58  0.0020000  0  7G 3G 8G13G19G27G10G28
   6543213.52549   5091607.04047  24222747.3074   24222746.6114
     -2972.7344
  -2595403.38049  -2021399.03248  21718607.6044   21718605.3224
       299.2974
   8767735.37949   6821047.85548  21861561.1584   21861558.2324
     -3424.6094
  -1441127.39149  -1120722.09848  23272875.9714   23272872.2714
      -551.0164
   1698522.78449   1319431.80748  21457938.6044   21457935.4474
      -874.1254
   -935118.55649   -728934.45047  24038090.6434   24038088.0644
      -552.6724
  -4946397.64249  -3853387.98647  23466806.7604   23466804.3344
      1602.8754
 04  9 14 21 58 15.0020000  0  7G 3G 8G13G19G27G10G28
   6587866.45249   5126401.50547  24231244.7914   24231244.5764
     -2981.0004
  -2599867.21149  -2024877.32848  21717758.3224   21717755.7094
       295.8914
   8819156.79849   6861116.48348  21871346.4714   21871343.8144
     -3431.6254
  -1432795.67949  -1114229.84848  23274460.5334   23274457.6934
      -559.9224
   1711657.58249   1329666.71548  21460438.0024   21460435.3574
      -877.1874
   -926757.48049   -722419.35847  24039681.9324   24039679.4394
      -562.1724
  -4970409.40949  -3872098.43147  23462237.2994   23462235.3344
      1598.6094
 04  9 14 21 58 30.0020000  0  7G 3G 8G13G19G27G10G28
   6632647.70949   5161295.99447  24239766.3934   24239766.0254
     -2989.7664
  -2604275.17749  -2028312.10648  21716919.7604   21716917.2794
       292.0004
   8870687.40249   6901270.16648  21881152.6114   21881149.4004
     -3439.0314
  -1424327.62549  -1107631.35248  23276072.8304   23276069.0804
      -569.1564
   1724841.43049   1339939.83148  21462946.6274   21462943.9904
      -880.6564
   -918251.73949   -715791.48547  24041298.7914   24041297.6934
      -571.9694
  -4994353.12849  -3890755.85847  23457681.3144   23457678.3264
      1593.9384
 04  9 14 21 58 45.0020000  0  7G 3G 8G13G19G27G10G28
   6677555.70649   5196289.20747  24248312.5414   24248311.4904
     -2998.0314
  -2608628.67249  -2031704.42848  21716090.9394   21716088.4714
       288.5004
   8922325.49249   6941507.62148  21890978.6044   21890975.6584
     -3445.9844
  -1415724.47949  -1100927.59548  23277710.1504   23277706.1154
      -577.9844
   1738072.97749   1350250.13348  21465464.8934   21465461.9044
      -883.5784
   -909602.66149   -709051.94947  24042945.1044   24042943.8424
      -581.2814
  -5018230.14149  -3909361.29247  23453137.2364   23453134.8144
      1589.6724
 04  9 14 21 59  0.0020000  0  7G 3G 8G13G19G27G10G28
   6722593.17249   5231383.34147  24256882.8304   24256882.3344
     -3006.4224
  -2612924.62349  -2035051.92248  21715273.6194   21715271.1394
       284.8914
   8974073.87349   6981831.01648  21900826.6504   21900823.1744
     -3453.0944
  -1406983.23449  -1094116.23948  23279373.4004   23279369.4204
      -586.9064
   1751355.26249   1360599.96548  21467992.1114   21467989.4164
      -886.6874
   -900807.37449   -702198.46547  24044619.8694   24044617.3304
      -590.7974
  -5042037.53249  -3927912.49047  23448607.3934   23448604.8424
      1585.2034
 04  9 14 21 59 15.0020000  0  7G 3G 8G13G19G27G10G28
   6767752.71049   5266572.57547  24265475.7364   24265475.3614
     -3014.5784
  -2617170.47349  -2038360.37348  21714465.3074   21714462.9794
       281.5944
   9025925.09949   7022234.56348  21910693.5414   21910690.1464
     -3459.9694
  -1398111.00549  -1087202.79748  23281061.5724   23281057.7754
      -595.6564
   1764681.05249   1370983.68648  21470528.0724   21470525.1544
      -889.6094
   -891873.04249   -695236.65147  24046320.2294   24046317.8034
      -600.0624
  -5065782.29349  -3946414.88047  23444088.6664   23444086.1044
      1581.0474
 04  9 14 21 59 30.0020000  0  7G 3G 8G13G19G27G10G28
   6813031.98749   5301855.12847  24274092.2604   24274092.3114
     -3022.7664
  -2621368.20749  -2041631.32448  21713666.8224   21713664.3614
       278.0634
   9077877.04049   7062716.56948  21920579.2834   21920576.3184
     -3467.0474
  -1389109.76849  -1080188.84748  23282774.4944   23282771.0294
      -604.6414
   1778048.36449   1381399.78248  21473071.7054   21473068.3184
      -892.8124
   -882801.74649   -688168.09947  24048045.7684   24048044.2834
      -609.5314
  -5089466.22949  -3964869.87647  23439581.3384   23439579.0764
      1576.6414
 04  9 14 21 59 45.0020000  0  7G 3G 8G13G19G27G10G28
   6858438.54449   5337236.83347  24282733.0414   24282732.8144
     -3031.3754
  -2625509.84249  -2044858.56848  21712878.6664   21712876.3114
       274.1254
   9129937.39949   7103283.06448  21930485.9714   21930483.7484
     -3474.3444
  -1379971.47349  -1073068.08948  23284513.1744   23284510.3264
      -613.8444
   1791465.13149   1391854.40048  21475624.7684   21475622.1354
      -896.1874
   -873585.67549   -680986.76447  24049800.1114   24049798.3544
      -619.2814
  -5113081.48349  -3983271.34247  23435088.0414   23435085.6434
      1571.9844
 04  9 14 22  0  0.0020000  0  7G 3G 8G13G19G27G10G28
   6903968.40749   5372714.63947  24291396.8074   24291397.7174
     -3039.6564
  -2629598.97149  -2048044.90348  21712100.4324   21712098.0214
       270.7194
   9182102.24049   7143930.96648  21940413.1274   21940410.0644
     -3481.3444
  -1370699.75649  -1065843.36848  23286277.9944   23286274.2834
      -622.7034
   1804927.44749   1402344.51348  21478186.7364   21478183.8034
      -899.1414
   -864228.54149   -673695.48147  24051579.9634   24051579.0294
      -628.6414
  -5136631.66549  -4001622.11747  23430606.1974   23430603.5104
      1567.5944
 04  9 14 22  0 15.0020000  0  7G 3G 8G13G19G27G10G28
   6949628.53749   5408293.93947  24300085.4084   24300086.2134
     -3048.8594
  -2633628.48449  -2051184.77148  21711333.4794   21711331.3774
       266.1724
   9234378.53749   7184665.72648  21950360.7214   21950357.0104
     -3489.3124
  -1361287.32649  -1058509.00648  23288068.9394   23288065.5144
      -632.6874
   1818442.67049   1412875.86348  21480758.5884   21480755.5614
      -903.2814
   -854723.12849   -666288.70247  24053389.1744   24053387.2994
      -639.1094
  -5160109.52549  -4019916.52247  23426137.9944   23426135.8114
      1562.2814
 04  9 14 22  0 30.0030000  0  7G 3G 8G13G19G27G10G28
   6995418.39549   5443974.33547  24308799.8904   24308799.3354
     -3056.4224
  -2637602.08149  -2054281.07948  21710577.3044   21710574.8354
       263.2034
   9286766.23749   7225487.29648  21960329.6244   21960327.1474
     -3495.6414
  -1351736.78949  -1051067.02448  23289886.7264   23289882.7924
      -640.9844
   1832008.31049   1423446.49248  21483340.1324   21483337.2024
      -905.7194
   -845072.16049   -658768.43947  24055225.8274   24055223.8824
      -647.9224
  -5183519.87049  -4038158.33147  23421684.3354   23421681.8044
      1558.4844
 04  9 14 22  0 45.0030000  0  7G 3G 8G13G19G27G10G28
   7041323.44549   5479744.47947  24317534.1714   24317534.8944
     -3064.1414
  -2641527.22949  -2057339.62348  21709830.6084   21709828.2964
       260.2034
   9339249.87449   7266383.61748  21970316.6944   21970314.2494
     -3502.0624
  -1342057.50249  -1043524.73148  23291728.3194   23291724.8904
      -649.4374
   1845614.47649   1434048.68848  21485929.2414   21485926.3664
      -908.3124
   -835285.10649   -651142.17147  24057088.4604   24057086.7334
      -656.8124
  -5206867.66449  -4056351.39747  23417240.7964   23417237.6084
      1554.6414
 04  9 14 22  1  0.0030000  0  7G 3G 8G13G19G27G10G28
   7087351.93249   5515610.79447  24326293.5624   24326294.2334
     -3072.3754
  -2645398.94749  -2060356.54348  21709093.9374   21709091.3124
       256.7034
   9391838.39249   7307361.65248  21980324.6164   21980321.1084
     -3509.0314
  -1332243.33749  -1035877.31048  23293595.9684   23293591.7694
      -658.4224
   1859267.43749   1444687.35248  21488527.2574   21488524.5154
      -911.3914
   -825355.97449   -643405.16147  24058978.1794   24058976.1014
      -666.3594
  -5230148.87749  -4074492.57947  23412810.4054   23412807.7724
      1550.1094
 04  9 14 22  1 15.0030000  0  7G 3G 8G13G19G27G10G28
   7133504.90849   5551574.13747  24335076.3824   24335076.8004
     -3080.8754
  -2649215.52949  -2063330.49348  21708367.6404   21708365.1874
       252.7194
   9444532.91549   7348422.30848  21990351.5224   21990349.0774
     -3516.4534
  -1322292.72849  -1028123.59448  23295488.5694   23295484.9994
      -667.8124
   1872968.59249   1455363.58248  21491134.1474   21491131.4874
      -914.9224
   -815283.27149   -635556.30247  24060894.6244   24060893.1324
      -676.2504
  -5253362.15549  -4092580.81047  23408393.7024   23408390.6444
      1545.3754
 04  9 14 22  1 30.0030000  0  7G 3G 8G13G19G27G10G28
   7179777.70749   5587630.85547  24343882.1324   24343882.4684
     -3088.7814
  -2652981.46049  -2066264.97748  21707651.0224   21707648.4404
       249.4064
   9497328.89549   7389562.00548  22000398.9524   22000395.3314
     -3523.0944
  -1312209.87449  -1020266.81448  23297408.2104   23297404.8194
      -676.6254
   1886713.65449   1466074.02348  21493750.0304   21493747.4994
      -917.8444
   -805071.40849   -627598.99047  24062836.8124   24062836.2654
      -685.4694
  -5276511.47549  -4110619.21447  23403987.4994   23403985.3624
      1541.2504
 04  9 14 22  1 45.0030000  0  7G 3G 8G13G19G27G10G28
   7226171.41949   5623781.77147  24352710.4214   24352710.0934
     -3097.1094
  -2656695.60649  -2069159.10948  21706944.2804   21706941.8124
       245.7504
   9550227.32749   7430781.56248  22010465.1404   22010461.8004
     -3530.0944
  -1301993.60349  -1012306.08448  23299352.3744   23299347.9214
      -685.6724
   1900503.94549   1476819.69448  21496374.1634   21496371.3544
      -920.9224
   -794719.15949   -619532.31847  24064807.3974   24064806.7764
      -695.0314
  -5299595.66149  -4128606.86147  23399595.4374   23399592.5464
      1536.7034
 04  9 14 22  2  0.0030000  0  7G 3G 8G13G19G27G10G28
   7272689.70649   5660029.79247  24361562.5774   24361562.2064
     -3105.4844
  -2660353.91349  -2072009.72948  21706247.9374   21706245.7884
       241.8594
   9603232.08849   7472083.95448  22020551.5304   22020548.2024
     -3537.3444
  -1291639.83149  -1004238.20148  23301321.6324   23301318.7374
      -694.9374
   1914343.41949   1487603.71348  21499007.5544   21499004.8664
      -924.4374
   -784222.52149   -611353.11247  24066804.7334   24066803.2144
      -704.6724
  -5322610.60749  -4146540.56047  23395215.6714   23395213.0544
      1531.8444
 04  9 14 22  2 15.0030000  0  7G 3G 8G13G19G27G10G28
   7319331.29149   5696373.87747  24370438.2724   24370438.1474
     -3113.8594
  -2663957.25449  -2074817.51848  21705561.9294   21705559.4174
       238.1254
   9656341.77849   7513468.09848  22030657.5934   22030654.6164
     -3544.4224
  -1281149.56849   -996063.96548  23303318.2024   23303315.1984
      -704.1874
   1928230.86749   1498425.09048  21501650.3584   21501647.3974
      -927.6874
   -773582.69149   -603062.33247  24068828.7724   24068828.1754
      -714.3124
  -5345557.32949  -4164421.10847  23390849.1324   23390845.5074
      1527.1884
 04  9 14 22  2 30.0030000  0  7G 3G 8G13G19G27G10G28
   7366097.70549   5732815.22147  24379337.4834   24379337.6674
     -3121.9844
  -2667504.06849  -2077581.27948  21704887.3824   21704885.0264
       234.4694
   9709558.07649   7554935.32648  22040784.5304   22040781.7024
     -3551.4694
  -1270520.98049   -987781.94648  23305340.9444   23305337.3044
      -713.2504
   1942168.27549   1509285.39448  21504302.7264   21504300.2574
      -930.9534
   -762797.95349   -594658.63847  24070882.1014   24070880.3234
      -723.9374
  -5368434.10749  -4182247.14647  23386495.8124   23386493.6754
      1522.6094
 04  9 14 22  2 45.0030000  0  7G 3G 8G13G19G27G10G28
   7412984.97249   5769350.75347  24388260.8354   24388260.2654
     -3129.6564
  -2670997.75349  -2080303.62748  21704222.4834   21704220.1984
       231.3444
   9762877.12549   7596482.62748  22050930.5774   22050928.6164
     -3557.8444
  -1259757.44549   -979394.77647  23307389.3354   23307385.4834
      -721.8594
   1956151.91649   1520181.73748  21506963.7724   21506960.8354
      -933.6414
   -751871.97949   -586144.90047  24072961.5304   24072960.1754
      -733.0004
  -5391244.33949  -4200021.31447  23382154.3974   23382152.1794
      1518.5944
 04  9 14 22  3  0.0030000  0  7G 3G 8G13G19G27G10G28
   7459994.38549   5805981.44847  24397205.3904   24397205.3664
     -3138.1724
  -2674436.83549  -2082983.41948  21703568.2964   21703566.0424
       227.3134
   9816300.26249   7638111.01648  22061096.8904   22061093.9484
     -3565.1564
  -1248857.45649   -970901.27147  23309463.6634   23309459.8514
      -731.4064
   1970183.35349   1531115.32848  21509633.3434   21509630.8664
      -937.2194
   -740803.25049   -577519.90447  24075067.1014   24075066.1014
      -742.7504
  -5413986.41249  -4217742.39047  23377827.2264   23377824.6834
      1513.6884
 04  9 14 22  3 15.0030000  0  7G 3G 8G13G19G27G10G28
   7507123.48949   5842705.42147  24406174.2724   24406174.2374
     -3145.8594
  -2677823.35249  -2085622.25948  21702923.8194   21702921.5624
       224.1094
   9869825.09749   7679818.65948  22071282.6634   22071279.9724
     -3571.5784
  -1237823.06349   -962303.04248  23311563.0384   23311558.8624
      -740.0164
   1984260.50749   1542084.53648  21512312.5384   21512310.0344
      -939.9064
   -729593.82849   -568785.29347  24077200.3974   24077199.4794
      -751.8124
  -5436662.34449  -4235411.92247  23373512.2494   23373509.4254
      1509.6254
 04  9 14 22  3 30.0030000  0  7G 3G 8G13G19G27G10G28
   7554373.79749   5879523.85247  24415165.4134   24415165.4914
     -3154.2814
  -2681155.78349  -2088218.94448  21702289.4604   21702287.3004
       220.0944
   9923453.23549   7721606.78548  22081487.7494   22081485.0034
     -3578.9374
  -1226652.44849   -953598.65548  23313688.7804   23313685.0464
      -749.5474
   1998385.09249   1553090.71648  21515000.7024   21514997.4644
      -943.5314
   -718241.99249   -559939.69647  24079360.5774   24079358.9834
      -761.7974
  -5459270.29749  -4253028.48347  23369210.0694   23369207.5544
      1504.7194
 04  9 14 22  3 45.0030000  0  7G 3G 8G13G19G27G10G28
   7601748.90949   5916439.49847  24424180.2494   24424180.8704
     -3162.6254
  -2684430.07249  -2090770.34048  21701666.6714   21701664.0544
       216.2344
   9977188.37849   7763478.31548  22091713.0154   22091710.2694
     -3586.0004
  -1215341.73049   -944785.10548  23315841.7264   23315837.9094
      -758.7974
   2012561.06549   1564136.92348  21517697.8274   21517695.4294
      -946.8594
   -706743.89549   -550980.14347  24081548.1014   24081545.9444
      -771.5164
  -5481806.33449  -4270589.00147  23364922.1014   23364918.8864
      1499.8754
 04  9 14 22  4  0.0030000  0  7G 3G 8G13G19G27G10G28
   7649244.01649   5953448.66147  24433217.9524   24433218.5074
     -3170.1724
  -2687650.65949  -2093279.88348  21701053.8514   21701051.2694
       213.0004
  10031025.87349   7805429.59448  22101958.5384   22101955.3234
     -3592.4374
  -1203895.14449   -935865.68448  23318019.4294   23318016.0194
      -767.5944
   2026783.97449   1575219.70748  21520404.5224   21520402.0814
      -949.7194
   -695103.99149   -541910.11047  24083763.8584   24083761.3944
      -780.6254
  -5504274.78749  -4288096.85847  23360645.7494   23360643.0264
      1495.7814
 04  9 14 22  4 15.0030000  0  7G 3G 8G13G19G27G10G28
   7696853.95049   5990547.27847  24442278.6244   24442278.1514
     -3177.8594
  -2690822.44649  -2095751.40548  21700450.2574   21700447.5584
       209.7504
  10084960.45949   7847456.51248  22112220.9914   22112218.7724
     -3598.9374
  -1192317.75849   -926844.34948  23320222.7804   23320218.3194
      -776.2664
   2041048.71749   1586335.09148  21523119.4524   21523116.6754
      -952.4064
   -683327.49449   -532733.59347  24086004.1944   24086002.7064
      -789.7194
  -5526680.59749  -4305555.91447  23356382.6324   23356379.4724
      1491.6094
 04  9 14 22  4 30.0030000  0  7G 3G 8G13G19G27G10G28
   7744582.04749   6027738.00047  24451360.8044   24451360.5304
     -3185.7664
  -2693941.91449  -2098182.13948  21699856.3274   21699853.7264
       206.2344
  10138995.44049   7889561.65748  22122503.9294   22122500.7534
     -3605.6724
  -1180605.92049   -917718.23547  23322451.1874   23322447.3234
      -785.2814
   2055358.95749   1597485.93348  21525842.5304   21525839.4094
      -955.5474
   -671410.71849   -523447.78347  24088271.3194   24088270.5654
      -799.0004
  -5549020.13149  -4322963.32247  23352130.9684   23352128.3194
      1487.0944
 04  9 14 22  4 45.0030000  0  7G 3G 8G13G19G27G10G28
   7792433.05749   6065024.45047  24460467.0694   24460467.3154
     -3193.8594
  -2697004.17149  -2100568.30848  21699273.5774   21699271.0464
       202.5314
  10193135.82149   7931748.94648  22132806.0304   22132802.9954
     -3612.5784
  -1168754.44449   -908483.31347  23324707.1634   23324702.7374
      -794.4694
   2069719.80149   1608676.20148  21528574.9604   21528572.2494
      -958.7344
   -659348.72349   -514048.85347  24090567.8514   24090565.7414
      -808.6724
  -5571288.20849  -4340315.04147  23347893.3044   23347890.8584
      1482.4224
 04  9 14 22  5  0.0030000  0  7G 3G 8G13G19G27G10G28
   7840401.40249   6102402.35747  24469594.1634   24469595.3314
     -3202.0784
  -2700014.03649  -2102913.65348  21698701.0154   21698698.0384
       198.5944
  10247376.11349   7974014.10548  22143127.8584   22143124.7104
     -3619.6254
  -1156768.44949   -899143.56548  23326987.7024   23326984.1014
      -803.8284
   2084126.04849   1619901.84448  21531316.0154   21531313.0934
      -962.2344
   -647146.84349   -504540.87147  24092888.7574   24092887.9214
      -818.4844
  -5593489.85849  -4357614.99147  23343667.9524   23343666.3274
      1477.6094
 04  9 14 22  5 15.0030000  0  7G 3G 8G13G19G27G10G28
   7888492.75149   6139876.10747  24478747.3124   24478746.6474
     -3210.0624
  -2702965.66849  -2105213.62248  21698139.2414   21698136.2534
       195.0474
  10301722.07349   8016361.57548  22153469.5544   22153466.7374
     -3626.4224
  -1144641.96849   -889694.36048  23329295.5304   23329291.6874
      -812.9064
   2098583.73449   1631167.57448  21534067.0544   21534064.8234
      -965.3444
   -634799.07649   -494919.24647  24095238.6474   24095237.5384
      -827.8914
  -5615619.15349  -4374858.57847  23339457.4444   23339454.8864
      1473.0164
 04  9 14 22  5 30.0030000  0  7G 3G 8G13G19G27G10G28
   7936701.56249   6177441.41447  24487919.4994   24487920.4094
     -3218.0314
  -2705864.43849  -2107472.39848  21697587.5074   21697585.3474
       191.2974
  10356168.09949   8058787.03748  22163830.0544   22163827.7654
     -3633.2194
  -1132380.14549   -880139.69648  23331628.8044   23331624.4644
      -822.1874
   2113087.49449   1642469.21248  21536827.5154   21536824.7534
      -968.6874
   -622310.70649   -485188.04947  24097615.5544   24097613.4994
      -837.3124
  -5637681.32149  -4392049.85247  23335259.3044   23335256.5934
      1468.4224
 04  9 14 22  5 45.0030000  0  7G 3G 8G13G19G27G10G28
   7985027.63049   6215098.07447  24497116.6944   24497116.1514
     -3225.7974
  -2708710.41749  -2109690.03748  21697046.0544   21697043.8314
       187.8284
  10410713.95249   8101290.27248  22174210.1474   22174207.4564
     -3639.8284
  -1119983.09649   -870479.66348  23333987.3744   23333984.2334
      -831.1254
   2127637.21249   1653806.64748  21539596.0774   21539593.8314
      -971.5944
   -609681.99549   -475347.49447  24100018.4134   24100016.2574
      -846.7814
  -5659676.27349  -4409188.75747  23331073.5934   23331071.2884
      1464.0164
 04  9 14 22  6  0.0030000  0  7G 3G 8G13G19G27G10G28
   8033473.41149   6252848.01847  24506336.3514   24506334.8084
     -3234.0164
  -2711500.54249  -2111864.16448  21696515.1554   21696512.2844
       183.8444
  10465362.35149   8143873.40148  22184609.6244   22184607.0584
     -3647.0164
  -1107447.78749   -860711.87248  23336373.4374   23336368.8394
      -840.6254
   2142235.88749   1665182.23548  21542374.2184   21542371.4174
      -975.1874
   -596909.99049   -465395.28447  24102449.1794   24102446.9404
      -856.6724
  -5681600.93949  -4426272.89347  23326901.4374   23326898.9524
      1458.9384
 04  9 14 22  6 15.0030000  0  7G 3G 8G13G19G27G10G28
   8082037.25449   6290689.93047  24515577.6554   24515576.7494
     -3241.4534
  -2714236.07949  -2113995.74748  21695994.4134   21695991.8084
       180.5474
  10520111.76349   8186535.28648  22195028.1014   22195025.1754
     -3653.2974
  -1094775.52149   -850837.38248  23338784.6794   23338781.1324
      -849.3754
   2156882.22249   1676594.95348  21545161.5154   21545159.0074
      -978.0314
   -583996.06349   -455332.47147  24104906.6874   24104904.6554
      -865.6724
  -5703456.87949  -4443303.47847  23322743.0544   23322740.1204
      1454.7344
 04  9 14 22  6 30.0030000  0  7G 3G 8G13G19G27G10G28
   8130722.59449   6328626.55447  24524841.4134   24524840.2454
     -3249.4844
  -2716913.74449  -2116082.23348  21695485.0384   21695482.8394
       176.8284
  10574965.45749   8229278.38748  22205466.5934   22205463.4564
     -3660.1564
  -1081962.71649   -840853.35948  23341222.2654   23341218.6674
      -858.6874
   2171579.71749   1688047.54748  21547958.1634   21547955.5344
      -981.2814
   -570936.77549   -445156.40147  24107390.9994   24107389.8314
      -875.1564
  -5725240.32049  -4460277.56447  23318597.3124   23318594.5814
      1450.0474
 04  9 14 22  6 45.0030000  0  7G 3G 8G13G19G27G10G28
   8179522.10349   6366652.13447  24534127.8744   24534125.9794
     -3257.3754
  -2719540.40949  -2118128.97948  21694985.3664   21694982.6714
       173.0944
  10629916.36049   8272097.25248  22215923.0304   22215919.9014
     -3666.9224
  -1069016.21149   -830765.17148  23343685.9374   23343682.1554
      -867.7814
   2186321.52949   1699534.67548  21550763.4134   21550760.7694
      -984.5314
   -557739.00649   -434872.43647  24109902.5624   24109901.8194
      -884.7344
  -5746958.06649  -4477200.45447  23314464.4834   23314462.2804
      1445.3914
 04  9 14 22  7  0.0030000  0  7G 3G 8G13G19G27G10G28
   8228437.96749   6404768.40147  24543435.5464   24543434.7334
     -3264.7814
  -2722113.40049  -2120133.89448  21694495.6874   21694493.1124
       169.9384
  10684966.71249   8314993.61548  22226398.6404   22226395.2264
     -3673.1564
  -1055933.53449   -820570.86948  23346176.3664   23346172.3824
      -876.5004
   2201110.13649   1711058.26548  21553577.4444   21553574.8194
      -987.2504
   -544400.40549   -424478.70547  24112441.6944   24112439.9254
      -893.7504
  -5768607.61349  -4494070.20347  23310344.8274   23310342.5264
      1441.1724
 04  9 14 22  7 15.0030000  0  7G 3G 8G13G19G27G10G28
   8277474.26449   6442978.49747  24552766.2964   24552765.8314
     -3273.2344
  -2724628.47449  -2122093.69348  21694016.7804   21694014.5384
       165.6254
  10740120.61549   8357970.64848  22236894.2574   22236892.0154
     -3680.5164
  -1042710.29449   -810267.04848  23348691.9054   23348687.7654
      -886.3594
   2215949.81849   1722621.64548  21556401.8434   21556398.7374
      -991.1874
   -530916.73249   -413971.95547  24115007.0544   24115005.3124
      -903.8754
  -5790184.53949  -4510883.36447  23306238.4994   23306235.9914
      1435.8134
 04  9 14 22  7 30.0030000  0  7G 3G 8G13G19G27G10G28
   8326625.58749   6481278.23447  24562119.6084   24562119.8194
     -3280.0474
  -2727090.63849  -2124012.24548  21693548.2574   21693545.7024
       162.8284
  10795372.73849   8401024.23048  22247408.5694   22247405.2414
     -3686.2664
  -1029351.39349   -799857.49748  23351233.6944   23351230.8974
      -894.7034
   2230835.58749   1734220.95848  21559234.2334   21559231.4874
      -993.4374
   -517293.07549   -403356.10347  24117599.6634   24117598.2414
      -912.4534
  -5811693.72249  -4527643.72447  23302145.8434   23302143.1984
      1432.1564
 04  9 14 22  7 45.0030000  0  7G 3G 8G13G19G27G10G28
   8375892.44149   6519667.98447  24571493.8274   24571494.1514
     -3288.2194
  -2729498.92549  -2125888.83948  21693090.1324   21693087.7184
       158.9384
  10850723.70549   8444154.82448  22257940.9524   22257938.4444
     -3693.1564
  -1015856.05149   -789341.64047  23353801.7724   23353797.8744
      -904.1094
   2245768.27049   1745856.80348  21562075.6714   21562073.1244
      -996.9534
   -503528.81149   -392630.69747  24120219.3824   24120216.8514
      -922.1874
  -5833134.40949  -4544350.73547  23298065.8584   23298063.1404
      1427.2664
 04  9 14 22  8  0.0030000  0  7G 3G 8G13G19G27G10G28
   8425273.14149   6558146.41447  24580891.8354   24580891.0464
     -3295.5474
  -2731854.86449  -2127724.61248  21692641.4684   21692639.1674
       155.6564
  10906171.80049   8487361.11548  22268493.3584   22268490.3194
     -3699.4694
  -1002225.70049   -778720.59248  23356395.7724   23356392.2224
      -912.8444
   2260746.39549   1757528.07948  21564925.9604   21564923.3584
      -999.7034
   -489625.33749   -381796.82047  24122864.1714   24122862.8084
      -931.2194
  -5854507.99749  -4561005.44647  23293998.3514   23293996.0074
      1422.9844
 04  9 14 22  8 15.0030000  0  7G 3G 8G13G19G27G10G28
   8474767.22849   6596713.23647  24590310.2804   24590309.3824
     -3303.6254
  -2734158.41249  -2129519.59148  21692203.4054   21692200.5304
       151.6094
  10961716.74949   8530642.87248  22279062.9524   22279060.3124
     -3706.4844
   -988460.40849   -767994.37348  23359015.8904   23359011.9604
      -922.4064
   2275769.94349   1769234.72748  21567784.6324   21567782.1164
     -1003.3594
   -475582.77249   -370854.56747  24125537.1474   24125535.6944
      -941.0474
  -5875814.40649  -4577607.81747  23289943.7654   23289940.8234
      1417.9694
 04  9 14 22  8 30.0030000  0  7G 3G 8G13G19G27G10G28
   8524379.64449   6635372.27246  24599750.7494   24599749.8944
     -3311.4694
  -2736404.87549  -2131270.07748  21691775.5224   21691773.4174
       147.7034
  11017363.57449   8574004.00348  22289652.0774   22289649.0624
     -3713.3284
   -974554.94649   -757158.95448  23361661.5224   23361658.1984
      -931.8124
   2290844.02449   1780980.77048  21570653.6404   21570650.3394
     -1006.7344
   -461396.04549   -359799.97747  24128236.8904   24128235.0624
      -950.7664
  -5897048.31049  -4594153.69947  23285903.2574   23285900.4684
      1413.0634
 04  9 14 22  8 45.0030000  0  7G 3G 8G13G19G27G10G28
   8574108.91349   6674122.30746  24609214.1874   24609213.0894
     -3319.0314
  -2738594.90249  -2132976.58148  21691358.9524   21691356.4644
       144.2194
  11073110.80549   8617443.37948  22300260.2884   22300257.4834
     -3719.7034
   -960510.33049   -746215.09948  23364333.9134   23364330.0734
      -940.9064
   2305967.56849   1792765.35148  21573531.4834   21573528.5344
     -1009.7974
   -447066.39349   -348633.99847  24130963.5074   24130962.9174
      -959.9844
  -5918210.86749  -4610643.97547  23281876.2654   23281873.5034
      1408.5474
 04  9 14 22  9  0.0030000  0  7G 3G 8G13G19G27G10G28
   8623950.88649   6712960.18247  24618699.7574   24618698.1084
     -3326.4694
  -2740732.07649  -2134641.90348  21690952.3974   21690950.1904
       140.8284
  11128954.33149   8660957.79048  22310887.3274   22310884.0304
     -3726.0784
   -946330.35149   -735165.75948  23367032.9604   23367029.0034
      -949.7034
   2321136.76849   1804585.51148  21576418.4374   21576415.3664
     -1012.6724
   -432597.76849   -337359.74247  24133716.6084   24133715.6834
      -969.1724
  -5939305.86149  -4627081.61547  23277862.2104   23277859.5154
      1404.1884
 04  9 14 22  9 15.0030000  0  7G 3G 8G13G19G27G10G28
   8673906.56849   6751886.68847  24628205.8194   24628204.3434
     -3334.5004
  -2742815.59249  -2136265.42248  21690556.0774   21690553.4404
       136.7664
  11184895.28649   8704548.12548  22321532.6014   22321528.8474
     -3732.9374
   -932013.84349   -724010.02848  23369756.5074   23369752.9054
      -959.3444
   2336352.88749   1816442.22448  21579313.1634   21579310.3514
     -1016.2664
   -417988.99549   -325976.28747  24136496.7964   24136494.7334
      -978.8914
  -5960331.96149  -4643465.54647  23273860.5074   23273857.6944
      1399.0944
 04  9 14 22  9 30.0030000  0  7G 3G 8G13G19G27G10G28
   8723981.31949   6790905.93747  24637735.0154   24637732.9954
     -3342.2344
  -2744839.59949  -2137842.55948  21690170.8354   21690168.1674
       132.9534
  11240939.17849   8748218.69148  22332196.6244   22332194.4014
     -3739.6254
   -917555.01349   -712743.39648  23372507.9524   23372504.6514
      -968.6724
   2351621.53549   1828339.85948  21582219.0074   21582216.4914
     -1019.6724
   -403234.37149   -314479.15047  24139304.2104   24139303.2334
      -988.5004
  -5981283.37949  -4659791.29947  23269873.4444   23269870.7144
      1394.2974
 04  9 14 22  9 45.0030000  0  7G 3G 8G13G19G27G10G28
   8774170.61749   6830014.44847  24647283.9684   24647284.1014
     -3349.2344
  -2746808.28549  -2139376.59548  21689796.3124   21689793.5344
       129.9224
  11297081.58349   8791965.97048  22342880.9134   22342878.0774
     -3745.5944
   -902958.04549   -701369.13148  23375285.7334   23375282.6634
      -977.2504
   2366938.63249   1840275.27848  21585133.6324   21585130.9564
     -1022.2974
   -388338.19949   -302871.76247  24142138.6324   24142137.2064
      -997.3444
  -6002164.28149  -4676062.11047  23265899.9214   23265897.6404
      1390.2034
 04  9 14 22 10  0.0030000  0  7G 3G 8G13G19G27G10G28
   8824471.96949   6869210.29047  24656856.3664   24656856.5034
     -3357.2974
  -2748723.92949  -2140869.30048  21689431.6634   21689429.5504
       125.7814
  11353319.92549   8835788.04348  22353582.5304   22353579.3314
     -3752.5784
   -888225.05249   -689888.86648  23378090.1794   23378086.0194
      -986.9224
   2382302.00649   1852246.72148  21588057.2104   21588054.9994
     -1025.9534
   -373302.80849   -291155.85747  24145000.3194   24144998.9404
     -1007.2034
  -6022976.77949  -4692279.60647  23261939.3744   23261936.9994
      1385.0314
 04  9 14 22 10 15.0030000  0  7G 3G 8G13G19G27G10G28
   8874885.63149   6908493.64647  24666448.9374   24666450.1754
     -3364.7034
  -2750585.98949  -2142320.24048  21689077.4374   21689074.9644
       122.2504
  11409654.64649   8879685.20148  22364302.5224   22364300.1514
     -3758.9064
   -873355.56449   -678302.24747  23380918.9444   23380915.1284
      -995.9064
   2397712.18249   1864254.65948  21590989.5854   21590986.7224
     -1028.8914
   -358127.72749   -279331.12647  24147888.3044   24147886.2454
     -1016.3284
  -6043720.27349  -4708443.34747  23257992.7264   23257989.5624
      1380.5634
 04  9 14 22 10 30.0030000  0  7G 3G 8G13G19G27G10G28
   8925414.08249   6947866.43447  24676064.7654   24676065.8624
     -3372.3914
  -2752391.49249  -2143727.12548  21688733.8514   21688731.1124
       118.4224
  11466088.14949   8923659.34148  22375041.2184   22375039.2574
     -3765.5474
   -858346.67149   -666607.00048  23383774.8904   23383771.4374
     -1005.3284
   2413172.02149   1876301.28648  21593931.8124   21593928.8354
     -1032.3914
   -342810.23949   -267395.44947  24150802.6474   24150801.5384
     -1025.9694
  -6064391.97449  -4724551.13947  23254058.9524   23254055.5814
      1375.7194
 04  9 14 22 10 45.0030000  0  7G 3G 8G13G19G27G10G28
   8976059.56849   6987330.41347  24685702.8124   24685703.4564
     -3380.1254
  -2754137.89349  -2145087.94948  21688401.3974   21688398.8664
       114.6564
  11522622.97849   8967712.42348  22385799.2964   22385797.6404
     -3772.1564
   -843195.82249   -654801.13048  23386658.0934   23386654.7924
     -1014.5784
   2428684.01949   1888388.56848  21596883.4374   21596880.6714
     -1035.6724
   -327347.93149   -255346.84047  24153744.7414   24153742.9794
     -1035.4374
  -6084989.10649  -4740600.82547  23250139.5384   23250135.9994
      1370.8284
 04  9 14 22 11  0.0030000  0  7G 3G 8G13G19G27G10G28
   9026814.84849   7026879.98047  24695361.3744   24695361.3154
     -3387.1724
  -2755831.91649  -2146407.95948  21688078.8354   21688076.6244
       111.2814
  11579251.94649   9011838.86948  22396575.6014   22396572.7494
     -3778.2344
   -827909.75049   -642889.89648  23389567.2264   23389563.2574
     -1023.3754
   2444241.41149   1900511.20848  21599843.8664   21599841.3544
     -1038.4844
   -311747.69849   -243190.84447  24156713.8904   24156712.0034
     -1044.4374
  -6105518.57149  -4756597.78048  23246232.6874   23246229.5814
      1366.5314
 04  9 14 22 11 15.0030000  0  7G 3G 8G13G19G27G10G28
   9077679.39949   7066514.66447  24705041.0154   24705040.9644
     -3394.4224
  -2757474.03649  -2147687.52948  21687766.1474   21687764.3044
       107.9064
  11635974.31149   9056038.10148  22407369.4214   22407367.0194
     -3784.4064
   -812488.95149   -630873.68848  23392501.7804   23392498.2184
     -1032.3914
   2459843.79949   1912668.91348  21602813.0544   21602810.2224
     -1041.4694
   -296009.97349   -230927.68247  24159708.2654   24159706.2764
     -1053.5164
  -6125980.69349  -4772542.26647  23242339.1014   23242335.7614
      1362.1094
 04  9 14 22 11 30.0030000  0  7G 3G 8G13G19G27G10G28
   9128656.02049   7106236.69447  24714742.2494   24714741.7224
     -3402.5314
  -2759060.87449  -2148924.01848  21687464.4214   21687462.2064
       103.5634
  11692793.11249   9100312.45848  22418182.4764   22418179.4684
     -3791.4534
   -796930.12749   -618749.93548  23395461.7724   23395457.7804
     -1042.2504
   2475494.41249   1924864.18848  21605790.9374   21605788.5584
     -1045.3124
   -280131.64749   -218554.97147  24162730.1404   24162728.1124
     -1063.6094
  -6146372.07349  -4788431.62647  23238458.2884   23238455.7144
      1356.7504
 04  9 14 22 11 45.0030000  0  7G 3G 8G13G19G27G10G28
   9179742.95249   7146044.68547  24724463.4914   24724462.9684
     -3409.7034
  -2760594.03249  -2150118.67948  21687172.5384   21687170.2534
       100.2664
  11749706.71649   9144660.69348  22429013.0934   22429009.5974
     -3797.6414
   -781234.71849   -606519.72048  23398449.1944   23398445.0694
     -1051.0624
   2491191.74249   1937095.87948  21608778.6874   21608775.3154
     -1048.2344
   -264114.30649   -206073.91147  24165777.8274   24165776.8514
     -1072.6094
  -6166694.17749  -4804267.00847  23234591.1794   23234588.1904
      1352.2664
 04  9 14 22 12  0.0030000  0  7G 3G 8G13G19G27G10G28
   9230943.01549   7185940.81247  24734206.5624   24734206.0344
     -3417.0624
  -2762070.52549  -2151269.19148  21686891.6944   21686889.1794
        96.6414
  11806717.96349   9189085.05348  22439861.2184   22439858.1244
     -3803.9844
   -765399.60049   -594180.67348  23401462.7024   23401458.0774
     -1060.3444
   2506938.97849   1949366.44648  21611774.7184   21611771.9134
     -1051.5004
   -247954.87349   -193482.14247  24168853.1014   24168851.0544
     -1081.9694
  -6186943.86049  -4820045.95648  23230737.7024   23230734.1514
      1347.5634
 04  9 14 22 12 15.0030000  0  7G 3G 8G13G19G27G10G28
   9282252.17049   7225921.95647  24743969.9054   24743970.2064
     -3424.0474
  -2763493.79749  -2152378.21848  21686620.6474   21686618.2264
        93.2814
  11863822.93049   9233582.39248  22450728.3664   22450725.5584
     -3809.8914
   -749428.49249   -581735.64948  23404501.6164   23404498.0464
     -1069.0164
   2522732.49949   1961673.08948  21614780.7884   21614777.5694
     -1054.2194
   -231657.07949   -180782.57847  24171954.8124   24171952.8704
     -1090.9534
  -6207124.68749  -4835771.24547  23226897.4374   23226894.6474
      1343.3134
 04  9 14 22 12 30.0030000  0  7G 3G 8G13G19G27G10G28
   9333669.22549   7265987.17047  24753754.6794   24753754.4764
     -3431.4064
  -2764864.65349  -2153446.41048  21686359.9524   21686357.5584
        89.6724
  11921020.48249   9278151.88548  22461612.9684   22461610.2024
     -3816.2194
   -733322.20849   -569185.29248  23407566.9994   23407561.9684
     -1078.2344
   2538571.39949   1974015.09648  21617793.9604   21617791.6984
     -1057.5004
   -215221.98349   -167975.99547  24175082.0384   24175079.9724
     -1100.2814
  -6227237.51549  -4851443.54347  23223069.8124   23223066.9644
      1338.5944
 04  9 14 22 12 45.0030000  0  7G 3G 8G13G19G27G10G28
   9385196.92649   7306138.61247  24763559.8194   24763559.3474
     -3438.9694
  -2766180.22649  -2154471.52548  21686110.0854   21686107.4054
        85.7344
  11978313.50149   9322795.77048  22472514.6944   22472511.8664
     -3822.8594
   -717077.74649   -556527.27947  23410657.4054   23410654.0344
     -1087.7344
   2554458.71549   1986394.81748  21620817.3514   21620814.8434
     -1060.8914
   -198646.55349   -155060.06747  24178235.6874   24178234.0504
     -1109.8284
  -6247279.18349  -4867060.41247  23219256.0934   23219253.3624
      1333.5314
 04  9 14 22 13  0.0030000  0  7G 3G 8G13G19G27G10G28
   9436833.87549   7346375.16647  24773386.7024   24773385.8944
     -3445.7664
  -2767441.55249  -2155454.36548  21685869.9134   21685867.1284
        82.6414
  12035700.46449   9367512.86648  22483435.1324   22483432.3004
     -3828.6414
   -700696.23749   -543762.46648  23413774.8194   23413771.5264
     -1096.3444
   2570393.30949   1998811.38648  21623850.0304   21623847.1124
     -1063.6564
   -181932.10249   -142035.83947  24181416.1244   24181415.3474
     -1118.5314
  -6267250.93549  -4882622.79048  23215455.3664   23215452.7844
      1329.4384
 04  9 14 22 13 15.0030000  0  7G 3G 8G13G19G27G10G28
   9488578.87649   7386695.93247  24783233.2654   24783232.4214
     -3452.9064
  -2768649.43449  -2156395.55548  21685639.5224   21685637.0974
        79.1254
  12093180.34849   9412302.35548  22494373.6634   22494370.8704
     -3834.7194
   -684178.45049   -530891.45348  23416918.0774   23416914.1594
     -1105.4064
   2586374.36749   2011264.16448  21626890.9214   21626888.1944
     -1066.5624
   -165079.65449   -128904.05547  24184623.3904   24184622.4794
     -1127.7504
  -6287153.44349  -4898131.20347  23211668.1474   23211665.6084
      1324.8594
 04  9 14 22 13 30.0030000  0  7G 3G 8G13G19G27G10G28
   9540430.72249   7427099.97447  24793099.9524   24793099.7144
     -3460.4374
  -2769804.73849  -2157295.79948  21685419.4214   21685417.2104
        75.1254
  12150751.95049   9457163.33848  22505328.9444   22505325.9054
     -3841.2814
   -667525.35949   -517915.02648  23420087.0304   23420083.5894
     -1114.8594
   2602401.02149   2023752.45948  21629940.7804   21629937.8314
     -1070.1254
   -148090.14749   -115665.48747  24187856.4214   24187854.8704
     -1137.2814
  -6306987.63349  -4913586.38847  23207894.1634   23207891.2184
      1319.8284
 04  9 14 22 13 45.0030000  0  7G 3G 8G13G19G27G10G28
   9592395.13549   7467591.68547  24802988.6244   24802988.5464
     -3468.0624
  -2770901.31249  -2158150.25548  21685211.0544   21685209.0504
        71.1564
  12208421.23449   9502100.42748  22516303.1244   22516300.5264
     -3847.8594
   -650730.87649   -504828.40148  23423283.1554   23423279.5154
     -1124.3914
   2618479.42349   2036281.09448  21633000.6244   21632997.8354
     -1073.6254
   -130957.54749   -102315.40347  24191116.3824   24191115.4794
     -1146.9694
  -6326747.27249  -4928983.47647  23204133.2654   23204131.2104
      1314.8134
 04  9 14 22 14  0.0030000  0  7G 3G 8G13G19G27G10G28
   9644471.71549   7508170.83747  24812897.3904   24812898.4994
     -3475.5944
  -2771939.30249  -2158959.07648  21685013.4444   21685011.3544
        67.0634
  12266187.85049   9547113.36248  22527296.0464   22527293.2414
     -3854.5164
   -633794.94349   -491631.56148  23426505.8514   23426502.4994
     -1133.9374
   2634609.50949   2048849.98848  21636069.9834   21636066.9294
     -1077.1564
   -113682.03349    -88853.94847  24194405.1324   24194402.6634
     -1156.6094
  -6346432.27549  -4944322.42347  23200388.3514   23200385.0074
      1309.5944
 04  9 14 22 14 15.0030000  0  7G 3G 8G13G19G27G10G28
   9696655.68949   7548833.66247  24822828.4834   24822828.0464
     -3482.3124
  -2772923.46449  -2159725.94748  21684826.6014   21684823.9564
        63.9844
  12324047.05849   9592198.43048  22538306.2264   22538303.4094
     -3860.1564
   -616722.16349   -478328.08348  23429754.4914   23429751.0854
     -1142.5314
   2650786.65649   2061455.55348  21639148.3584   21639145.6204
     -1079.8594
    -96268.35449    -75284.84147  24197718.1944   24197716.7924
     -1165.3594
  -6366047.16249  -4959606.71747  23196655.2574   23196652.8124
      1305.4844
 04  9 14 22 14 30.0030000  0  7G 3G 8G13G19G27G10G28
   9748949.70049   7589582.24247  24832779.0464   24832779.9644
     -3490.5164
  -2773850.35349  -2160448.19848  21684649.9994   21684648.0264
        59.3134
  12382001.60349   9637357.78648  22549334.4604   22549331.9524
     -3867.3754
   -599509.46649   -464915.58948  23433030.2414   23433026.4604
     -1152.7664
   2667014.00749   2074100.24448  21642236.3824   21642233.5934
     -1084.0944
    -78713.59749    -61605.80947  24201058.0854   24201056.9294
     -1175.6094
  -6385588.88749  -4974834.00847  23192936.4914   23192933.4644
      1299.7504
 04  9 14 22 14 45.0030000  0  7G 3G 8G13G19G27G10G28
   9801354.92849   7630417.44847  24842751.9444   24842751.4794
     -3497.0164
  -2774718.68049  -2161124.80848  21684485.0694   21684482.1324
        56.2974
  12440052.66149   9682592.36248  22560380.9994   22560378.6944
     -3872.8444
   -582155.42349   -451392.94348  23436332.7024   23436328.6014
     -1161.2814
   2683293.02249   2086785.19148  21645333.9764   21645331.5894
     -1086.6724
    -61016.41849    -47815.79447  24204425.3124   24204424.9334
     -1184.2814
  -6405055.98849  -4990003.15648  23189232.2654   23189229.3314
      1295.6724
 04  9 14 22 15  0.0030000  0  7G 3G 8G13G19G27G10G28
   9853866.02449   7671335.14847  24852744.7804   24852744.4374
     -3504.3914
  -2775533.19149  -2161759.48448  21684330.1014   21684327.7804
        52.3754
  12498195.04049   9727898.07948  22571445.3194   22571442.7964
     -3879.3284
   -564664.92049   -437763.97648  23439660.8434   23439657.3864
     -1170.6874
   2699618.78649   2099506.56348  21648441.0694   21648437.9764
     -1090.0474
    -43181.81449    -33918.69247  24207819.9054   24207818.7574
     -1193.6094
  -6424453.30349  -5005117.91248  23185540.8664   23185537.6794
      1290.7504
 04  9 14 22 15 15.0030000  0  7G 3G 8G13G19G27G10G28
   9906480.04149   7712333.07647  24862757.7964   24862756.4994
     -3510.8444
  -2776296.69349  -2162354.39948  21684184.3974   21684181.9524
        49.2974
  12556425.67949   9773272.59048  22582526.5464   22582523.8044
     -3884.8594
   -547040.76049   -424030.86648  23443015.0224   23443010.6474
     -1179.2344
   2715988.61749   2112262.28248  21651555.6874   21651552.8274
     -1092.6724
    -25212.60049    -19916.70847  24211238.6794   24211237.9794
     -1202.2504
  -6443783.56049  -5020180.41647  23181862.0624   23181859.6874
      1286.5314
 04  9 14 22 15 30.0030000  0  7G 3G 8G13G19G27G10G28
   9959202.93849   7753415.81047  24872790.1794   24872789.2724
     -3518.8754
  -2777002.85249  -2162904.65648  21684049.9994   21684047.6944
        44.7664
  12614750.89349   9818720.78748  22593625.2574   22593622.6834
     -3891.9374
   -529276.52149   -410188.60648  23446394.3274   23446391.2694
     -1189.3754
   2732408.90349   2125057.31648  21654680.5154   21654677.5974
     -1096.7504
     -7102.50849     -5804.94047  24214685.2494   24214684.3044
     -1212.4224
  -6463040.21849  -5035185.58147  23178197.4374   23178194.8354
      1280.9064
 04  9 14 22 15 45.0030000  0  7G 3G 8G13G19G27G10G28
  10012039.63549   7794587.26947  24882843.9604   24882843.8544
     -3526.3914
  -2777646.34149  -2163406.07048  21683927.6714   21683925.3744
        40.7194
  12673175.42749   9864246.37948  22604743.2024   22604741.0264
     -3898.3284
   -511367.07849   -396233.19148  23449803.1634   23449799.3044
     -1198.8914
   2748884.73349   2137895.62048  21657815.8744   21657812.8624
     -1100.3444
     11153.46549      8420.49547  24218159.0934   24218157.7724
     -1222.0474
  -6482218.13549  -5050129.38847  23174548.0464   23174545.4094
      1275.8134
 04  9 14 22 16  0.0030000  0  7G 3G 8G13G19G27G10G28
  10064980.59549   7835839.96047  24892919.0384   24892918.0894
     -3532.9694
  -2778236.24549  -2163865.72148  21683815.2724   21683812.8744
        37.4534
  12731690.10749   9909842.22848  22615877.7884   22615875.2224
     -3904.1094
   -493321.50449   -382171.69248  23453236.4054   23453232.7064
     -1207.6874
   2765407.03049   2150770.14148  21660959.7574   21660956.8944
     -1103.2034
     29546.05749     22752.36847  24221659.5154   24221658.0934
     -1230.8754
  -6501326.36249  -5065018.89847  23170912.4994   23170909.0894
      1271.4064
 04  9 14 22 16 15.0030000  0  7G 3G 8G13G19G27G10G28
  10118027.10649   7877174.87147  24903012.7654   24903012.6514
     -3539.8444
  -2778771.35249  -2164282.67548  21683713.3744   21683711.1014
        34.0004
  12790296.02149   9955509.14748  22627029.8664   22627027.5344
     -3909.9534
   -475138.38149   -368003.01348  23456697.0224   23456693.6554
     -1216.6254
   2781977.43949   2163682.15148  21664112.9134   21664110.0074
     -1106.1724
     48076.71949     37191.86847  24225185.4134   24225183.9294
     -1239.8754
  -6520363.39049  -5079852.90448  23167289.4054   23167286.7104
      1266.8914
 04  9 14 22 16 30.0030000  0  7G 3G 8G13G19G27G10G28
  10171177.09149   7918590.42847  24913127.0384   24913125.9294
     -3546.9694
  -2779253.05249  -2164658.01348  21683621.6014   21683619.5194
        30.0944
  12848991.21649  10001245.63448  22638200.1714   22638197.1674
     -3916.2504
   -456819.38749   -353728.47348  23460183.3584   23460179.6834
     -1225.9694
   2798594.22949   2176630.30248  21667275.0384   21667272.4444
     -1109.5624
     66743.50149     51737.42347  24228738.0934   24228736.1204
     -1249.2194
  -6539330.87949  -5094632.73748  23163680.1164   23163677.1044
      1261.9534
 04  9 14 22 16 45.0030000  0  7G 3G 8G13G19G27G10G28
  10224435.04049   7960090.09547  24923262.6794   24923261.1514
     -3554.0164
  -2779676.61249  -2164988.05348  21683541.1244   21683539.0734
        26.3754
  12907780.25449  10047055.24448  22649386.7724   22649384.2964
     -3922.3124
   -438359.85149   -339344.42148  23463695.7804   23463691.9014
     -1235.2194
   2815262.20149   2189618.33448  21670447.0154   21670444.2764
     -1112.7974
     85551.17649     66392.74647  24232317.1714   24232315.2924
     -1258.4844
  -6558223.89049  -5109354.53748  23160084.6554   23160082.1014
      1257.1564
 04  9 14 22 17  0.0030000  0  7G 3G 8G13G19G27G10G28
  10277799.95949   8001673.15247  24933417.1634   24933416.1364
     -3561.1254
  -2780042.39249  -2165273.06548  21683471.7724   21683469.1514
        22.6254
  12966662.37449  10092937.40348  22660592.1014   22660589.0464
     -3928.4374
   -419760.17649   -324851.15248  23467235.0694   23467231.6594
     -1244.5314
   2831980.70449   2202645.74248  21673628.2024   21673625.2334
     -1116.2034
    104499.09449     81157.35247  24235923.0544   24235920.6204
     -1267.8444
  -6577042.91649  -5124018.68448  23156503.4684   23156500.8744
      1252.2814
 04  9 14 22 17 15.0030000  0  7G 3G 8G13G19G27G10G28
  10331272.79649   8043340.27447  24943593.2804   24943591.7264
     -3568.7194
  -2780349.49249  -2165512.35448  21683413.3744   21683410.3784
        18.3134
  13025638.50349  10138892.79548  22671815.0304   22671812.2454
     -3935.1094
   -401019.13549   -310247.73847  23470801.4444   23470797.7804
     -1254.3124
   2848751.09849   2215713.57848  21676819.8194   21676816.4294
     -1119.9224
    123588.33049     96032.07447  24239554.9834   24239553.7574
     -1277.5944
  -6595786.83249  -5138624.30648  23152937.1944   23152934.0854
      1246.8914
 04  9 14 22 17 30.0030000  0  7G 3G 8G13G19G27G10G28
  10384852.19249   8085090.45247  24953788.4914   24953787.3824
     -3575.2814
  -2780598.43249  -2165706.33548  21683365.8744   21683363.2724
        14.8754
  13084707.43349  10184920.52648  22683055.1014   22683053.1404
     -3940.8284
   -382137.83549   -295535.02948  23474394.6554   23474390.1874
     -1263.2504
   2865572.39749   2228821.08648  21680020.5854   21680017.9794
     -1122.8914
    142817.81449    111016.08047  24243214.4834   24243213.3474
     -1286.3594
  -6614456.43849  -5153172.01948  23149383.9834   23149381.6554
      1242.4224
 04  9 14 22 17 45.0030000  0  7G 3G 8G13G19G27G10G28
  10438534.00849   8126920.42547  24964002.7574   24964002.0264
     -3582.1414
  -2780793.46949  -2165858.30148  21683328.3744   21683326.6044
        11.2504
  13143864.99149  10231017.29648  22694312.6084   22694309.7884
     -3946.7344
   -363120.26249   -280716.14048  23478013.9444   23478009.6834
     -1272.3914
   2882440.78349   2241965.28848  21683230.6874   21683227.9954
     -1126.0474
    162183.33949    126106.13047  24246900.5624   24246897.3944
     -1295.4844
  -6633055.63149  -5167664.87548  23145845.2494   23145842.4604
      1237.6254
 04  9 14 22 18  0.0030000  0  7G 3G 8G13G19G27G10G28
  10492318.94249   8168830.71447  24974238.6714   24974237.9174
     -3589.0164
  -2780933.29649  -2165967.24548  21683301.9684   21683299.6904
         7.6094
  13203111.98549  10277183.77148  22705586.5074   22705583.9684
     -3952.6564
   -343965.30149   -265790.19948  23481658.6244   23481654.4564
     -1281.4374
   2899357.22749   2255146.93248  21686449.7804   21686447.0544
     -1129.2504
    181685.91649    141302.94547  24250611.2654   24250608.4834
     -1304.6414
  -6651583.31649  -5182102.01448  23142318.9444   23142316.3784
      1232.9534
 04  9 14 22 18 15.0030000  0  7G 3G 8G13G19G27G10G28
  10546209.12549   8210823.05747  24984493.1324   24984493.0584
     -3596.1564
  -2781015.67849  -2166031.43548  21683286.2184   21683284.3624
         3.5784
  13262450.55649  10323421.60148  22716878.2574   22716876.2724
     -3958.9694
   -324670.46049   -250755.24048  23485330.4914   23485326.4524
     -1290.9224
   2916324.29049   2268368.01848  21689678.5934   21689675.7414
     -1132.8284
    201327.92349    156608.39947  24254348.2334   24254346.3904
     -1314.1564
  -6670037.04049  -5196481.49048  23138806.9764   23138804.2964
      1227.8754
 04  9 14 22 18 30.0030000  0  7G 3G 8G13G19G27G10G28
  10600203.41149   8252896.51047  24994768.1474   24994767.9954
     -3602.7664
  -2781041.20749  -2166051.31748  21683281.6874   21683279.6944
         0.0474
  13321879.67149  10369729.96648  22728187.4914   22728185.1474
     -3964.7814
   -305236.49749   -235611.89448  23489027.8584   23489024.4484
     -1300.0004
   2933341.20549   2281627.95448  21692916.5694   21692913.8084
     -1135.8914
    221108.32549    172021.70547  24258112.8274   24258111.0654
     -1323.0164
  -6688417.38449  -5210803.82148  23135309.4214   23135306.9444
      1223.1414
 04  9 14 22 18 45.0030000  0  7G 3G 8G13G19G27G10G28
  10654300.16249   8295049.80747  25005062.2024   25005062.1904
     -3609.6254
  -2781011.18449  -2166027.91948  21683287.3434   21683284.6404
        -3.5624
  13381397.83949  10416107.73748  22739513.2414   22739510.8784
     -3970.5944
   -285664.96049   -220361.33148  23492753.1324   23492748.9134
     -1309.1094
   2950406.64649   2294925.70148  21696164.2264   21696161.0424
     -1139.0784
    241025.72249    187541.73447  24261902.0304   24261901.6474
     -1332.1254
  -6706725.80149  -5225070.08748  23131826.1404   23131822.5584
      1218.4224
 04  9 14 22 19  0.0030000  0  7G 3G 8G13G19G27G10G28
  10708502.06849   8337285.05447  25015376.9834   25015376.7064
     -3616.9694
  -2780922.56549  -2165958.84848  21683304.1084   21683301.5154
        -7.9064
  13441007.70249  10462556.97648  22750856.5154   22750854.4404
     -3977.0314
   -265952.87749   -205001.25148  23496503.1244   23496500.0114
     -1318.7814
   2967523.66749   2308263.64148  21699421.4134   21699418.2334
     -1142.8914
    261082.93449    203170.73247  24265719.1714   24265718.0424
     -1341.8284
  -6724959.20549  -5239277.90548  23128356.0854   23128353.2374
      1213.0474
 04  9 14 22 19 15.0030000  0  7G 3G 8G13G19G27G10G28
  10762809.82949   8379602.76247  25025710.9684   25025711.6204
     -3624.0624
  -2780774.33549  -2165843.33048  21683332.2724   21683329.8084
       -11.9224
  13500710.11949  10509078.30048  22762217.5544   22762215.1904
     -3983.3124
   -246099.03049   -189530.71148  23500281.7884   23500278.1164
     -1328.4374
   2984693.28749   2321642.57348  21702688.4374   21702685.8044
     -1146.4224
    281280.98349    218909.46947  24269563.4834   24269561.5264
     -1351.3444
  -6743116.35449  -5253426.30548  23124900.8274   23124897.6404
      1207.8284
 04  9 14 22 19 30.0030000  0  7G 3G 8G13G19G27G10G28
  10817219.82549   8422000.16146  25036063.5774   25036065.0224
     -3630.8124
  -2780569.44949  -2165683.68048  21683371.3044   21683368.9054
       -15.5784
  13560501.56749  10555669.01748  22773595.6014   22773593.4014
     -3989.0624
   -226106.79949   -173952.34548  23504086.3904   23504082.4644
     -1337.4374
   3001912.38349   2335060.04248  21705965.0694   21705962.3234
     -1149.5784
    301616.48949    234755.32347  24273432.8124   24273431.7614
     -1360.1254
  -6761200.58549  -5267517.88948  23121459.2334   23121456.8084
      1203.1564
 04  9 14 22 19 45.0030000  0  7G 3G 8G13G19G27G10G28
  10871729.47449   8464475.17847  25046437.8744   25046437.9564
     -3636.6724
  -2780310.38149  -2165481.79448  21683420.7264   21683417.8474
       -18.3754
  13620379.35849  10602327.01548  22784989.8904   22784987.5154
     -3994.0314
   -205978.41349   -158267.89748  23507916.2964   23507912.5424
     -1345.7034
   3019178.57349   2348514.22248  21709251.1874   21709247.9564
     -1151.9374
    322086.99949    250706.38247  24277328.4134   24277326.8434
     -1368.4844
  -6779214.05649  -5281554.33848  23118031.7264   23118028.3584
      1199.2504
 04  9 14 22 20  0.0030000  0  7G 3G 8G13G19G27G10G28
  10926339.90949   8507028.76347  25056829.9604   25056829.6984
     -3644.3284
  -2779995.63949  -2165236.54448  21683480.8584   21683478.2534
       -23.1724
  13680344.97249  10649053.43748  22796401.3514   22796398.5624
     -4000.9534
   -185712.40349   -142476.19347  23511772.7654   23511769.1794
     -1355.9374
   3036493.52449   2362006.38448  21712545.6014   21712542.9874
     -1156.2664
    342693.89049    266763.69647  24281249.1474   24281248.1634
     -1378.6724
  -6797155.28149  -5295534.49248  23114617.3664   23114613.9644
      1193.3754
 04  9 14 22 20 15.0030000  0  7G 3G 8G13G19G27G10G28
  10981054.58149   8549663.54047  25067241.4604   25067241.8744
     -3650.8754
  -2779621.44749  -2164944.94048  21683551.3904   21683549.1834
       -26.6564
  13740401.69949  10695850.87948  22807829.6714   22807826.9524
     -4006.5624
   -165305.16349   -126574.44947  23515655.8194   23515651.8974
     -1364.8594
   3053860.92849   2375539.44248  21715850.8354   21715848.4374
     -1159.2974
    363440.76449    282930.09047  24285198.3904   24285195.5304
     -1387.4694
  -6815020.48349  -5309455.39148  23111218.0774   23111214.6834
      1188.7974
 04  9 14 22 20 30.0030000  0  7G 3G 8G13G19G27G10G28
  11035869.94349   8592376.80547  25077672.1714   25077672.7964
     -3657.5004
  -2779190.92849  -2164609.46748  21683633.8744   21683631.3784
       -30.4224
  13800546.19349  10742716.70048  22819275.0464   22819271.8194
     -4012.3754
   -144759.86349   -110565.12247  23519565.8354   23519562.0304
     -1374.0944
   3071277.51849   2389110.81048  21719164.9054   21719162.2844
     -1162.5624
    384324.27449    299202.95347  24289171.8514   24289170.0734
     -1396.6724
  -6832812.76449  -5323319.48548  23107831.9444   23107829.1714
      1183.8284
 04  9 14 22 20 45.0030000  0  7G 3G 8G13G19G27G10G28
  11090784.93249   8635167.70247  25088122.2884   25088122.7574
     -3664.3124
  -2778704.72749  -2164230.60448  21683726.2964   21683723.5974
       -34.2814
  13860777.41749  10789650.09848  22830736.8434   22830734.1674
     -4018.4064
   -124077.25049    -94448.79347  23523501.4444   23523497.9254
     -1383.4694
   3088742.72149   2402720.06348  21722488.6874   21722485.4094
     -1165.9694
    405343.50949    315581.59547  24293171.5304   24293170.0694
     -1405.8124
  -6850532.79249  -5337127.27348  23104460.2184   23104457.2334
      1178.9384
 04  9 14 22 21  0.0030000  0  7G 3G 8G13G19G27G10G28
  11145802.22849   8678038.32047  25098592.8354   25098592.1874
     -3671.5164
  -2778159.96549  -2163806.11348  21683830.0544   21683827.4334
       -38.6094
  13921098.07549  10836653.17648  22842215.3274   22842213.3314
     -4024.7344
   -103254.49649    -78223.26647  23527464.0154   23527460.3004
     -1393.2194
   3106259.56649   2416369.55148  21725821.8514   21725818.8824
     -1169.8444
    426501.27849    332068.17747  24297197.0464   24297196.4524
     -1415.4694
  -6868177.60449  -5350876.44548  23101102.3044   23101099.1674
      1173.5164
 04  9 14 22 21 15.0030000  0  7G 3G 8G13G19G27G10G28
  11200921.73049   8720988.55847  25109081.9524   25109081.6754
     -3677.8754
  -2777556.33949  -2163335.74548  21683944.8124   21683942.4564
       -42.0314
  13981508.20049  10883725.95848  22853710.2184   22853708.7764
     -4030.1724
    -82291.20949    -61888.22747  23531453.0224   23531449.0934
     -1402.0314
   3123828.31949   2430059.48048  21729165.0694   21729162.1904
     -1172.8444
    447797.79149    348662.82847  24301250.5464   24301249.1244
     -1424.2664
  -6885746.84749  -5364566.75148  23097759.1634   23097755.8084
      1168.9384
 04  9 14 22 21 30.0030000  0  7G 3G 8G13G19G27G10G28
  11256140.29949   8764016.03047  25119589.1164   25119589.1834
     -3684.3914
  -2776896.56449  -2162821.62848  21684070.2414   21684067.9994
       -45.6564
  14042004.66349  10930866.04048  22865222.8584   22865220.0974
     -4035.7974
    -61190.17949    -45445.85148  23535468.2724   23535464.1084
     -1411.1414
   3141446.04349   2443787.59048  21732517.7104   21732514.8974
     -1175.9844
    469229.94849    365363.22747  24305328.3124   24305326.9604
     -1433.1254
  -6903243.35049  -5378200.35648  23094429.2184   23094426.7574
      1164.2034
 04  9 14 22 21 45.0030000  0  7G 3G 8G13G19G27G10G28
  11311457.29149   8807120.16647  25130116.0624   25130115.8704
     -3690.7974
  -2776180.88749  -2162263.95048  21684206.6084   21684203.9644
       -49.2974
  14102587.03749  10978073.06648  22876751.2574   22876748.6754
     -4041.3754
    -39951.87649    -28896.51948  23539510.6084   23539505.9174
     -1420.1564
   3159112.73249   2457553.84748  21735879.6404   21735876.5584
     -1179.1094
    490797.30349    382168.95347  24309432.2964   24309430.9054
     -1442.1094
  -6920667.27249  -5391777.41748  23091113.9834   23091110.6444
      1159.4694
 04  9 14 22 22  0.0040000  0  6G 8G13G19G27G10G28
  -2775404.82749  -2161659.21648  21684353.9654   21684351.4844
       -53.7344
  14163263.41249  11025353.34748  22888297.5594   22888295.3754
     -4047.7814
    -18570.49049    -12235.69848  23543578.7934   23543574.9304
     -1430.0004
   3176833.78649   2471362.46448  21739251.2934   21739249.1484
     -1183.0944
    512505.61049    399084.52847  24313563.8794   24313561.5474
     -1451.7664
  -6938015.39249  -5405295.41148  23087812.9414   23087809.5194
      1153.8754
 04  9 14 22 22 15.0040000  0  6G 8G13G19G27G10G28
  -2774570.00749  -2161008.70248  21684512.8634   21684510.4454
       -57.7344
  14224023.79549  11072699.07648  22899860.2694   22899857.9414
     -4053.8284
      2949.49049      4533.12148  23547674.9264   23547670.1294
     -1439.4694
   3194605.32749   2485210.41448  21742633.6684   21742630.7854
     -1186.6414
    534350.30049    416106.34047  24317721.6054   24317719.1644
     -1461.0314
  -6955286.92649  -5418753.73448  23084525.8094   23084522.9024
      1148.7344
 04  9 14 22 22 30.0040000  0  6G 8G13G19G27G10G28
  -2773677.11449  -2160312.92548  21684682.1444   21684680.1414
       -61.3754
  14284871.22149  11120112.62648  22911438.9654   22911436.9414
     -4059.2814
     24608.62549     21410.36348  23551795.7154   23551792.0864
     -1448.5314
   3212427.83649   2499098.08748  21746025.0904   21746022.0984
     -1189.8124
    556331.72549    433234.71447  24321903.5984   24321902.6214
     -1469.9064
  -6972483.74649  -5432153.82148  23081253.6684   23081250.5594
      1144.0314
 04  9 14 22 22 45.0040000  0  6G 8G13G19G27G10G28
  -2772726.54449  -2159572.22048  21684863.6134   21684861.3094
       -65.5474
  14345805.05949  11167593.51348  22923034.4264   22923031.9964
     -4065.3284
     46406.51749     38395.74047  23555943.6444   23555939.6054
     -1457.9844
   3230300.97949   2513025.21848  21749425.7304   21749423.0234
     -1193.4534
    578449.41749    450469.28547  24326112.3634   24326110.7074
     -1479.2504
  -6989606.26749  -5445496.02248  23077995.2234   23077991.9264
      1138.8134
 04  9 14 22 23  0.0040000  0  6G 8G13G19G27G10G28
  -2771716.89749  -2158785.47348  21685055.4184   21685053.3914
       -68.9694
  14406826.45049  11215142.63048  22934646.6994   22934643.2734
     -4070.6094
     68344.53949     55490.31047  23560117.9104   23560114.0744
     -1466.8914
   3248226.07549   2526992.82448  21752837.3094   21752834.1254
     -1196.3594
    600704.62549    467811.01847  24330347.5354   24330345.6684
     -1488.0004
  -7006653.03449  -5458779.18748  23074750.9024   23074748.7274
      1134.2974
 04  9 14 22 23 15.0040000  0  6G 8G13G19G27G10G28
  -2770645.48449  -2157950.59948  21685259.8794   21685257.2114
       -73.5004
  14467937.73349  11262761.78748  22946275.8404   22946272.6764
     -4077.0474
     90425.10749     72695.96248  23564320.5124   23564316.5314
     -1476.7664
   3266205.83849   2541003.03548  21756258.4344   21756255.5784
     -1200.3754
    623099.82449    485261.81147  24334609.5434   24334606.5944
     -1497.6724
  -7023621.35049  -5472001.22948  23071521.7384   23071519.3054
      1128.6254
 04  9 14 22 23 30.0040000  0  6G 8G13G19G27G10G28
  -2769515.51949  -2157070.10248  21685474.5354   21685471.8554
       -77.3594
  14529135.13449  11310448.04148  22957921.1444   22957918.4454
     -4082.6414
    112644.88649     90010.08048  23568548.2624   23568545.3444
     -1485.9844
   3284236.81749   2555053.15848  21759690.4264   21759687.0084
     -1203.8594
    645631.31949    502818.81647  24338896.5744   24338894.9804
     -1506.6254
  -7040514.66049  -5485164.82048  23068307.1134   23068304.3284
      1123.6564
 04  9 14 22 23 45.0040000  0  6G 8G13G19G27G10G28
  -2768325.34249  -2156142.67648  21685701.2384   21685698.4694
       -81.4064
  14590420.45749  11358202.83148  22969582.9804   22969580.3834
     -4088.5944
    135005.75749    107434.14447  23572803.2624   23572799.7234
     -1495.3594
   3302321.09249   2569144.79748  21763131.4654   21763128.7274
     -1207.4534
    668301.05849    520483.53647  24343211.2774   24343208.4574
     -1515.8754
  -7057330.92849  -5498268.37848  23065107.1914   23065104.0514
      1118.5634
 04  9 14 22 24  0.0040000  0  6G 8G13G19G27G10G28
  -2767074.20349  -2155167.75648  21685939.5594   21685936.6334
       -85.5004
  14651793.99149  11406026.32648  22981262.2154   22981260.0314
     -4094.6564
    157508.36849    124968.65548  23577086.2074   23577081.3554
     -1504.9694
   3320459.36749   2583278.51648  21766582.7384   21766579.9534
     -1211.1724
    691109.41349    538256.29547  24347551.3324   24347548.6024
     -1525.2194
  -7074069.44049  -5511311.35248  23061922.6294   23061918.8484
      1113.2344
 04  9 14 22 24 15.0040000  0  6G 8G13G19G27G10G28
  -2765762.72849  -2154145.81848  21686189.0354   21686186.2894
       -89.5944
  14713254.82849  11453917.87648  22992957.6374   22992955.4574
     -4100.5004
    180152.02449    142613.05847  23581394.5744   23581390.5474
     -1514.4374
   3338650.94649   2597453.78248  21770044.3404   21770041.7624
     -1214.7664
    714055.66449    556136.49047  24351918.3324   24351915.7154
     -1534.5004
  -7090730.72049  -5524294.14748  23058751.4494   23058748.2814
      1108.0474
 04  9 14 22 24 30.0040000  0  6G 8G13G19G27G10G28
  -2764395.33049  -2153080.30448  21686449.2384   21686446.6294
       -93.0784
  14774798.08849  11501873.63148  23004669.2234   23004666.7734
     -4105.6254
    202931.94349    160363.65848  23585729.2544   23585725.8404
     -1523.2504
   3356891.19149   2611666.96848  21773515.5354   21773512.3014
     -1217.6414
    737134.90549    574120.30947  24356308.6294   24356308.0624
     -1543.0944
  -7107319.54149  -5537220.47748  23055594.9654   23055591.4844
      1103.5004
 04  9 14 22 24 45.0040000  0  6G 8G13G19G27G10G28
  -2762968.80649  -2151968.71948  21686720.3484   21686718.0744
       -97.0164
  14836426.81149  11549895.99748  23016396.9264   23016394.5044
     -4111.3754
    225851.41249    178222.99148  23590091.0514   23590087.0274
     -1532.5314
   3375183.44649   2625920.66348  21776996.1294   21776993.7664
     -1221.1874
    760350.38749    592210.27847  24360726.6994   24360725.1174
     -1552.2194
  -7123832.53449  -5550087.71848  23052452.5824   23052449.4024
      1098.4224
 04  9 14 22 25  0.0040000  0  6G 8G13G19G27G10G28
  -2761484.35749  -2150812.00448  21687003.1844   21686999.9144
      -100.5004
  14898139.40249  11597983.69948  23028140.2694   23028138.4374
     -4116.5004
    248909.19449    196190.09748  23594479.2234   23594474.8244
     -1541.3754
   3393526.49449   2640213.94548  21780487.3244   21780484.0904
     -1224.1254
    783700.64949    610405.32147  24365170.9494   24365168.0314
     -1560.7664
  -7140270.90349  -5562896.80848  23049324.6604   23049321.1334
      1093.8284
 04  9 14 22 25 15.0040000  0  6G 8G13G19G27G10G28
  -2759944.14549  -2149611.82648  21687296.0664   21687292.9374
      -104.8754
  14959933.50349  11646134.91548  23039899.3554   23039897.2584
     -4122.5474
    272102.88949    214263.10548  23598892.3164   23598888.4414
     -1551.0474
   3411918.32649   2654545.23848  21783986.7234   21783984.1214
     -1227.9844
    807183.40449    628703.55047  24369639.2774   24369636.7384
     -1570.2504
  -7156636.78649  -5575649.43048  23046210.2624   23046207.2774
      1088.3754
 04  9 14 22 25 30.0040000  0  6G 8G13G19G27G10G28
  -2758343.55349  -2148364.60948  21687600.8244   21687598.2074
      -108.3594
  15021813.55549  11694353.10548  23051674.6134   23051672.1874
     -4127.8444
    295437.22749    232445.70948  23603332.9414   23603328.9924
     -1559.9064
   3430363.55049   2668918.14448  21787496.8554   21787494.2544
     -1231.1094
    830803.08049    647108.47847  24374133.5984   24374131.2234
     -1578.7814
  -7172925.50449  -5588341.90748  23043110.6444   23043107.4304
      1083.7344
 04  9 14 22 25 45.0040000  0  6G 8G13G19G27G10G28
  -2756683.42349  -2147070.98948  21687916.2624   21687914.1914
      -112.4844
  15083777.83049  11742636.94948  23063466.1214   23063463.9344
     -4133.6254
    318910.93649    250736.92548  23607799.0274   23607795.8674
     -1569.3444
   3448860.98649   2683331.73248  21791016.9734   21791013.7814
     -1234.7344
    854558.22949    665618.99147  24378654.1134   24378651.9064
     -1587.9844
  -7189138.12149  -5600975.08648  23040025.0984   23040022.3244
      1078.4384
 04  9 14 22 26  0.0040000  0  6G 8G13G19G27G10G28
  -2754963.20349  -2145730.55848  21688243.8944   21688241.8014
      -116.6564
  15145826.89449  11790986.84548  23075273.5744   23075271.8874
     -4139.4844
    342524.57649    269137.16748  23612292.8404   23612289.3484
     -1579.0004
   3467411.28349   2697786.50448  21794547.0124   21794543.9454
     -1238.4224
    878449.39349    684235.49147  24383201.0044   24383199.2934
     -1597.3124
  -7205274.03049  -5613548.50448  23036954.4104   23036951.7154
      1073.1724
 04  9 14 22 26 15.0040000  0  6G 8G13G19G27G10G28
  -2753187.26249  -2144346.69448  21688581.5664   21688579.2074
      -120.5944
  15207956.15749  11839399.21648  23087096.8794   23087094.2814
     -4145.0004
    366273.82449    287643.07048  23616812.3554   23616808.6994
     -1588.1254
   3486010.21249   2712279.18248  21798085.9574   21798083.4184
     -1241.9224
    902471.84949    702954.27847  24387772.5124   24387771.0664
     -1606.2504
  -7221337.62149  -5626065.55348  23033897.9344   23033894.6604
      1068.1414
 04  9 14 22 26 30.0040000  0  6G 8G13G19G27G10G28
  -2751348.96949  -2142914.25948  21688931.4804   21688928.7274
      -124.7344
  15270172.13949  11887879.18348  23098935.5434   23098933.3794
     -4150.6874
    390165.36149    306259.86448  23621359.5594   23621355.0354
     -1597.6414
   3504664.55349   2726815.03148  21801635.5744   21801632.7544
     -1245.5624
    926632.50049    721780.75947  24392370.0044   24392368.0434
     -1615.4224
  -7237321.89249  -5638520.80848  23030856.4574   23030853.1994
      1062.8284
 04  9 14 22 26 45.0040000  0  6G 8G13G19G27G10G28
  -2749451.40949  -2141435.63848  21689292.6914   21689289.8914
      -128.4224
  15332470.93549  11936423.68247  23110790.3874   23110787.8874
     -4155.9694
    414195.61349    324984.73048  23625931.0984   23625928.0664
     -1606.6094
   3523370.90649   2741391.40848  21805195.4344   21805192.6484
     -1248.7504
    950927.54549    740711.95747  24396992.4654   24396990.8714
     -1624.0474
  -7253230.32449  -5650916.97048  23027828.5594   23027825.7274
      1058.1094
 04  9 14 22 27  0.0040000  0  6G 8G13G19G27G10G28
  -2747495.03549  -2139911.17848  21689664.8324   21689662.5944
      -132.8284
  15394851.82749  11985032.13748  23122661.0434   23122658.6914
     -4161.8754
    438363.94649    343817.20548  23630530.6524   23630527.3444
     -1616.2194
   3542128.69149   2756007.86848  21808765.0744   21808762.1094
     -1252.6254
    975356.29649    759747.34447  24401641.3874   24401639.4774
     -1633.4064
  -7269063.47149  -5663254.45848  23024815.6914   23024812.6994
      1052.6884
 04  9 14 22 27 15.0040000  0  6G 8G13G19G27G10G28
  -2745477.01649  -2138338.68748  21690049.0274   21690046.0984
      -136.8444
  15457317.65149  12033706.78848  23134548.6684   23134546.5784
     -4167.3914
    462673.36649    362759.60848  23635157.0354   23635152.8324
     -1625.5164
   3560940.98949   2770666.80848  21812344.9884   21812341.8554
     -1256.1414
    999921.68049    778889.21447  24406315.8404   24406314.0164
     -1642.4224
  -7284818.17949  -5675530.83448  23021817.8944   23021815.0004
      1047.4694
 04  9 14 22 27 30.0040000  0  6G 8G13G19G27G10G28
  -2743399.72849  -2136720.02048  21690444.3404   21690441.5824
      -140.2504
  15519865.60849  12082445.43248  23146451.1444   23146449.1414
     -4172.4224
    487121.27349    381809.93948  23639809.4414   23639805.1024
     -1634.2814
   3579805.37649   2785366.33448  21815934.6764   21815931.9454
     -1259.1874
   1024620.97949    798135.39647  24411015.8484   24411014.4184
     -1650.8914
  -7300496.99749  -5687748.07348  23018834.9104   23018831.4344
      1042.9064
 04  9 14 22 27 45.0040000  0  6G 8G13G19G27G10G28
  -2741264.55249  -2135056.23848  21690850.5514   21690848.3554
      -144.5624
  15582493.92249  12131246.69748  23158368.2694   23158366.9304
     -4178.1564
    511706.12949    400966.96748  23644487.5664   23644483.0164
     -1643.8594
   3598720.42949   2800105.33148  21819534.0434   21819531.2274
     -1262.9844
   1049452.63949    817484.74847  24415740.7544   24415740.0594
     -1660.0944
  -7316101.39449  -5699907.32148  23015865.2544   23015861.6024
      1037.5634
 04  9 14 22 28  0.0040000  0  6G 8G13G19G27G10G28
  -2739066.22749  -2133343.25348  21691268.7854   21691266.1054
      -148.5624
  15645207.69949  12180114.53548  23170302.8014   23170300.6024
     -4183.6414
    536433.25149    420234.84948  23649193.2854   23649188.5394
     -1653.0624
   3617691.56449   2814888.04748  21823144.2464   21823141.2974
     -1266.4694
   1074421.62549    836941.08247  24420492.1374   24420491.5394
     -1669.0164
  -7331625.90749  -5712004.31848  23012910.6684   23012907.0784
      1032.4534
 04  9 14 22 28 15.0040000  0  6G 8G13G19G27G10G28
  -2736805.71549  -2131581.80748  21691699.0594   21691696.6484
      -153.0004
  15708005.50249  12229047.84748  23182252.2624   23182250.6524
     -4189.5314
    561301.53049    439612.73448  23653925.5044   23653920.7934
     -1662.8444
   3636717.77349   2829713.66848  21826764.8874   21826761.6254
     -1270.4064
   1099526.87349    856503.63447  24425270.4654   24425268.7584
     -1678.4064
  -7347071.52349  -5724039.83448  23009971.4964   23009968.1524
      1026.9064
 04  9 14 22 28 30.0040000  0  6G 8G13G19G27G10G28
  -2734484.04849  -2129772.70248  21692141.1374   21692138.4224
      -156.2194
  15770886.07349  12278045.67448  23194218.2694   23194216.1374
     -4194.1724
    586309.75749    459099.66248  23658683.9964   23658679.6994
     -1671.3594
   3655797.87849   2844581.27548  21830395.3484   21830392.3594
     -1273.2034
   1124766.92149    876171.19547  24430072.0664   24430071.2424
     -1686.6254
  -7362439.44849  -5736014.82048  23007047.2304   23007044.0474
      1022.5314
 04  9 14 22 28 45.0040000  0  6G 8G13G19G27G10G28
  -2732107.50749  -2127920.84248  21692593.2934   21692590.9414
      -160.6724
  15833842.77549  12327102.81347  23206199.3794   23206196.5194
     -4200.0474
    611451.58549    478690.67748  23663468.5434   23663464.2544
     -1680.9534
   3674925.83949   2859486.19248  21834035.5664   21834032.5434
     -1277.0944
   1150135.42349    895938.86247  24434900.8554   24434899.3014
     -1695.8914
  -7377735.80549  -5747934.03648  23004136.1994   23004132.8124
      1016.9224
 04  9 14 22 29  0.0040000  0  6G 8G13G19G27G10G28
  -2729669.17849  -2126020.84748  21693057.0824   21693054.3634
      -164.4694
  15896882.09149  12376224.33847  23218194.6914   23218192.6954
     -4205.2344
    636733.73549    498391.05248  23668279.5044   23668275.2774
     -1690.0314
   3694108.28449   2874433.54548  21837685.7384   21837682.8874
     -1280.5004
   1175638.96349    915811.72547  24439754.5274   24439752.5234
     -1704.5624
  -7392953.90649  -5759792.27048  23001240.0904   23001237.1564
      1012.0634
 04  9 14 22 29 15.0040000  0  6G 8G13G19G27G10G28
  -2727171.43949  -2124074.53548  21693531.8714   21693529.8834
      -168.5164
  15960001.51749  12425408.28647  23230205.8244   23230203.7854
     -4210.6254
    662153.80849    518198.89748  23673116.6374   23673112.6844
     -1699.2344
   3713342.99549   2889421.63848  21841345.7154   21841343.0944
     -1284.0784
   1201274.94449    935787.80947  24444631.9344   24444630.7034
     -1713.4694
  -7408096.05549  -5771591.31748  22998358.5824   22998355.4534
      1006.9534
 04  9 14 22 29 30.0040000  0  6G 8G13G19G27G10G28
  -2724608.38949  -2122077.35948  21694020.1604   21694017.7854
      -173.2034
  16023206.47649  12474658.89647  23242233.6604   23242230.9374
     -4216.6414
    687717.54949    538118.71348  23677981.0904   23677977.1414
     -1709.1414
   3732635.81349   2904455.00548  21845017.1914   21845014.2304
     -1288.2034
   1227049.09749    955871.56847  24449537.6684   24449535.2154
     -1723.0314
  -7423156.31649  -5783326.56348  22995492.7304   22995489.6954
      1001.1724
 04  9 14 22 29 45.0040000  0  6G 8G13G19G27G10G28
  -2721986.86949  -2120034.60948  21694519.0274   21694516.2304
      -176.3754
  16086489.72649  12523970.48647  23254275.4884   23254274.1214
     -4221.1414
    713417.72049    558144.82348  23682871.3714   23682867.6764
     -1717.5004
   3751979.75249   2919528.19448  21848698.2234   21848695.3874
     -1290.8914
   1252954.15649    976057.33947  24454466.9184   24454465.2814
     -1731.0004
  -7438141.80449  -5795003.54348  22992641.2154   22992637.8014
       996.8914
 04  9 14 22 30  0.0040000  0  6G 8G13G19G27G10G28
  -2719307.23149  -2117946.56648  21695028.9344   21695026.3014
      -180.5164
  16149850.86849  12573342.75948  23266332.8484   23266331.3204
     -4226.6874
    739254.30449    578277.22348  23687788.7854   23687784.3944
     -1727.0004
   3771374.79849   2934641.22948  21852388.9184   21852386.0824
     -1294.7194
   1278989.80949    996344.83847  24459420.5984   24459418.8164
     -1740.0624
  -7453052.39249  -5806622.15148  22989803.7934   22989800.0704
       991.6094
 04  9 14 22 30 15.0040000  0  6G 8G13G19G27G10G28
  -2716566.16049  -2115810.67048  21695550.4024   21695547.8284
      -184.5164
  16213292.79649  12622778.01047  23278405.5434   23278404.3284
     -4231.8124
    765230.19849    598518.15648  23692731.3874   23692727.7424
     -1736.0784
   3790823.96349   2949796.42048  21856090.3014   21856087.2464
     -1298.1564
   1305158.98449   1016736.39547  24464400.7074   24464398.3324
     -1748.7664
  -7467884.99449  -5818180.01048  22986981.7694   22986977.8124
       986.5314
 04  9 14 22 30 30.0040000  0  6G 8G13G19G27G10G28
  -2713765.34149  -2113628.20448  21696083.3484   21696080.6024
      -188.9224
  16276813.41449  12672274.56648  23290493.7384   23290491.8944
     -4237.5944
    791343.65449    618866.32548  23697700.8794   23697696.7584
     -1745.6874
   3810325.83949   2964992.68648  21859801.0984   21859798.7814
     -1302.0624
   1331459.78549   1037230.51647  24469405.7154   24469403.4374
     -1757.9534
  -7482641.34149  -5829678.44248  22984173.2934   22984169.4694
       980.9844
 04  9 14 22 30 45.0040000  0  6G 8G13G19G27G10G28
  -2710903.60949  -2111398.28448  21696628.3244   21696625.8834
      -192.7344
  16340413.55249  12721833.08048  23302596.3094   23302594.3164
     -4242.5004
    817595.56749    639322.34848  23702696.6444   23702692.3164
     -1754.6254
   3829881.21249   2980230.64148  21863522.6134   21863519.7734
     -1305.3284
   1357893.02849   1057827.85547  24474434.8554   24474433.6414
     -1766.4694
  -7497320.36949  -5841116.61748  22981379.7464   22981376.8324
       976.1564
 04  9 14 22 31  0.0040000  0  6G 8G13G19G27G10G28
  -2707979.81349  -2109119.98248  21697184.3944   21697181.4654
      -197.2034
  16404094.11649  12771454.27048  23314714.8634   23314712.2304
     -4248.3754
    843987.06649    659887.15548  23707718.5274   23707714.5394
     -1764.3284
   3849491.44249   2995511.33848  21867254.1134   21867251.4024
     -1309.4064
   1384459.56349   1078529.06747  24479491.0274   24479489.1804
     -1775.7814
  -7511920.92749  -5852493.65748  22978601.7934   22978598.4654
       970.5634
 04  9 14 22 31 15.0040000  0  6G 8G13G19G27G10G28
  -2704994.34949  -2106793.64348  21697752.5744   21697750.1094
      -200.9694
  16467854.41749  12821137.59748  23326847.6054   23326845.2274
     -4253.1564
    870517.78349    680560.44648  23712766.7774   23712763.2664
     -1773.2194
   3869156.16849   3010834.50148  21870996.1844   21870993.4884
     -1312.6254
   1411158.91849   1099333.73047  24484571.6994   24484570.5234
     -1784.2194
  -7526443.32649  -5863809.77848  22975838.1054   22975834.7974
       965.7194
 04  9 14 22 31 30.0040000  0  6G 8G13G19G27G10G28
  -2701947.09349  -2104419.15648  21698332.4734   21698329.6524
      -205.2974
  16531693.91849  12870882.64647  23338996.2074   23338993.2974
     -4258.7194
    897187.31549    701341.91048  23717841.4804   23717837.3524
     -1782.7034
   3888875.17249   3026199.95648  21874748.6994   21874745.8324
     -1316.5164
   1437990.71849   1120241.64247  24489677.8014   24489676.3364
     -1793.3124
  -7540887.73249  -5875065.13848  22973089.3244   22973086.0044
       960.2504
 04  9 14 22 31 45.0040000  0  6G 8G13G19G27G10G28
  -2698832.79749  -2101992.42548  21698925.3164   21698922.3284
      -209.5784
  16595617.78849  12920693.42947  23351160.2854   23351157.4804
     -4264.1254
    924001.14149    722235.80448  23722944.0664   23722940.3124
     -1792.0784
   3908654.15449   3041612.15448  21878512.7074   21878509.9344
     -1320.3594
   1464960.26149   1141256.85947  24494809.5904   24494807.8874
     -1802.3444
  -7555248.57649  -5886255.37748  22970356.3014   22970352.9844
       954.8914
 04  9 14 22 32  0.0040000  0  6G 8G13G19G27G10G28
  -2695656.97849  -2099517.75348  21699529.5194   21699526.8124
      -213.7974
  16659620.32249  12970565.50847  23363340.2154   23363336.4614
     -4269.4374
    950953.57949    743237.70548  23728072.9804   23728069.5354
     -1801.4534
   3928487.46849   3057066.67048  21882286.2694   21882284.1844
     -1324.0624
   1492061.71849   1162374.85647  24499967.6914   24499965.3524
     -1811.2194
  -7569531.48749  -5897384.90348  22967638.8094   22967634.7304
       949.5634
 04  9 14 22 32 15.0040000  0  6G 8G13G19G27G10G28
  -2692417.24249  -2096993.26948  21700145.5194   21700143.4104
      -217.9374
  16723703.48349  13020500.43148  23375534.4734   23375531.9184
     -4274.7344
    978046.77749    764349.29247  23733228.7934   23733224.9654
     -1810.7344
   3948377.61249   3072565.48448  21886071.6844   21886068.7544
     -1327.7194
   1519297.21749   1183597.32847  24505148.9804   24505148.1954
     -1820.0474
  -7583734.00849  -5908451.76948  22964935.6994   22964932.0124
       944.2814
 04  9 14 22 32 30.0040000  0  6G 8G13G19G27G10G28
  -2689120.17549  -2094424.12848  21700773.2234   21700770.7464
      -221.9064
  16787860.09949  13070492.56948  23387742.2624   23387740.6024
     -4279.6874
   1005273.78649    785565.14348  23738410.3874   23738405.4964
     -1819.7504
   3968317.56349   3088103.11348  21889865.7694   21889863.2154
     -1331.1564
   1546659.74349   1204918.76747  24510356.9654   24510355.5234
     -1828.6254
  -7597863.06949  -5919461.41348  22962247.1054   22962243.6564
       939.3754
 04  9 14 22 32 45.0040000  0  6G 8G13G19G27G10G28
  -2685757.01849  -2091803.47448  21701413.3014   21701410.5864
      -226.5314
  16852098.90249  13120548.72847  23399966.7624   23399965.0984
     -4285.4534
   1032643.48649    806892.18548  23743618.6054   23743613.6804
     -1829.5474
   3988316.36549   3103686.59448  21893671.8324   21893668.8094
     -1335.3594
   1574158.09449   1226346.05447  24515589.9494   24515588.2154
     -1837.8594
  -7611909.65449  -5930406.77948  22959574.2624   22959570.6954
       933.4844
 04  9 14 22 33  0.0040000  0  6G 8G13G19G27G10G28
  -2682329.43249  -2089132.64048  21702065.8634   21702062.3364
      -230.5944
  16916417.97949  13170667.45448  23412206.4574   23412204.8014
     -4290.5164
   1060154.27749    828329.16048  23748854.3014   23748849.7384
     -1838.7034
   4008372.61549   3119314.83648  21897488.2854   21897485.2734
     -1338.9064
   1601790.34149   1247877.66747  24520847.9884   24520846.8944
     -1846.5624
  -7625875.46049  -5941289.21248  22956916.3244   22956913.1374
       928.4694
 04  9 14 22 33 15.0040000  0  6G 8G13G19G27G10G28
  -2678841.17549  -2086414.49948  21702729.5044   21702726.4224
      -234.7814
  16980812.90449  13220845.29548  23424460.8714   23424458.9374
     -4295.6564
   1087801.81149    849872.70348  23754114.8554   23754110.6024
     -1847.8914
   4028482.08349   3134984.55248  21901314.8244   21901312.2734
     -1342.5944
   1629552.16849   1269510.23847  24526131.6214   24526129.6644
     -1855.3284
  -7639764.44649  -5952111.76048  22954273.9344   22954269.8404
       923.1884
 04  9 14 22 33 30.0040000  0  6G 8G13G19G27G10G28
  -2675292.36349  -2083649.18748  21703404.7464   21703402.4224
      -238.8284
  17045283.19749  13271081.85948  23436728.6444   23436726.6724
     -4300.8284
   1115585.77349    871522.54848  23759402.1764   23759397.7504
     -1857.0474
   4048644.64249   3150695.64148  21905151.5194   21905148.5664
     -1346.2034
   1657443.08949   1291243.43847  24531438.4494   24531436.9374
     -1863.9844
  -7653576.96849  -5962874.74548  22951645.0124   22951641.6484
       918.0314
 04  9 14 22 33 45.0040000  0  6G 8G13G19G27G10G28
  -2671678.93849  -2080833.53048  21704092.4494   21704089.7584
      -243.0004
  17109832.71249  13321380.14847  23449012.4104   23449009.9844
     -4305.9374
   1143510.20649    893281.82948  23764715.8794   23764712.1524
     -1866.2504
   4068864.47449   3166451.34948  21908998.9804   21908996.3014
     -1349.7974
   1685467.14249   1313080.36947  24536771.2384   24536769.0164
     -1872.7194
  -7667308.70249  -5973574.78048  22949031.8094   22949028.4534
       912.7974
 04  9 14 22 34  0.0040000  0  6G 8G13G19G27G10G28
  -2668003.80149  -2077969.77548  21704791.3484   21704788.8834
      -246.6414
  17174458.18549  13371737.64047  23461309.9574   23461307.5704
     -4310.5164
   1171572.16449    915148.30148  23770055.6914   23770051.8984
     -1874.9694
   4089138.77049   3182249.50848  21912857.2464   21912854.7304
     -1353.0314
   1713621.21749   1335018.57247  24542128.9734   24542127.1024
     -1880.8444
  -7680962.54749  -5984214.10848  22946433.6444   22946430.3164
       908.0314
 04  9 14 22 34 15.0040000  0  6G 8G13G19G27G10G28
  -2664270.78549  -2075060.93348  21705502.0124   21705499.8484
      -250.7974
  17239155.72949  13422151.30147  23473621.2694   23473618.9454
     -4315.5624
   1199767.85949    937118.96547  23775420.3324   23775417.1054
     -1884.1564
   4109463.80849   3198087.19148  21916725.3244   21916722.6134
     -1356.6874
   1741901.35149   1357055.03747  24547510.1214   24547509.3014
     -1889.5784
  -7694542.19949  -5994795.64748  22943849.5824   22943845.9774
       902.8134
 04  9 14 22 34 30.0040000  0  6G 8G13G19G27G10G28
  -2660471.63649  -2072100.54548  21706224.6524   21706222.2344
      -254.9844
  17303933.04049  13472627.09747  23485948.1684   23485946.0944
     -4320.6874
   1228105.01349    959199.87648  23780813.5824   23780809.2464
     -1893.4224
   4129847.61549   3213970.68948  21920604.4104   21920601.2584
     -1360.4694
   1770315.21649   1379195.72847  24552916.5274   24552916.8094
     -1898.2194
  -7708039.67649  -6005313.13548  22941281.2464   22941277.9774
       897.5474
 04  9 14 22 34 45.0040000  0  6G 8G13G19G27G10G28
  -2656613.02949  -2069093.84748  21706959.3794   21706956.1724
      -259.4844
  17368782.96849  13523159.49647  23498288.9964   23498286.8984
     -4326.0474
   1256576.92949    981385.78647  23786231.1214   23786227.8094
     -1902.8284
   4150283.50149   3229894.73848  21924493.0124   21924489.7734
     -1364.4694
   1798855.94949   1401435.24447  24558349.0044   24558346.9224
     -1907.2194
  -7721461.62849  -6015771.77948  22938727.1444   22938723.8754
       891.9534
 04  9 14 22 35  0.0040000  0  6G 8G13G19G27G10G28
  -2652690.25349  -2066037.11748  21707705.6844   21707702.9024
      -263.8754
  17433709.98049  13573751.94347  23510644.2384   23510642.3094
     -4331.2034
   1285188.07649   1003680.22148  23791675.4964   23791671.3444
     -1912.2504
   4170776.15349   3245863.04948  21928392.4264   21928389.7694
     -1368.2344
   1827527.90349   1423777.00747  24563804.9804   24563803.1024
     -1915.9374
  -7734803.51749  -6026168.03348  22936187.9494   22936184.5124
       886.5944
 04  9 14 22 35 15.0040000  0  6G 8G13G19G27G10G28
  -2648704.82449  -2062931.59548  21708464.1444   21708461.6564
      -267.8914
  17498712.34249  13624403.09747  23523013.4104   23523011.5354
     -4336.0944
   1313936.87049   1026081.88547  23797146.3944   23797142.9414
     -1921.2974
   4191324.20649   3261874.51648  21932302.5594   21932299.9694
     -1371.7504
   1856329.49749   1446219.79547  24569285.4494   24569282.9964
     -1924.4534
  -7748066.74149  -6036502.99448  22933664.0744   22933660.8794
       881.5314
 04  9 14 22 35 30.0040000  0  6G 8G13G19G27G10G28
  -2644659.10449  -2059779.07348  21709234.0274   21709231.3834
      -271.5004
  17563787.14949  13675110.68747  23535396.6444   23535394.5554
     -4340.4844
   1342820.57349   1048588.66548  23802643.0904   23802639.4264
     -1929.8594
   4211925.06449   3277927.12348  21936222.9264   21936220.3054
     -1374.9064
   1885257.83449   1468761.34547  24574790.9414   24574788.1024
     -1932.5314
  -7761253.87149  -6046778.64848  22931154.3164   22931151.5004
       876.8134
 04  9 14 22 35 45.0040000  0  6G 8G13G19G27G10G28
  -2640549.42549  -2056576.72148  21710015.8164   21710013.4104
      -275.8594
  17628937.93049  13725877.53247  23547794.5984   23547792.6374
     -4345.6724
   1371842.96949   1071203.51148  23808166.0194   23808162.0004
     -1939.2034
   4232582.68649   3294023.97548  21940154.1764   21940151.2584
     -1378.8124
   1914316.62049   1491404.56847  24580320.0664   24580318.1214
     -1941.3284
  -7774360.98749  -6056991.96548  22928660.4654   22928657.3054
       871.3914
 04  9 14 22 36  0.0040000  0  6G 8G13G19G27G10G28
  -2636379.68149  -2053327.56248  21710809.4654   21710806.4694
      -280.3284
  17694160.53149  13776700.32047  23560206.4344   23560204.2114
     -4350.9534
   1401000.12549   1093923.36348  23813714.1374   23813710.1414
     -1948.6564
   4253293.04449   3310161.91648  21944095.1054   21944091.9224
     -1382.7504
   1943501.61349   1514146.10347  24585873.8324   24585873.2234
     -1950.2504
  -7787391.96649  -6067145.96148  22926180.8874   22926177.0904
       865.8594
 04  9 14 22 36 15.0040000  0  6G 8G13G19G27G10G28
  -2632146.25249  -2050028.78448  21711615.0194   21711612.3984
      -284.3594
  17759457.86149  13827581.33147  23572631.8554   23572630.5824
     -4355.6724
   1430295.19249   1116750.69348  23819289.1054   23819284.5514
     -1957.6724
   4274059.73849   3326343.74948  21948046.9804   21948044.5044
     -1386.3754
   1972815.92749   1536988.43647  24591451.7384   24591450.3554
     -1958.5784
  -7800343.63049  -6077238.14648  22923716.0594   22923712.1024
       860.7814
 04  9 14 22 36 30.0040000  0  6G 8G13G19G27G10G28
  -2627848.79549  -2046680.11848  21712432.8014   21712430.0394
      -288.7504
  17824830.04349  13878520.64147  23585071.7624   23585070.7274
     -4360.7194
   1459728.32149   1139685.57348  23824890.2544   23824885.7694
     -1966.9374
   4294882.97449   3342569.65148  21952009.2774   21952006.5314
     -1390.1874
   2002259.76649   1559931.66947  24597054.2544   24597053.5904
     -1967.3914
  -7813215.56449  -6087268.20748  22921266.3794   22921263.1094
       855.3594
 04  9 14 22 36 45.0040000  0  6G 8G13G19G27G10G28
  -2623488.11749  -2043282.16748  21713262.6684   21713260.0744
      -292.7664
  17890275.90549  13929517.37647  23597525.8794   23597523.8794
     -4365.4844
   1489298.51549   1162727.27948  23830516.9804   23830513.4344
     -1975.8754
   4315762.05349   3358839.05848  21955982.5664   21955979.7384
     -1393.7664
   2031831.88949   1582974.86647  24602681.7774   24602680.4264
     -1975.5944
  -7826008.56049  -6097236.74748  22918831.9964   22918828.2774
       850.3134
 04  9 14 22 37  0.0040000  0  6G 8G13G19G27G10G28
  -2619064.79149  -2039835.42148  21714104.3094   21714101.2544
      -296.9224
  17955794.50249  13980570.80247  23609993.4184   23609991.8484
     -4370.2194
   1519005.02049   1185875.19948  23836169.8244   23836165.7424
     -1984.8444
   4336696.34149   3375151.48748  21959966.1444   21959963.5084
     -1397.4224
   2061531.46849   1606117.44047  24608333.1604   24608331.9024
     -1984.0944
  -7838723.17549  -6107144.22148  22916413.1764   22916408.8554
       845.0634
 04  9 14 22 37 15.0040000  0  6G 8G13G19G27G10G28
  -2614576.88349  -2036338.34348  21714958.4344   21714955.3714
      -301.4064
  18021387.67149  14031682.34047  23622474.8634   23622473.8164
     -4375.4064
   1548849.90149   1209130.96048  23841849.3484   23841845.2584
     -1994.3444
   4357687.93749   3391508.58148  21963960.1914   21963957.9304
     -1401.4844
   2091360.44249   1629360.76447  24614009.6214   24614007.8674
     -1992.8914
  -7851357.42249  -6116989.06648  22914008.0744   22914004.9144
       839.5004
 04  9 14 22 37 30.0040000  0  6G 8G13G19G27G10G28
  -2610030.82349  -2032795.94948  21715823.4804   21715820.6374
      -304.9534
  18087048.81349  14082846.81547  23634970.1914   23634968.7734
     -4379.5314
   1578826.53749   1232489.38148  23847552.9804   23847549.6994
     -2002.6724
   4378730.48749   3407905.37448  21967965.0044   21967962.3674
     -1404.4374
   2121312.15549   1652699.75047  24619709.0434   24619708.2934
     -2000.7504
  -7863917.68149  -6126776.25048  22911618.3634   22911614.8944
       835.0004
 04  9 14 22 37 45.0040000  0  6G 8G13G19G27G10G28
  -2605421.80849  -2029204.50348  21716700.4804   21716697.9614
      -309.5314
  18152781.89449  14134067.36947  23647478.6604   23647477.0624
     -4384.8124
   1608939.18749   1255953.77847  23853283.9104   23853279.7114
     -2012.2194
   4399828.49049   3424345.36648  21971979.9414   21971977.1174
     -1408.5784
   2151390.68749   1676137.54147  24625433.8164   24625431.6524
     -2009.6094
  -7876399.57849  -6136502.39848  22909242.9574   22909239.6374
       829.3134
 04  9 14 22 38  0.0040000  0  6G 8G13G19G27G10G28
  -2600742.14749  -2025558.02148  21717591.0744   21717587.9774
      -313.5784
  18218594.47149  14185349.87347  23660002.5904   23660000.2304
     -4389.3914
   1639195.68049   1279530.26547  23859040.7624   23859037.4924
     -2021.1564
   4420989.81949   3440834.70848  21976006.6524   21976003.9344
     -1412.0944
   2181603.75049   1699680.18247  24631182.3094   24631181.5194
     -2018.0164
  -7888795.16949  -6146161.28048  22906884.3794   22906880.9104
       824.2194
 04  9 14 22 38 15.0040000  0  6G 8G13G19G27G10G28
  -2595998.96749  -2021862.02548  21718494.0354   21718491.1414
      -318.5164
  18284478.86349  14236688.33647  23672540.2234   23672537.7464
     -4394.8594
   1669588.47649   1303212.94747  23864824.6844   23864821.6684
     -2030.9374
   4442207.07349   3457367.63348  21980044.2544   21980041.2384
     -1416.5314
   2211943.60449   1723321.61847  24636956.1684   24636954.3364
     -2027.1254
  -7901111.82149  -6155758.65248  22904540.2934   22904536.7424
       818.2814
 04  9 14 22 38 30.0040000  0  6G 8G13G19G27G10G28
  -2591188.28749  -2018113.43948  21719408.9654   21719406.5164
      -322.8594
  18350438.91249  14288085.75447  23685092.3244   23685089.7114
     -4399.7194
   1700121.52549   1327004.93248  23870634.9184   23870632.3284
     -2040.0624
   4463484.47649   3473947.42248  21984093.3324   21984090.7074
     -1420.3284
   2242414.27849   1747064.98647  24642754.3244   24642752.8834
     -2035.5944
  -7913345.34549  -6165291.24448  22902212.4804   22902208.9574
       812.9064
 04  9 14 22 38 45.0040000  0  6G 8G13G19G27G10G28
  -2586320.02149  -2014319.99448  21720335.0824   21720332.7384
      -326.3444
  18416464.23249  14339534.01147  23697655.7384   23697654.7234
     -4403.7664
   1730784.61149   1350898.24848  23876470.3554   23876467.2424
     -2048.4224
   4484812.02849   3490566.29748  21988151.6294   21988148.8364
     -1423.3284
   2273005.39049   1770902.19947  24648576.4574   24648573.9534
     -2043.2034
  -7925505.88649  -6174766.97248  22899898.2624   22899895.2734
       808.3914
 04  9 14 22 39  0.0040000  0  6G 8G13G19G27G10G28
  -2581387.47949  -2010476.45548  21721274.0824   21721271.4574
      -331.1724
  18482561.19649  14391038.11947  23710233.9414   23710232.0234
     -4409.0164
   1761584.21249   1374897.92848  23882331.2774   23882327.5124
     -2058.0624
   4506196.28349   3507229.34348  21992220.7464   21992218.1414
     -1427.7034
   2303723.32649   1794838.22947  24654421.6994   24654419.9774
     -2052.2814
  -7937586.90249  -6184180.73348  22897599.4494   22897596.1484
       802.6414
 04  9 14 22 39 15.0040000  0  6G 8G13G19G27G10G28
  -2576392.25549  -2006584.05848  21722224.4734   21722222.0084
      -334.7664
  18548727.92049  14442596.56347  23722824.9884   23722823.1684
     -4413.1094
   1792518.56349   1399002.63348  23888218.1294   23888214.2504
     -2066.4224
   4527635.79849   3523935.45448  21996300.7154   21996298.1914
     -1430.8124
   2334566.14749   1818871.60447  24660290.4964   24660288.9654
     -2059.9844
  -7949589.88349  -6193533.68748  22895315.3714   22895311.9414
       797.9384
 04  9 14 22 39 30.0040000  0  6G 8G13G19G27G10G28
  -2571332.65049  -2002641.51048  21723187.0124   21723184.9734
      -339.5784
  18614965.75749  14494210.43047  23735429.8634   23735428.5904
     -4418.3444
   1823589.24949   1423213.55348  23894130.4264   23894126.5704
     -2076.1094
   4549132.26849   3540685.95448  22000391.5044   22000388.5744
     -1435.1564
   2365535.43849   1843003.53047  24666183.9264   24666182.5864
     -2069.0314
  -7961513.19349  -6202824.56348  22893046.0274   22893042.8794
       792.0634
 04  9 14 22 39 45.0040000  0  6G 8G13G19G27G10G28
  -2566207.91949  -1998648.21848  21724162.6994   21724160.0594
      -343.9374
  18681275.18049  14545880.06848  23748049.0194   23748046.3164
     -4423.1724
   1854796.95149   1447531.23048  23900069.1444   23900065.2424
     -2085.2344
   4570686.47349   3557481.42748  22004492.7854   22004490.2664
     -1439.0164
   2396631.54649   1867234.24347  24672100.7304   24672100.1174
     -2077.3914
  -7973356.04549  -6212052.73448  22890792.7384   22890789.7234
       786.7034
 04  9 14 22 40  0.0040000  0  6G 8G13G19G27G10G28
  -2561020.00149  -1994605.67548  21725150.0514   21725147.3404
      -348.0164
  18747653.78449  14597603.61947  23760680.1684   23760678.2974
     -4427.6724
   1886139.51149   1471954.00148  23906033.4264   23906029.8554
     -2094.1564
   4592296.53549   3574320.43948  22008605.5824   22008602.6994
     -1442.6254
   2427852.21549   1891562.02147  24678042.7544   24678040.3874
     -2085.5314
  -7985120.43349  -6221219.78148  22888554.0904   22888551.1804
       781.5634
 04  9 14 22 40 15.0040000  0  7G29G 8G13G19G27G10G28
    -96285.39959    -64057.41856  25571647.8404   25571645.7034
      2078.4844
  -2555770.46549  -1990515.12948  21726148.8874   21726146.5004
      -352.6724
  18814099.70349  14649379.63347  23773324.0594   23773321.9224
     -4432.5784
   1917614.99649   1496480.36948  23912023.0354   23912019.6644
     -2103.4534
   4613960.71649   3591201.60948  22012727.4574   22012724.7504
     -1446.7344
   2459195.56849   1915985.39747  24684006.2694   24684004.9024
     -2094.2664
  -7996808.07749  -6230327.01348  22886329.5354   22886326.5514
       776.0164
 04  9 14 22 40 30.0040000  0  7G29G 8G13G19G27G10G28
   -127452.37049    -88343.32046  25565717.9344   25565715.4184
      2076.6724
  -2550455.20749  -1986373.36748  21727160.1524   21727157.7504
      -356.5624
  18880616.41549  14701210.80847  23785981.1604   23785979.8524
     -4436.8444
   1949227.21249   1521113.24448  23918038.8874   23918035.1684
     -2112.1254
   4635682.97249   3608128.04248  22016861.1524   22016858.6844
     -1450.1564
   2490665.28049   1940507.22147  24689995.1764   24689993.4494
     -2102.2344
  -8008415.12949  -6239371.45248  22884120.6524   22884117.5194
       771.0474
 04  9 14 22 40 45.0040000  0  7G29G 8G13G19G27G10G28
   -158587.73749   -112604.67746  25559792.3484   25559789.7694
      2074.4384
  -2545076.26049  -1982181.97648  21728184.0434   21728181.0274
      -360.8754
  18947201.67749  14753095.39747  23798652.6994   23798649.9374
     -4441.5004
   1980973.95149   1545850.97348  23924080.0514   23924076.1644
     -2121.1094
   4657461.41649   3625098.24948  22021005.6054   22021003.1094
     -1453.9694
   2522259.17749   1965125.84047  24696007.1604   24696005.8714
     -2110.5784
  -8019943.41849  -6248354.51648  22881927.2304   22881923.4374
       765.7194
 04  9 14 22 41  0.0040000  0  7G29G 8G13G19G27G10G28
   -189689.27749   -136839.56046  25553872.6914   25553871.3094
      2072.7974
  -2539631.49549  -1977939.28048  21729219.8244   21729217.0704
      -364.7034
  19013857.50449  14805034.97647  23811336.7854   23811334.6804
     -4445.5314
   2012857.37249   1570695.19948  23930146.9574   23930143.4534
     -2129.5624
   4679298.21949   3642113.95148  22025161.0274   22025158.6294
     -1457.2034
   2553979.21149   1989842.74647  24702043.4964   24702042.1644
     -2118.5314
  -8031390.81349  -6257274.53348  22879748.9884   22879745.7154
       761.0634
 04  9 14 22 41 15.0040000  0  7G29G 8G13G19G27G10G28
   -220761.13049   -161051.42246  25547962.1914   25547959.1134
      2070.3594
  -2534125.14249  -1973648.62248  21730268.1764   21730265.0664
      -369.2034
  19080579.05649  14857025.76747  23824033.4574   23824030.6294
     -4450.3124
   2044872.99849   1595642.43848  23936239.8554   23936236.1254
     -2138.7974
   4701189.12549   3659171.78748  22029326.7694   22029324.1874
     -1461.2344
   2585820.58949   2014654.22347  24708102.6844   24708102.0554
     -2126.7504
  -8042761.71349  -6266134.96148  22877585.1054   22877581.9264
       755.5314
 04  9 14 22 41 30.0040000  0  7G29G 8G13G19G27G10G28
   -251801.58049   -185238.74146  25542055.1914   25542052.6804
      2068.5164
  -2528555.84549  -1969308.90548  21731327.3634   21731324.9374
      -373.1564
  19147367.40949  14909068.62947  23836742.5984   23836740.0554
     -4454.5314
   2077021.95149   1620693.56048  23942357.1374   23942353.4804
     -2147.5314
   4723135.48449   3676272.83448  22033503.0664   22033499.9694
     -1464.7504
   2617784.54949   2039561.17247  24714186.3324   24714183.6374
     -2134.8754
  -8054054.68149  -6274934.67148  22875435.7624   22875432.6054
       750.4534
 04  9 14 22 41 45.0040000  0  7G29G 8G13G19G27G10G28
   -282805.93049   -209397.98147  25536154.1134   25536153.2814
      2065.7034
  -2522919.06749  -1964916.60548  21732400.1054   21732397.3794
      -378.1724
  19214226.77849  14961166.79447  23849465.9414   23849463.5904
     -4459.7664
   2109308.56549   1645851.95748  23948500.2074   23948497.3984
     -2157.1254
   4745141.88949   3693420.69048  22037691.0274   22037687.8984
     -1469.1564
   2649875.20749   2064566.87547  24720291.9804   24720290.8914
     -2143.7034
  -8065265.31549  -6283670.21048  22873302.4264   22873299.2894
       744.5474
 04  9 14 22 42  0.0040000  0  7G29G 8G13G19G27G10G28
   -313776.26549   -233530.68547  25530260.5434   25530259.6804
      2063.8134
  -2517217.12249  -1960473.53348  21733485.7934   21733482.7194
      -382.1564
  19281154.53249  15013318.26147  23862201.7154   23862199.5784
     -4463.9224
   2141730.30049   1671115.63547  23954670.8484   23954666.7624
     -2165.7194
   4767205.90749   3710613.42448  22041889.4884   22041886.7664
     -1472.6724
   2682089.90349   2089669.22347  24726421.9104   24726420.9964
     -2151.5314
  -8076395.94349  -6292343.41048  22871184.9184   22871181.5514
       739.5784
 04  9 14 22 42 15.0040000  0  7G29G 8G13G19G27G10G28
   -344716.53949   -257639.95347  25524373.3794   25524371.6374
      2061.9064
  -2511453.85649  -1955982.66648  21734581.7624   21734579.5124
      -385.8754
  19348146.15049  15065519.50047  23874949.2074   23874947.9694
     -4467.8594
   2174282.99349   1696481.37247  23960865.1994   23960861.9774
     -2174.1874
   4789323.61549   3727848.00448  22046098.4964   22046095.9924
     -1475.9694
   2714424.33049   2114864.89147  24732575.4024   24732573.8054
     -2159.2814
  -8087450.73549  -6300957.50748  22869080.6604   22869077.5704
       734.7814
 04  9 14 22 42 30.0040000  0  8G29G 8G13G19G31G27G10G28
   -375617.24049   -281718.38847  25518492.8164   25518491.3594
      2059.1254
  -2505620.20049  -1951436.96748  21735692.2624   21735689.4964
      -390.8754
  19415210.47849  15117777.37047  23887711.4104   23887710.2274
     -4472.9844
   2206975.61649   1721956.13947  23967086.1294   23967082.5394
     -2183.6874
    -83524.88459    -57918.01356  25434194.5274   25434194.0864
      2722.8134
   4811504.20549   3745131.57948  22050318.9414   22050316.2194
     -1480.3754
   2746887.46649   2140160.85047  24738752.3244   24738751.5164
     -2168.0944
  -8098420.42449  -6309505.30048  22866993.7234   22866990.1484
       728.7974
 04  9 14 22 42 45.0040000  0  8G29G 8G13G19G31G27G10G28
   -406481.15149   -305768.18047  25512620.1214   25512618.1954
      2056.2504
  -2499719.13949  -1946838.73448  21736815.0354   21736812.4534
      -395.7194
  19482344.25749  15170089.34447  23900487.0514   23900485.9064
     -4477.9064
   2239804.87449   1747537.38147  23973334.3324   23973329.9414
     -2193.1874
   -124359.92849    -89737.45447  25426423.4104   25426423.5594
      2722.0944
   4833744.65249   3762461.79648  22054551.5044   22054548.1644
     -1484.7974
   2779476.05849   2165554.53547  24744954.2694   24744953.9344
     -2176.8124
  -8109308.02049  -6317989.11648  22864921.6524   22864918.1644
       723.0634
 04  9 14 22 43  0.0040000  0  8G29G 8G13G19G31G27G10G28
   -437313.53049   -329793.39547  25506752.7544   25506750.9534
      2054.3284
  -2493755.98849  -1942192.11948  21737949.4884   21737947.0984
      -399.7034
  19549541.75849  15222451.00247  23913274.4264   23913272.4344
     -4482.0314
   2272765.27349   1773220.77847  23979605.2774   23979601.7154
     -2201.8444
   -165195.35549   -121557.20846  25418652.9494   25418652.4534
      2722.1724
   4856039.56849   3779834.45048  22058794.0194   22058790.7274
     -1488.1874
   2812184.26849   2191041.42347  24751178.4734   24751177.0004
     -2184.5784
  -8120119.01649  -6326413.26048  22862864.3794   22862860.7624
       718.0474
 04  9 14 22 43 15.0040000  0  8G29G 8G13G19G31G27G10G28
   -468111.54149   -353791.80547  25500891.6914   25500890.3944
      2052.0164
  -2487728.40049  -1937495.29248  21739096.8094   21739094.6414
      -403.9694
  19616805.20749  15274864.03847  23926073.8874   23926072.2194
     -4486.4374
   2305859.11449   1799008.21148  23985903.7234   23985899.5164
     -2210.7194
   -206028.38049   -153375.08047  25410881.8324   25410881.4654
      2722.0944
   4878391.45149   3797251.49848  22063047.4804   22063044.6054
     -1492.0164
   2845014.34249   2216623.30947  24757425.1214   24757424.4104
     -2192.6724
  -8130851.05849  -6334775.87148  22860822.3484   22860819.0004
       712.8444
 04  9 14 22 43 30.0040000  0  8G29G 8G13G19G31G27G10G28
   -498874.44049   -377762.86947  25495037.6294   25495036.1604
      2049.4694
  -2481635.54449  -1932747.61748  21740256.2154   21740253.5124
      -408.5944
  19684134.91149  15327328.70647  23938886.0354   23938884.4774
     -4491.0944
   2339086.88049   1824899.97048  23992226.3944   23992222.4374
     -2219.8124
   -246858.05549   -185190.34147  25403112.3794   25403112.5704
      2721.6564
   4900800.93549   3814713.43048  22067311.9884   22067308.9884
     -1496.1414
   2877966.70149   2242300.44647  24763696.7624   24763695.6414
     -2201.1874
  -8141503.42049  -6343076.39848  22858794.8554   22858791.9224
       707.2344
 04  9 14 22 43 45.0040000  0  8G29G 8G13G19G31G27G10G28
   -529597.33449   -401702.76847  25489190.9804   25489190.1254
      2046.7034
  -2475472.73349  -1927945.42748  21741429.0984   21741426.2034
      -413.2664
  19751535.09649  15379848.29947  23951711.9104   23951710.6054
     -4495.7344
   2372453.03049   1850899.56347  23998575.4964   23998571.8284
     -2229.0474
   -287679.47349   -216999.15147  25395344.2624   25395344.8874
      2721.1564
   4923272.85149   3832224.01748  22071587.7154   22071585.2694
     -1500.3124
   2911045.52349   2268076.13647  24769991.2774   24769989.8594
     -2209.5474
  -8152071.50049  -6351311.24248  22856783.8944   22856780.5904
       701.6414
 04  9 14 22 44  0.0050000  0  8G29G 8G13G19G31G27G10G28
   -560286.20649   -425616.12247  25483351.3134   25483349.9704
      2044.5314
  -2469243.84649  -1923091.75448  21742614.5014   21742611.7204
      -417.4694
  19819005.74749  15432422.78047  23964551.5094   23964549.7944
     -4499.9224
   2405955.39549   1877005.29047  24004950.9314   24004947.1424
     -2237.7814
   -328499.34149   -248806.75447  25387576.8844   25387576.8684
      2721.0634
   4945804.30249   3849780.98848  22075875.7674   22075872.9584
     -1503.9224
   2944248.66049   2293948.71247  24776309.6884   24776308.0564
     -2217.4534
  -8162560.17249  -6359484.21248  22854787.8684   22854784.8134
       696.5004
 04  9 14 22 44 15.0050000  0  8G29G 8G13G19G31G27G10G28
   -590939.77849   -449502.01847  25477518.1034   25477516.7004
      2042.1564
  -2462952.67949  -1918189.54348  21743811.4704   21743808.5834
      -421.8124
  19886534.51949  15485042.60747  23977401.8374   23977399.9894
     -4504.2194
   2439586.20649   1903211.10547  24011350.1264   24011347.3254
     -2246.7344
   -369314.85349   -280610.97247  25379809.5404   25379809.0954
      2720.6414
   4968389.35649   3867379.73548  22080173.5634   22080170.9464
     -1507.8444
   2977568.27849   2319912.02647  24782650.2674   24782648.3924
     -2225.5624
  -8172971.22149  -6367596.69948  22852806.8214   22852803.7004
       691.2664
 04  9 14 22 44 30.0050000  0  8G29G 8G13G19G31G27G10G28
   -621552.67149   -473356.21647  25471692.7434   25471690.7314
      2039.3754
  -2456591.44249  -1913232.72548  21745021.8294   21745019.0754
      -426.5784
  19954132.79749  15537716.57447  23990265.6104   23990263.5794
     -4508.9694
   2473354.84549   1929524.31447  24017775.9854   24017772.9704
     -2256.0004
   -410121.28549   -312408.15547  25372043.2204   25372043.7164
      2719.8754
   4991036.76249   3885027.05948  22084483.0484   22084480.3374
     -1512.0784
   3011013.59149   2345973.29147  24789014.5874   24789013.1344
     -2234.0944
  -8183298.04249  -6375643.55948  22850841.7204   22850838.2984
       685.4844
 04  9 14 22 44 45.0050000  0  8G29G 8G13G19G31G27G10G28
   -652124.24849   -497178.18647  25465875.0404   25465873.4274
      2037.4384
  -2450159.66449  -1908220.95148  21746245.8294   21746242.8884
      -430.5624
  20021800.68349  15590444.77447  24003142.2674   24003140.3534
     -4512.8444
   2507261.57049   1955945.13047  24024228.7744   24024225.0604
     -2264.3754
   -450917.85649   -344197.64747  25364280.8604   25364280.6534
      2720.1254
   5013747.07749   3902723.40648  22088804.8844   22088801.9274
     -1515.5004
   3044584.69249   2372132.59447  24795402.2284   24795401.5604
     -2241.6564
  -8193540.24549  -6383624.48048  22848892.3924   22848889.3644
       680.6094
 04  9 14 22 45  0.0050000  0  8G29G 8G13G19G31G27G10G28
   -682660.08649   -520972.33047  25460063.6884   25460062.7704
      2034.4064
  -2443663.37449  -1903158.91148  21747482.2284   21747479.3924
      -435.3594
  20089531.86049  15643222.27447  24016031.4854   24016029.0364
     -4517.6414
   2541300.19549   1982468.72347  24030706.4074   24030702.5954
     -2273.7814
   -491710.27449   -375983.85647  25356518.5484   25356517.9814
      2719.2504
   5036514.28249   3920464.07648  22093136.8994   22093134.2634
     -1519.8444
   3078275.37249   2398385.05247  24801814.5244   24801812.0484
     -2250.1414
  -8203703.80949  -6391544.11648  22846958.2744   22846955.2944
       674.8754
 04  9 14 22 45 15.0050000  0  8G29G 8G13G19G31G27G10G28
   -713155.90549   -544735.29647  25454262.1884   25454260.0564
      2032.0944
  -2437098.29249  -1898043.24148  21748731.3604   21748728.8954
      -439.6254
  20157330.34149  15696052.24747  24028932.5174   24028930.7164
     -4521.7664
   2575474.78149   2009098.25648  24037209.5954   24037205.6224
     -2282.6254
   -532494.04549   -407763.36847  25348757.2824   25348757.2784
      2718.9534
   5059342.77949   3938252.52648  22097481.4154   22097478.6774
     -1523.5624
   3112089.66849   2424733.83347  24808247.8604   24808246.9784
     -2258.1094
  -8213784.55149  -6399399.22648  22845040.0244   22845036.9894
       669.7194
 04  9 14 22 45 30.0050000  0  8G29G 8G13G19G31G27G10G28
   -743613.13849   -568468.14747  25448465.2984   25448463.3924
      2029.3134
  -2430466.21749  -1892875.38948  21749993.4234   21749990.6854
      -444.2034
  20225193.90149  15748932.91347  24041846.3454   24041844.7594
     -4526.2034
   2609783.17149   2035832.08247  24043738.0634   24043734.3334
     -2291.4534
   -573270.73749   -439537.32247  25340998.0174   25340997.5364
      2718.3754
   5082230.60949   3956087.19148  22101836.6884   22101833.9154
     -1527.7034
   3146025.25349   2451177.15647  24814705.5634   24814705.2354
     -2266.1874
  -8223784.31649  -6407191.22648  22843137.5324   22843134.0174
       664.2194
 04  9 14 22 45 45.0050000  0  8G29G 8G13G19G31G27G10G28
   -774032.59249   -592171.59647  25442676.5014   25442674.7434
      2027.0314
  -2423767.87449  -1887655.89448  21751268.1184   21751265.4544
      -448.3914
  20293121.39549  15801863.37447  24054772.9234   24054771.3564
     -4530.3124
   2644224.42049   2062669.41547  24050292.9624   24050288.2084
     -2300.1724
   -614040.94449   -471306.25447  25333239.4234   25333239.1344
      2718.1884
   5105176.87649   3973967.40548  22106203.2124   22106200.4584
     -1531.3754
   3180081.10949   2477714.15647  24821187.2674   24821185.9744
     -2274.0474
  -8233704.07149  -6414920.88348  22841249.8214   22841246.0244
       658.9844
 04  9 14 22 46  0.0050000  0  8G29G 8G13G19G31G27G10G28
   -804416.01249   -615846.96647  25436894.9074   25436893.0324
      2024.3754
  -2417005.53249  -1882386.54248  21752555.1184   21752552.2634
      -452.8914
  20361110.30649  15854841.69147  24067709.9784   24067708.9354
     -4534.5624
   2678796.24949   2089608.50847  24056871.6104   24056866.4584
     -2309.0474
   -654806.30549   -503071.36347  25325481.0634   25325481.9314
      2717.5164
   5128179.66749   3991891.65148  22110580.7434   22110578.2594
     -1535.3594
   3214254.82949   2504342.99747  24827690.2904   24827688.7004
     -2282.1414
  -8243545.90949  -6422589.82848  22839376.9464   22839373.4114
       653.5634
 04  9 14 22 46 15.0050000  0  8G29G 8G13G19G31G27G10G28
   -834762.32649   -639493.44147  25431120.2514   25431118.4354
      2021.6094
  -2410178.02449  -1877066.39648  21753853.9074   21753851.1924
      -457.5164
  20429161.15349  15907868.28747  24080660.8064   24080658.6884
     -4539.0314
   2713499.29949   2116649.82347  24063474.7124   24063470.6924
     -2318.1094
   -695565.88449   -534832.04247  25317725.7514   25317725.0134
      2716.8284
   5151239.78249   4009860.56048  22114968.8994   22114966.1884
     -1539.4064
   3248546.95349   2531064.12947  24834215.2744   24834213.8134
     -2290.4224
  -8253308.91149  -6430197.36048  22837518.7204   22837515.6534
       648.0634
 04  9 14 22 46 30.0050000  0  8G29G 8G13G19G31G27G10G28
   -865066.69549   -663107.19847  25425354.7044   25425352.0134
      2018.7814
  -2403280.82749  -1871691.94648  21755166.3924   21755163.9854
      -462.1414
  20497277.95949  15960946.27747  24093622.8684   24093620.9784
     -4543.4374
   2748337.96149   2143796.83147  24070104.5174   24070099.6694
     -2327.1724
   -736314.68849   -566584.27047  25309971.3294   25309970.5174
      2716.2194
   5174361.79349   4027877.72748  22119368.6654   22119365.9934
     -1543.5474
   3282961.65349   2557880.80047  24840764.5634   24840762.8174
     -2298.4064
  -8262988.62249  -6437739.96048  22835676.7434   22835673.6964
       642.5004
 04  9 14 22 46 45.0050000  0  8G29G 8G13G19G31G27G10G28
   -895329.43149   -686688.56247  25419594.7124   25419593.7164
      2016.2034
  -2396314.42949  -1866263.59048  21756492.5244   21756489.4584
      -466.5314
  20565460.22949  16014075.27747  24106597.5014   24106595.9504
     -4547.4534
   2783311.58749   2171048.98847  24076759.7284   24076755.7864
     -2335.8754
   -777052.96549   -598328.34247  25302218.6654   25302218.7784
      2715.8914
   5197545.32349   4045942.80048  22123780.2594   22123777.4544
     -1547.4534
   3317498.17849   2584792.35547  24847336.1184   24847334.4424
     -2306.2974
  -8272585.65449  -6445218.14048  22833850.7284   22833847.1534
       637.2344
 04  9 14 22 47  0.0050000  0  8G29G 8G13G19G31G27G10G28
   -925554.12249   -710240.20747  25413842.8924   25413841.3994
      2013.5314
  -2389282.42949  -1860784.09748  21757830.4154   21757827.3174
      -471.1874
  20633703.82349  16067252.07047  24119584.0714   24119582.3334
     -4551.7194
   2818416.09249   2198403.13447  24083439.7984   24083436.1304
     -2344.8284
   -817784.27249   -630066.92247  25294468.2674   25294467.8844
      2715.0474
   5220786.67749   4064052.94548  22128203.0874   22128200.0634
     -1551.5164
   3352152.42949   2611795.65147  24853931.0954   24853929.1224
     -2314.3284
  -8282103.54649  -6452634.67148  22832039.5244   22832035.3454
       631.6724
 04  9 14 22 47 15.0050000  0  8G29G 8G13G19G31G27G10G28
   -955734.74149   -733757.53947  25408100.0564   25408098.9664
      2010.9224
  -2382179.40249  -1855249.27148  21759182.0484   21759180.0324
      -475.4844
  20702014.10149  16120480.83347  24132583.1574   24132581.6654
     -4555.7974
   2853656.99949   2225863.57847  24090145.9384   24090142.1694
     -2353.5314
   -858502.51049   -661795.38147  25286719.3374   25286719.8174
      2714.4224
   5244091.37049   4082212.43748  22132637.3764   22132634.8134
     -1555.3284
   3386929.76349   2638894.86247  24860548.9934   24860547.9894
     -2322.0474
  -8291536.85649  -6459985.28448  22830244.8454   22830241.1224
       626.4064
 04  9 14 22 47 30.0050000  0  8G29G 8G13G19G31G27G10G28
   -985878.44949   -757246.13447  25402362.9704   25402362.2784
      2008.6094
  -2375012.50549  -1849664.66948  21760546.0014   21760543.6884
      -479.6254
  20770383.25849  16173755.47947  24145592.8214   24145591.2784
     -4559.6414
   2889026.74749   2253424.41148  24096876.5324   24096872.4354
     -2362.0164
   -899214.90149   -693519.27347  25278972.2904   25278971.3534
      2714.2344
   5267452.14049   4100415.64248  22137083.1034   22137080.5054
     -1558.9374
   3421822.53949   2666084.03147  24867188.6884   24867187.7744
     -2329.8914
  -8300892.92949  -6467275.70848  22828463.9854   22828460.2594
       621.5164
 04  9 14 22 47 45.0050000  0  8G29G 8G13G19G31G27G10G28
  -1015982.21349   -780703.58147  25396634.3064   25396633.5364
      2005.4064
  -2367779.10349  -1844028.26148  21761922.4934   21761919.8994
      -484.5164
  20838813.64349  16227077.82047  24158615.3534   24158613.2944
     -4564.1874
   2924527.84749   2281087.60847  24103632.3064   24103628.6734
     -2371.2664
   -939918.27849   -725236.14047  25271226.8764   25271225.9384
      2713.1094
   5290871.74249   4118664.67248  22141540.0714   22141537.1144
     -1563.4694
   3456833.12349   2693364.98947  24873850.2744   24873849.7784
     -2338.1094
  -8310169.06549  -6474503.84548  22826698.9464   22826695.1734
       615.5944
 04  9 14 22 48  0.0050000  0  8G29G 8G13G19G31G27G10G28
  -1046044.31649   -804128.59947  25390913.7904   25390913.1184
      2003.0634
  -2360477.38549  -1838338.60448  21763311.8994   21763309.4464
      -488.7974
  20907306.62949  16280448.94747  24171649.1884   24171648.0134
     -4567.9534
   2960161.80249   2308854.31847  24110413.2824   24110409.1574
     -2379.7664
   -980610.82449   -756944.56647  25263482.9074   25263482.2314
      2712.7664
   5314351.86949   4136960.87848  22146007.7044   22146004.9704
     -1567.1254
   3491962.92249   2720738.83647  24880536.2044   24880533.7984
     -2345.6094
  -8319363.62049  -6481668.41248  22824948.9384   22824945.4704
       610.4694
 04  9 14 22 48 15.0050000  0  8G29G 8G13G19G31G27G10G28
  -1076066.94049   -827522.84847  25385201.4544   25385199.4624
      2000.2034
  -2353109.78449  -1832597.61048  21764713.6814   21764710.9814
      -493.2974
  20975859.54149  16333866.74747  24184694.1424   24184692.9854
     -4572.0314
   2995925.79949   2336722.38448  24117219.0564   24117215.1304
     -2388.5314
  -1021294.69049   -788646.21847  25255741.0014   25255740.5364
      2712.0784
   5337890.00549   4155302.28248  22150487.0094   22150484.2354
     -1571.0164
   3527209.19649   2748203.46647  24887242.9074   24887241.3414
     -2353.5784
  -8328479.14249  -6488771.40748  22823215.1424   22823211.1884
       605.1564
 04  9 14 22 48 30.0050000  0  8G29G 8G13G19G31G27G10G28
  -1106048.12149   -850884.76347  25379496.1574   25379494.8684
      1997.2814
  -2345674.71549  -1826804.05348  21766128.7514   21766125.9624
      -498.0474
  21044473.59349  16387332.22247  24197751.1884   24197749.6384
     -4576.4374
   3031821.51749   2364693.05647  24124049.9314   24124045.6774
     -2397.6564
  -1061967.83349   -820339.51947  25248002.0244   25248000.7554
      2711.0474
   5361487.98949   4173690.31748  22154977.8684   22154974.7314
     -1575.3754
   3562573.29249   2775759.88047  24893972.8454   24893971.7824
     -2361.7194
  -8337513.93649  -6495811.48648  22821495.3684   22821491.7824
       599.5004
 04  9 14 22 48 45.0050000  0  8G29G 8G13G19G31G27G10G28
  -1135990.34549   -874216.34947  25373797.6964   25373796.5874
      1994.5944
  -2338174.71649  -1820959.88548  21767556.0954   21767553.1884
      -502.3914
  21113145.87549  16440843.05047  24210819.2744   24210817.3764
     -4580.2974
   3067845.97249   2392764.06747  24130904.5324   24130900.9894
     -2406.1874
  -1102632.65249   -852026.36947  25240263.9854   25240263.1884
      2710.4844
   5385143.20849   4192122.95348  22159479.1424   22159476.3844
     -1579.1094
   3598052.15949   2803405.75547  24900724.1814   24900723.3024
     -2369.3284
  -8346470.84749  -6502790.88048  22819790.4464   22819787.3064
       594.2664
 04  9 14 22 49  0.0050000  0  8G29G 8G13G19G31G27G10G28
  -1165885.59549   -897511.29647  25368109.1104   25368107.8494
      1991.3594
  -2330601.96549  -1815059.03848  21768996.8134   21768994.1884
      -507.3594
  21181883.75049  16494405.01847  24223899.4074   24223897.6854
     -4584.8284
   3104006.71549   2420941.25847  24137785.5874   24137782.5484
     -2415.3284
  -1143281.19049   -883700.45747  25232527.9704   25232527.3374
      2709.2664
   5408863.34849   4210606.17248  22163992.9384   22163989.7984
     -1583.5474
   3633653.33749   2831146.92647  24907499.8374   24907497.9744
     -2377.5784
  -8355342.00349  -6509703.44248  22818102.2984   22818098.8884
       588.4224
 04  9 14 22 49 15.0050000  0  8G29G 8G13G19G31G27G10G28
  -1195733.08549   -920769.06347  25362429.0714   25362428.2204
      1988.4534
  -2322956.08849  -1809101.20548  21770451.5244   21770448.9234
      -512.0164
  21250687.32149  16548018.14647  24236992.1884   24236990.4354
     -4588.9224
   3140304.04149   2449224.88347  24144692.9934   24144689.0794
     -2424.1874
  -1183912.54049   -915361.20547  25224795.8534   25224795.5244
      2708.3594
   5432648.98149   4229140.43448  22168519.3064   22168516.0834
     -1587.6724
   3669376.91349   2858983.44547  24914297.5094   24914295.8884
     -2385.4694
  -8364127.00249  -6516548.87848  22816430.3454   22816427.3534
       583.0634
 04  9 14 22 49 30.0050000  0  8G29G 8G13G19G31G27G10G28
  -1225539.99749   -943995.22047  25356757.3134   25356756.2984
      1985.7814
  -2315244.29549  -1803092.01348  21771919.1654   21771916.6424
      -516.2814
  21319548.92149  16601676.48647  24250095.9544   24250094.3644
     -4592.7034
   3176730.27249   2477608.96647  24151624.5094   24151620.6494
     -2432.7034
  -1224533.96549   -947014.16347  25217065.4784   25217065.9424
      2707.8134
   5456492.70649   4247719.95848  22173056.2284   22173053.5484
     -1591.4224
   3705215.22849   2886909.41347  24921116.5484   24921115.2784
     -2392.9534
  -8372833.24849  -6523332.94848  22814774.5094   22814770.5954
       577.7814
 04  9 14 22 49 45.0050000  0  8G29G 8G13G19G31G27G10G28
  -1255305.27049   -967188.92347  25351092.9624   25351091.7634
      1982.9534
  -2307465.36449  -1797030.49348  21773399.6494   21773396.7944
      -520.7974
  21388468.95049  16655380.36447  24263211.0564   24263209.1964
     -4596.5624
   3213286.14549   2506094.04447  24158580.7514   24158577.1774
     -2441.3444
  -1265144.14049   -978658.39747  25209337.9464   25209338.2314
      2707.0784
   5480395.40649   4266345.43548  22177605.2744   22177602.0404
     -1595.5004
   3741168.81749   2914925.19147  24927958.7594   24927957.4114
     -2400.7664
  -8381459.95149  -6530055.02348  22813132.5874   22813129.0564
       572.5164
 04  9 14 22 50  0.0050000  0  8G29G 8G13G19G31G27G10G28
  -1285025.36349   -990347.38147  25345437.7824   25345437.0284
      1980.1094
  -2299616.34949  -1790914.37548  21774892.8764   21774890.5484
      -525.3594
  21457450.41549  16709132.12947  24276337.7594   24276336.1494
     -4600.5164
   3249974.60649   2534682.45147  24165562.3764   24165558.7944
     -2450.0164
  -1305739.73049  -1010291.28547  25201613.5014   25201613.1264
      2706.0634
   5504360.16949   4285019.28248  22182165.3214   22182162.4464
     -1599.4534
   3777240.60949   2943033.03447  24934822.3214   24934821.7594
     -2408.4844
  -8390004.08249  -6536712.76748  22811506.9234   22811503.4314
       567.1254
 04  9 14 22 50 15.0050000  0  8G29G 8G13G19G31G27G10G28
  -1314700.40349  -1013470.77547  25339791.2514   25339789.1384
      1976.4694
  -2291697.55249  -1784743.87548  21776400.1034   21776397.4354
      -530.6254
  21526492.66649  16762931.25447  24289476.0014   24289474.1384
     -4605.3914
   3286795.24349   2563373.85047  24172569.1104   24172565.7044
     -2459.5164
  -1346320.61749  -1041912.67947  25193890.3454   25193890.5054
      2704.4224
   5528386.92849   4303741.42648  22186737.4784   22186734.6264
     -1604.2344
   3813429.93949   2971232.53747  24941709.0794   24941708.2744
     -2417.0004
  -8398465.87949  -6543306.36348  22809896.4074   22809892.5994
       560.9694
 04  9 14 22 50 30.0050000  0  8G29G 8G13G19G31G27G10G28
  -1344328.58349  -1036557.64747  25334152.8604   25334151.2164
      1973.9064
  -2283707.42949  -1778517.80148  21777920.7124   21777917.9934
      -534.9064
  21595596.95749  16816778.73447  24302626.1814   24302624.5444
     -4608.9224
   3323749.28349   2592169.19347  24179601.2124   24179597.4544
     -2467.8754
  -1386884.94349  -1073521.19147  25186171.3684   25186171.1614
      2703.8914
   5552477.25049   4322513.09948  22191321.5954   22191318.9074
     -1607.8594
   3849738.08549   2999524.58147  24948618.6574   24948618.0204
     -2424.3124
  -8406843.74649  -6549834.54948  22808302.2744   22808298.2704
       555.9384
 04  9 14 22 50 45.0050000  0  8G29G 8G13G19G31G27G10G28
  -1373909.83949  -1059607.96847  25328523.4234   25328522.0954
      1970.5164
  -2275645.96549  -1772236.14048  21779454.6814   21779451.5364
      -539.8754
  21664762.69549  16870674.05547  24315788.0484   24315786.6654
     -4613.1254
   3360836.28849   2621068.15547  24186657.8534   24186654.7784
     -2476.9224
  -1427433.07749  -1105117.12647  25178455.4234   25178454.7514
      2702.6724
   5576630.99749   4341334.19348  22195917.7354   22195915.1454
     -1612.3754
   3886164.47349   3027908.77247  24955550.6654   24955549.8884
     -2432.3914
  -8415137.93949  -6556297.54748  22806723.3374   22806719.9744
       550.1254
 04  9 14 22 51  0.0050000  0  8G29G 8G13G19G31G27G10G28
  -1403450.02349  -1082626.25847  25322901.8214   25322901.3494
      1968.1724
  -2267519.22649  -1765903.61348  21781001.3374   21780998.0134
      -543.7344
  21733983.49749  16924612.31147  24328960.2824   24328958.7944
     -4616.3754
   3398050.18049   2650065.99447  24193740.6104   24193736.6774
     -2485.0314
  -1467969.42449  -1136703.80947  25170741.0874   25170741.5484
      2702.2504
   5600842.08549   4360199.97548  22200525.2284   22200522.9114
     -1615.8594
   3922702.79449   3056380.18347  24962503.2674   24962502.7944
     -2439.4694
  -8423354.38349  -6562699.94148  22805160.2204   22805156.5994
       545.3594
 04  9 14 22 51 15.0050000  0  8G29G 8G13G19G31G27G10G28
  -1432945.35849  -1105609.62647  25317289.5794   25317288.6494
      1965.2344
  -2259323.80349  -1759517.57048  21782560.4624   21782557.9424
      -548.2504
  21803262.43649  16978595.88147  24342143.7124   24342142.3374
     -4620.1094
   3435393.99149   2679165.05847  24200846.3844   24200843.2284
     -2493.5474
  -1508491.67349  -1168279.53247  25163030.3294   25163030.3564
      2701.3444
   5625113.99349   4379113.14748  22205143.9544   22205141.1884
     -1619.7974
   3959356.13949   3084941.21447  24969479.0634   24969477.0794
     -2446.9534
  -8431489.92849  -6569039.30648  22803611.8604   22803608.1494
       540.0634
 04  9 14 22 51 30.0050000  0  8G29G 8G13G19G31G27G10G28
  -1462399.76849  -1128561.07047  25311683.7284   25311683.3724
      1962.2504
  -2251063.49849  -1753080.95548  21784132.5794   21784129.9744
      -552.9374
  21872595.20249  17032621.33947  24355338.2124   24355335.9504
     -4624.0784
   3472863.49049   2708362.09047  24207977.9854   24207973.1854
     -2502.2504
  -1549002.99449  -1199846.73947  25155320.3454   25155320.9464
      2700.4384
   5649442.70649   4398070.59948  22209773.8374   22209770.6224
     -1623.8754
   3996120.14849   3113588.48447  24976474.9314   24976473.1694
     -2454.6414
  -8439548.58349  -6575318.76148  22802078.3844   22802075.1064
       534.6094
 04  9 14 22 51 45.0050000  0  8G29G 8G13G19G31G27G10G28
  -1491809.83549  -1151477.97147  25306088.1494   25306086.6264
      1959.1254
  -2242735.44049  -1746591.55848  21785717.4314   21785714.3564
      -557.4224
  21941984.55349  17086690.94147  24368542.1034   24368540.1574
     -4627.8444
   3510461.77649   2737659.43747  24215131.3764   24215128.2704
     -2510.8284
  -1589500.17649  -1231402.95247  25147613.8374   25147614.0874
      2699.3134
   5673831.40849   4417074.76748  22214414.7044   22214411.7554
     -1627.9374
   4032997.61949   3142324.14747  24983492.2124   24983490.7594
     -2462.2664
  -8447527.18849  -6581535.84748  22800559.8604   22800556.6884
       529.1884
 04  9 14 22 52  0.0050000  0  8G29G 8G13G19G31G27G10G28
  -1521173.71049  -1174358.89747  25300499.5634   25300499.0604
      1956.1414
  -2234337.88549  -1740048.00548  21787315.1654   21787312.3954
      -562.0314
  22011431.85849  17140805.69747  24381756.8064   24381755.9854
     -4631.5624
   3548190.07149   2767058.09747  24222310.4544   24222307.3494
     -2519.4844
  -1629981.08849  -1262946.47447  25139911.2284   25139910.9744
      2698.2814
   5698281.75049   4436126.98948  22219067.5714   22219064.5204
     -1631.9534
   4069989.84949   3171149.25547  24990531.2124   24990530.1144
     -2469.7974
  -8455424.29549  -6587689.40748  22799057.5564   22799053.7084
       523.9224
 04  9 14 22 52 15.0050000  0  8G29G 8G13G19G31G27G10G28
  -1550491.94149  -1197204.24047  25294919.7744   25294919.4704
      1952.8754
  -2225871.21349  -1733450.58748  21788926.4384   21788923.6304
      -566.9064
  22080935.99449  17194964.70947  24394984.1264   24394982.4424
     -4635.6414
   3586047.36149   2796557.28747  24229515.5094   24229510.9704
     -2528.2664
  -1670446.20349  -1294477.65647  25132211.2514   25132210.3064
      2696.9694
   5722792.99049   4455226.65648  22223731.7124   22223728.8844
     -1636.2664
   4107095.76549   3200062.96047  24997592.3374   24997591.1534
     -2477.5624
  -8463240.62049  -6593780.03048  22797569.5874   22797566.7044
       518.1564
 04  9 14 22 52 30.0050000  0  8G29G 8G13G19G31G27G10G28
  -1579762.29449  -1220012.25847  25289350.8374   25289349.2744
      1949.9064
  -2217333.73949  -1726798.01148  21790551.2284   21790549.2474
      -571.4224
  22150498.51149  17249169.21347  24408221.1494   24408219.6654
     -4639.3124
   3624035.39049   2826158.35047  24236744.4074   24236740.2354
     -2536.7814
  -1710893.39349  -1325994.86447  25124514.2904   25124513.1184
      2695.9064
   5747367.00049   4474375.23548  22228407.9854   22228405.4974
     -1640.2344
   4144316.91749   3229066.44147  25004675.5564   25004673.7944
     -2485.1724
  -8470974.25949  -6599806.22948  22796098.1654   22796095.1734
       512.9384
 04  9 14 22 52 45.0050000  0  8G29G 8G13G19G31G27G10G28
  -1608984.44249  -1242782.77347  25283789.9314   25283788.0634
      1946.3444
  -2208725.45349  -1720090.24448  21792189.1344   21792186.4704
      -576.2814
  22220119.05349  17303418.95847  24421469.8374   24421468.0054
     -4643.4534
   3662153.90349   2855861.09547  24243997.0244   24243993.8494
     -2545.6094
  -1751322.40649  -1357497.91847  25116820.7674   25116819.4384
      2694.5944
   5772004.00749   4493572.89548  22233095.9074   22233093.2434
     -1644.7194
   4181653.11649   3258159.58347  25011780.9934   25011779.0244
     -2493.0474
  -8478625.26849  -6605768.03748  22794642.5174   22794638.8604
       507.1724
 04  9 14 22 53  0.0050000  0  8G29G 8G13G19G31G27G10G28
  -1638158.69849  -1265515.92947  25278237.6424   25278237.0994
      1942.9694
  -2200046.79049  -1713327.65248  21793840.7044   21793837.8644
      -581.3594
  22289796.87549  17357713.32147  24434728.8374   24434726.6424
     -4647.5164
   3700402.23949   2885664.98847  24251275.0014   24251271.9234
     -2554.6874
  -1791733.09449  -1388986.70947  25109130.6574   25109129.6924
      2692.9064
   5796703.32349   4512819.11748  22237796.2284   22237793.3254
     -1649.1414
   4219103.39849   3287341.58547  25018907.0484   25018905.5014
     -2500.8914
  -8486194.18449  -6611665.87248  22793202.1654   22793198.6064
       501.4224
 04  9 14 22 53 15.0050000  0  8G29G 8G13G19G31G27G10G28
  -1667279.71049  -1288207.57747  25272695.8684   25272695.5484
      1939.7974
  -2191292.44049  -1706506.07248  21795506.6264   21795503.9744
      -586.0004
  22359536.55749  17412055.91547  24447999.3064   24447997.7864
     -4651.2974
   3738785.32549   2915573.87247  24258579.4784   24258576.4934
     -2563.2344
  -1832120.34449  -1420457.23947  25101445.8844   25101443.9894
      2691.7814
   5821470.34049   4532118.08048  22242509.6184   22242506.8564
     -1653.2504
   4256672.62549   3316616.30147  25026056.2204   25026054.2674
     -2508.3594
  -8493675.86349  -6617495.73748  22791778.2044   22791774.5564
       495.9534
 04  9 14 22 53 30.0050000  0  8G29G 8G13G19G31G27G10G28
  -1696353.71949  -1310862.65747  25267163.7594   25267163.0484
      1936.8754
  -2182468.81949  -1699630.52248  21797185.5244   21797182.6654
      -590.3594
  22429331.63649  17466441.64947  24461280.6104   24461279.7284
     -4654.6874
   3777296.54249   2945582.61447  24265908.4314   24265904.8254
     -2571.5004
  -1872490.28849  -1451914.29347  25093763.5874   25093762.4274
      2690.9694
   5846298.48749   4551464.68748  22247233.7284   22247231.2474
     -1657.0784
   4294354.12249   3345978.49947  25033226.7124   25033224.9234
     -2515.6094
  -8501076.84349  -6623262.72548  22790370.0174   22790366.1854
       490.9064
 04  9 14 22 53 45.0050000  0  8G29G 8G13G19G31G27G10G28
  -1725379.73049  -1333480.27147  25261640.3994   25261639.1384
      1933.9844
  -2173575.47649  -1692700.64248  21798877.9074   21798875.1924
      -594.6094
  22499182.21149  17520870.62447  24474573.1424   24474571.8414
     -4657.9224
   3815936.26649   2975691.49147  24273261.9314   24273257.5834
     -2579.6874
  -1912841.96449  -1483357.09447  25086083.9704   25086084.5404
      2690.0314
   5871188.54049   4570859.54148  22251970.7354   22251967.9464
     -1660.8284
   4332148.21949   3375428.41847  25040418.4624   25040416.7744
     -2522.7664
  -8508396.52849  -6628966.35448  22788976.7824   22788973.8104
       485.8284
 04  9 14 22 54  0.0050000  0  8G29G 8G13G19G31G27G10G28
  -1754359.20849  -1356061.68947  25256126.1424   25256124.2244
      1930.2814
  -2164613.81849  -1685717.52948  21800583.6494   21800580.4814
      -599.7664
  22569086.26949  17575341.27647  24487875.9154   24487873.6384
     -4662.1094
   3854702.52349   3005898.96947  24280639.0014   24280634.9624
     -2588.6564
  -1953176.65349  -1514786.66647  25078409.0404   25078408.6454
      2688.2974
   5896138.73749   4590301.23848  22256718.6884   22256715.3454
     -1665.3914
   4370052.60549   3404964.31247  25047631.5014   25047629.3994
     -2530.7974
  -8515636.78249  -6634608.09948  22787598.9154   22787595.9974
       479.9534
 04  9 14 22 54 15.0050000  0  8G29G 8G13G19G31G27G10G28
  -1783289.16149  -1378604.49347  25250620.3214   25250619.0134
      1927.3284
  -2155581.10349  -1678679.03548  21802302.1034   21802299.8534
      -604.2194
  22639046.35349  17629855.60047  24501188.4624   24501186.9784
     -4665.5164
   3893597.95649   3036207.06747  24288040.0794   24288036.1264
     -2597.0314
  -1993491.21849  -1546200.55847  25070737.2044   25070736.4154
      2687.2034
   5921151.96649   4609792.08548  22261478.0564   22261475.6654
     -1669.3284
   4408070.02149   3434588.24847  25054866.5094   25054864.4074
     -2538.0624
  -8522794.66149  -6640185.64048  22786237.1184   22786233.8064
       474.6724
 04  9 14 22 54 30.0050000  0  8G29G 8G13G19G31G27G10G28
  -1812172.04249  -1401110.58247  25245124.6424   25245122.8064
      1924.0474
  -2146479.87049  -1671587.17048  21804033.9154   21804031.2434
      -608.9694
  22709059.21049  17684411.03547  24514511.7284   24514510.1494
     -4669.2344
   3932619.45149   3066613.41747  24295464.8214   24295461.9584
     -2605.5004
  -2033788.55049  -1577601.01347  25063068.4074   25063067.7944
      2686.0474
   5946225.56049   4629329.94648  22266249.2514   22266246.8414
     -1673.4374
   4446197.16449   3464297.68747  25062121.8604   25062119.6264
     -2545.4224
  -8529873.05949  -6645701.26348  22784889.6494   22784886.6614
       469.2814
 04  9 14 22 54 45.0050000  0  8G29G 8G13G19G31G27G10G28
  -1841002.48049  -1423575.83547  25239638.4074   25239636.8684
      1920.1254
  -2137305.04549  -1664437.94448  21805780.1034   21805777.2674
      -614.2664
  22779129.65949  17739011.37047  24527845.5794   24527843.7824
     -4673.4374
   3971772.05549   3097121.94547  24302915.8764   24302912.0364
     -2614.7814
  -2074062.42249  -1608983.20547  25055404.6494   25055404.3214
      2683.9844
   5971364.64849   4648918.83648  22271032.8374   22271030.7314
     -1678.2814
   4484439.02049   3494096.54347  25069397.9154   25069396.5954
     -2553.5164
  -8536866.73249  -6651150.86748  22783559.0874   22783555.9584
       463.3134
 04  9 14 22 55  0.0050000  0  8G29G 8G13G19G31G27G10G28
  -1869779.68449  -1445999.60647  25234161.1494   25234160.4934
      1916.9224
  -2128055.85549  -1657230.77848  21807540.0174   21807537.4314
      -618.8444
  22849258.21249  17793656.99847  24541190.6654   24541188.9934
     -4676.9844
   4011056.08549   3127732.85847  24310391.7354   24310387.6814
     -2623.0004
  -2114312.53449  -1640346.87847  25047744.8134   25047744.7084
      2682.7034
   5996569.91449   4668559.30348  22275830.0014   22275826.9504
     -1682.3594
   4522795.81649   3523984.92447  25076697.0014   25076695.8604
     -2560.7344
  -8543775.18649  -6656534.05448  22782244.3684   22782240.7204
       457.9534
 04  9 14 22 55 15.0050000  0  8G29G 8G13G19G31G27G10G28
  -1898507.32749  -1468384.75647  25228695.4544   25228693.9114
      1913.6884
  -2118736.43549  -1649968.89348  21809313.4934   21809310.6534
      -623.5004
  22919440.29449  17848344.28747  24554546.3134   24554544.3134
     -4680.3594
   4050467.24549   3158442.84647  24317891.6734   24317887.0054
     -2631.5004
  -2154542.50449  -1671694.82947  25040090.4544   25040089.6224
      2681.4534
   6021837.17149   4688248.06648  22280637.4624   22280635.1614
     -1686.3914
   4561263.07349   3553959.39847  25084017.0014   25084016.1144
     -2568.0164
  -8550602.60849  -6661854.11248  22780944.9854   22780941.7674
       452.6254
 04  9 14 22 55 30.0050000  0  8G29G 8G13G19G31G27G10G28
  -1927184.78749  -1490730.78847  25223239.3454   25223236.8684
      1910.0944
  -2109346.37149  -1642651.94348  21811100.2744   21811097.5014
      -628.4694
  22989676.19449  17903073.48447  24567911.6574   24567909.8254
     -4684.3124
   4090005.83149   3189252.12747  24325414.9854   24325411.5674
     -2640.2034
  -2194751.64449  -1703026.58547  25032438.1884   25032437.6574
      2679.7664
   6047167.21049   4707985.75448  22285457.9074   22285455.5994
     -1690.8444
   4599841.13949   3584020.24047  25091358.3454   25091357.4544
     -2575.7664
  -8557348.37849  -6667110.53448  22779662.2354   22779658.5404
       446.8444
 04  9 14 22 55 45.0050000  0  8G29G 8G13G19G31G27G10G28
  -1955811.33149  -1513037.20047  25217791.0634   25217788.9354
      1906.5944
  -2099885.08349  -1635279.51648  21812900.7514   21812897.9974
      -633.2814
  23059965.85349  17957844.62747  24581287.1104   24581285.9354
     -4688.0164
   4129672.02649   3220160.84647  24332964.0174   24332959.2354
     -2648.7974
  -2234938.80349  -1734341.19647  25024790.6104   25024790.2394
      2678.2194
   6072560.27049   4727772.55048  22290290.2354   22290287.4544
     -1695.1094
   4638529.90049   3614167.32347  25098720.3534   25098719.9354
     -2583.0944
  -8564012.27949  -6672303.18048  22778393.4854   22778390.1034
       441.3754
 04  9 14 22 56  0.0050000  0  8G29G 8G13G19G31G27G10G28
  -1984383.48649  -1535301.19247  25212354.0014   25212352.1734
      1903.0784
  -2090349.14449  -1627848.90248  21814715.3534   21814712.6034
      -638.2034
  23130312.19449  18012659.87947  24594672.9544   24594671.9854
     -4691.5314
   4169468.69449   3251171.23247  24340536.9544   24340532.9384
     -2657.4374
  -2275100.27549  -1765635.79547  25017148.3374   25017147.6034
      2676.7194
   6098019.73049   4747611.08848  22295134.6424   22295132.3454
     -1699.4374
   4677332.37049   3644403.02247  25106103.8064   25106102.9314
     -2590.5004
  -8570591.08149  -6677429.49548  22777141.4074   22777138.1694
       435.8134
 04  9 14 22 56 15.0050000  0  8G29G 8G13G19G31G27G10G28
  -2012906.25349  -1557526.68747  25206925.9934   25206924.4814
      1899.9064
  -2080743.97049  -1620364.35148  21816543.1884   21816540.1694
      -642.6414
  23200709.56949  18067514.93047  24608068.6184   24608068.8764
     -4694.8444
   4209390.51949   3282279.13247  24348133.1884   24348129.5834
     -2665.6414
  -2315243.00149  -1796915.75047  25009509.7354   25009508.6064
      2675.5474
   6123540.24149   4767497.20148  22299991.4854   22299988.9234
     -1703.4064
   4716242.90149   3674722.89447  25113508.8214   25113507.5284
     -2597.6874
  -8577090.13749  -6682493.67648  22775904.6814   22775901.6774
       430.5944
 04  9 14 22 56 30.0050000  0  8G29G 8G13G19G31G27G10G28
  -2041373.91049  -1579709.26647  25201508.6264   25201507.1854
      1896.1724
  -2071064.10849  -1612821.59848  21818385.3534   21818382.0914
      -647.6564
  23271163.25749  18122413.83647  24621476.9074   24621475.0564
     -4698.6254
   4249442.65449   3313488.58447  24355754.5954   24355751.5054
     -2674.2974
  -2355357.93449  -1828174.10147  25001876.6574   25001875.2824
      2673.5314
   6149127.32449   4787435.17448  22304860.1734   22304857.4744
     -1707.9064
   4755266.57149   3705130.92447  25120935.3374   25120933.8064
     -2605.2034
  -8583504.00549  -6687491.49448  22774684.0324   22774681.3064
       424.9224
 04  9 14 22 56 45.0050000  0  8G29G 8G13G19G31G27G10G28
  -2069789.39749  -1601851.17747  25196101.1424   25196099.8924
      1892.5164
  -2061312.66549  -1605223.05448  21820240.7594   21820238.0204
      -652.5314
  23341669.63649  18177353.81547  24634893.2984   24634891.8454
     -4702.1724
   4289621.60649   3344796.84447  24363399.5094   24363397.5994
     -2682.9224
  -2395450.99349  -1859415.37147  24994246.2984   24994245.6924
      2671.9224
   6174777.99849   4807422.71748  22309741.6964   22309739.0834
     -1712.2194
   4794399.90349   3735624.42547  25128382.5714   25128380.4354
     -2612.5474
  -8589835.94449  -6692425.44548  22773479.2434   22773475.6654
       419.3444
 04  9 14 22 57  0.0050000  0  8G29G 8G13G19G31G27G10G28
  -2098150.98449  -1623951.10047  25190704.7204   25190702.8254
      1889.2034
  -2051487.76749  -1597567.29548  21822110.2514   21822107.2514
      -657.2194
  23412229.91749  18232335.84847  24648320.6654   24648319.3294
     -4705.5784
   4329928.73449   3376204.99447  24371070.5794   24371067.6814
     -2691.1724
  -2435517.98149  -1890636.36147  24986622.0564   24986621.1104
      2670.4694
   6200493.66549   4827460.89048  22314635.2594   22314632.4194
     -1716.2664
   4833644.12049   3766204.30847  25135850.0324   25135847.9504
     -2619.7194
  -8596084.36849  -6697294.33548  22772290.3454   22772286.7594
       413.9844
 04  9 14 22 57 15.0050000  0  8G29G 8G13G19G31G27G10G28
  -2126458.15949  -1646008.60447  25185317.5174   25185316.4154
      1885.3914
  -2041589.20549  -1589854.14148  21823994.2984   21823991.2904
      -662.2664
  23482843.93449  18287359.73447  24661758.4464   24661756.5444
     -4709.3284
   4370363.99849   3407712.96147  24378764.8764   24378762.1304
     -2699.9224
  -2475560.01949  -1921837.86847  24979001.9784   24979001.2784
      2668.6884
   6226274.65049   4847549.95648  22319541.0794   22319538.2594
     -1720.8284
   4872999.00749   3796870.42347  25143339.0484   25143337.3884
     -2627.2974
  -8602249.22049  -6702098.10848  22771117.4704   22771113.6574
       408.2344
